[[{"header":{"parameterUnit":"m.s-1","parameterCategory":1,"la1":30.6,"la2":29.2853,"lo1":-89.7004,"lo2":-87.6739,"dy":0.0162,"dx":0.0183,"nx":112,"ny":82,"refTime":"2023-08-18T12:00:00:Z","depth":0,"parameterNumber":2,"parameterNumberName":"U-component_of_WINDS"},"data":[0.0,0.0,0.0,0.0,0.0,0.0,0.0,0.0,0.0,0.0,0.0,0.0,0.0,0.0,0.0,0.0,0.0,0.0,0.0,0.0,0.0,0.0,0.0,0.0,0.0,0.0,0.0,0.0,0.0,0.0,0.0,0.0,0.0,0.0,0.0,0.0,0.0,0.0,0.0,0.0,0.0,0.0,0.0,0.0,0.0,0.0,0.0,0.0,0.0,0.0,0.0,0.0,0.0,0.0,0.0,0.0,0.0,0.0,0.0,0.0,0.0,0.0,0.0,0.0,0.0,0.0,0.0,0.0,0.0,0.0,0.0,0.0,0.0,0.0,0.0,0.0,0.0,0.0,0.0,0.0,0.0,0.0,0.0,0.0,0.0,0.0,0.0,0.0,0.0,0.0,-1.5733,-1.5733,-1.5914,-1.6004,-1.6004,-1.6004,-1.6004,-1.6004,0.0,0.0,0.0,0.0,0.0,0.0,0.0,0.0,0.0,0.0,0.0,0.0,0.0,0.0,0.0,0.0,0.0,0.0,0.0,0.0,0.0,0.0,0.0,0.0,0.0,0.0,0.0,0.0,0.0,0.0,0.0,0.0,0.0,0.0,0.0,0.0,0.0,0.0,0.0,0.0,0.0,0.0,0.0,0.0,0.0,0.0,0.0,0.0,0.0,0.0,0.0,0.0,0.0,0.0,0.0,0.0,0.0,0.0,0.0,0.0,0.0,0.0,0.0,0.0,0.0,0.0,0.0,0.0,0.0,0.0,0.0,0.0,0.0,0.0,0.0,0.0,0.0,0.0,0.0,0.0,0.0,0.0,0.0,0.0,0.0,0.0,0.0,0.0,0.0,0.0,0.0,0.0,0.0,0.0,0.0,0.0,0.0,0.0,0.0,0.0,0.0,0.0,0.0,0.0,-1.5733,-1.5733,-1.5582,-1.5514,-1.5514,-1.5665,-1.5658,-1.5514,0.0,0.0,0.0,0.0,0.0,0.0,0.0,0.0,0.0,0.0,0.0,0.0,0.0,0.0,0.0,0.0,0.0,0.0,0.0,0.0,0.0,0.0,0.0,0.0,0.0,0.0,0.0,0.0,0.0,0.0,0.0,0.0,0.0,0.0,0.0,0.0,0.0,0.0,0.0,0.0,0.0,0.0,0.0,0.0,0.0,0.0,0.0,0.0,0.0,0.0,0.0,0.0,0.0,0.0,0.0,0.0,0.0,0.0,0.0,0.0,0.0,0.0,0.0,0.0,0.0,0.0,0.0,0.0,0.0,0.0,0.0,0.0,0.0,0.0,0.0,0.0,0.0,0.0,0.0,0.0,0.0,0.0,0.0,0.0,0.0,0.0,0.0,0.0,0.0,0.0,0.0,0.0,0.0,0.0,0.0,0.0,0.0,0.0,0.0,0.0,0.0,0.0,0.0,-1.5506,-1.5499,-1.5499,-1.5423,-1.5431,-1.5431,-1.5499,-1.5499,-1.5431,-1.559,0.0,0.0,0.0,0.0,0.0,0.0,0.0,0.0,0.0,0.0,0.0,0.0,0.0,0.0,0.0,0.0,0.0,0.0,0.0,0.0,0.0,0.0,0.0,0.0,0.0,0.0,0.0,0.0,0.0,0.0,0.0,0.0,0.0,0.0,0.0,0.0,0.0,0.0,0.0,0.0,0.0,0.0,0.0,0.0,0.0,0.0,0.0,0.0,0.0,0.0,0.0,0.0,0.0,0.0,0.0,0.0,0.0,0.0,0.0,0.0,0.0,0.0,0.0,0.0,0.0,0.0,0.0,0.0,0.0,0.0,0.0,0.0,0.0,0.0,0.0,0.0,0.0,0.0,0.0,0.0,0.0,0.0,0.0,0.0,0.0,0.0,0.0,0.0,0.0,0.0,0.0,0.0,0.0,0.0,0.0,0.0,0.0,0.0,0.0,0.0,0.0,0.0,-1.5431,-1.5431,-1.5431,-1.5431,-1.5431,-1.5431,-1.5431,-1.5347,-1.509,-1.5257,0.0,0.0,0.0,0.0,0.0,0.0,0.0,0.0,0.0,0.0,0.0,0.0,0.0,0.0,0.0,0.0,0.0,0.0,0.0,0.0,0.0,0.0,0.0,0.0,0.0,0.0,0.0,0.0,0.0,0.0,0.0,0.0,0.0,0.0,0.0,0.0,0.0,0.0,0.0,0.0,0.0,0.0,0.0,0.0,0.0,0.0,0.0,0.0,0.0,0.0,0.0,0.0,0.0,0.0,0.0,0.0,0.0,0.0,0.0,0.0,0.0,0.0,0.0,0.0,0.0,0.0,0.0,0.0,0.0,0.0,0.0,0.0,0.0,0.0,0.0,0.0,0.0,0.0,0.0,0.0,0.0,0.0,0.0,0.0,0.0,0.0,0.0,0.0,0.0,0.0,0.0,0.0,0.0,0.0,0.0,0.0,0.0,0.0,0.0,0.0,0.0,0.0,-1.5431,-1.5431,-1.5431,-1.5431,-1.5431,-1.5431,-1.5431,-1.5082,-1.423,-1.4915,0.0,0.0,0.0,0.0,0.0,0.0,0.0,0.0,0.0,0.0,0.0,0.0,0.0,0.0,0.0,0.0,0.0,0.0,0.0,0.0,0.0,0.0,0.0,0.0,0.0,0.0,0.0,0.0,0.0,0.0,0.0,0.0,0.0,0.0,0.0,0.0,0.0,0.0,0.0,0.0,0.0,0.0,0.0,0.0,0.0,0.0,0.0,0.0,0.0,0.0,0.0,0.0,0.0,0.0,0.0,0.0,0.0,0.0,0.0,0.0,0.0,0.0,0.0,0.0,0.0,0.0,0.0,0.0,0.0,0.0,0.0,0.0,0.0,0.0,0.0,0.0,0.0,0.0,0.0,0.0,0.0,0.0,0.0,0.0,0.0,0.0,0.0,0.0,0.0,0.0,0.0,0.0,0.0,0.0,0.0,0.0,0.0,0.0,0.0,0.0,0.0,0.0,-1.5431,-1.5431,-1.5431,-1.5431,-1.5431,-1.5431,-1.5431,-1.4999,-1.4139,0.0,0.0,0.0,0.0,0.0,0.0,0.0,0.0,0.0,0.0,0.0,0.0,0.0,0.0,0.0,0.0,0.0,0.0,0.0,0.0,0.0,0.0,0.0,0.0,0.0,0.0,0.0,0.0,0.0,0.0,0.0,0.0,0.0,0.0,0.0,0.0,0.0,0.0,0.0,0.0,0.0,0.0,0.0,0.0,0.0,0.0,0.0,0.0,0.0,0.0,0.0,0.0,0.0,0.0,0.0,0.0,0.0,0.0,0.0,0.0,0.0,0.0,0.0,0.0,0.0,0.0,0.0,0.0,0.0,0.0,0.0,0.0,0.0,0.0,0.0,0.0,0.0,0.0,0.0,0.0,0.0,0.0,0.0,0.0,0.0,0.0,0.0,0.0,0.0,0.0,0.0,0.0,0.0,0.0,0.0,0.0,0.0,0.0,0.0,0.0,0.0,0.0,-1.5431,-1.5431,-1.5431,-1.5431,-1.5431,-1.5431,-1.5431,-1.5431,-1.4915,-1.3704,0.0,0.0,0.0,0.0,0.0,0.0,0.0,0.0,0.0,0.0,0.0,0.0,0.0,0.0,0.0,0.0,0.0,0.0,0.0,0.0,0.0,0.0,0.0,0.0,0.0,0.0,0.0,0.0,0.0,0.0,0.0,0.0,0.0,0.0,0.0,0.0,0.0,0.0,0.0,0.0,0.0,0.0,0.0,0.0,0.0,0.0,0.0,0.0,0.0,0.0,0.0,0.0,0.0,0.0,0.0,0.0,0.0,0.0,0.0,0.0,0.0,0.0,0.0,0.0,0.0,0.0,0.0,0.0,0.0,0.0,0.0,0.0,0.0,0.0,0.0,0.0,0.0,0.0,0.0,0.0,0.0,0.0,0.0,0.0,0.0,0.0,0.0,0.0,0.0,0.0,0.0,0.0,0.0,0.0,0.0,0.0,0.0,0.0,0.0,0.0,0.0,0.0,-1.5431,-1.5431,-1.5431,-1.5431,-1.5431,-1.5431,-1.5431,-1.5431,-1.465,0.0,0.0,0.0,0.0,0.0,0.0,0.0,0.0,0.0,0.0,0.0,0.0,0.0,0.0,0.0,0.0,0.0,0.0,0.0,0.0,0.0,0.0,0.0,0.0,0.0,0.0,0.0,0.0,0.0,0.0,0.0,0.0,0.0,0.0,0.0,0.0,0.0,0.0,0.0,0.0,0.0,0.0,0.0,0.0,0.0,0.0,0.0,0.0,0.0,0.0,0.0,0.0,0.0,0.0,0.0,0.0,0.0,0.0,0.0,0.0,0.0,0.0,0.0,0.0,0.0,0.0,0.0,0.0,0.0,0.0,0.0,0.0,0.0,0.0,0.0,0.0,0.0,0.0,0.0,0.0,0.0,0.0,0.0,0.0,0.0,0.0,0.0,0.0,0.0,0.0,0.0,0.0,0.0,0.0,0.0,0.0,0.0,0.0,0.0,0.0,0.0,0.0,0.0,-1.5431,-1.5431,-1.5431,-1.5431,-1.5431,-1.5431,-1.5431,-1.5431,-1.465,-1.2845,0.0,0.0,0.0,0.0,0.0,0.0,0.0,0.0,0.0,0.0,0.0,0.0,0.0,0.0,0.0,0.0,0.0,0.0,0.0,0.0,0.0,0.0,0.0,0.0,0.0,0.0,0.0,0.0,0.0,0.0,0.0,0.0,0.0,0.0,0.0,0.0,0.0,0.0,0.0,0.0,0.0,0.0,0.0,0.0,0.0,0.0,0.0,0.0,0.0,0.0,0.0,0.0,0.0,0.0,0.0,0.0,0.0,0.0,0.0,0.0,0.0,0.0,0.0,0.0,0.0,0.0,0.0,0.0,0.0,0.0,0.0,0.0,0.0,0.0,0.0,0.0,0.0,0.0,0.0,0.0,0.0,0.0,0.0,0.0,0.0,0.0,0.0,0.0,0.0,0.0,0.0,0.0,0.0,0.0,0.0,0.0,0.0,0.0,0.0,0.0,0.0,0.0,-1.5431,-1.5431,-1.5431,-1.5431,-1.5431,-1.5431,-1.5431,-1.5431,-1.4824,-1.336,0.0,0.0,0.0,0.0,0.0,0.0,0.0,0.0,0.0,0.0,0.0,0.0,0.0,0.0,0.0,0.0,0.0,0.0,0.0,0.0,0.0,0.0,0.0,0.0,0.0,0.0,0.0,0.0,0.0,0.0,0.0,0.0,0.0,0.0,0.0,0.0,0.0,0.0,0.0,0.0,0.0,0.0,0.0,0.0,0.0,0.0,0.0,0.0,0.0,0.0,0.0,0.0,0.0,0.0,0.0,0.0,0.0,0.0,0.0,0.0,0.0,0.0,0.0,0.0,0.0,0.0,0.0,0.0,0.0,0.0,0.0,0.0,0.0,0.0,0.0,0.0,0.0,0.0,0.0,0.0,0.0,0.0,0.0,0.0,0.0,0.0,0.0,0.0,0.0,0.0,0.0,0.0,0.0,0.0,0.0,0.0,0.0,0.0,0.0,0.0,0.0,0.0,-1.5257,-1.5347,-1.5431,-1.5431,-1.5431,-1.5431,-1.5431,-1.5431,-1.4999,-1.4139,0.0,0.0,0.0,0.0,0.0,0.0,0.0,0.0,0.0,0.0,0.0,0.0,0.0,0.0,0.0,0.0,0.0,0.0,0.0,0.0,0.0,0.0,0.0,0.0,0.0,0.0,0.0,0.0,0.0,0.0,0.0,0.0,0.0,0.0,0.0,0.0,0.0,0.0,0.0,0.0,0.0,0.0,0.0,0.0,0.0,0.0,0.0,0.0,0.0,0.0,0.0,0.0,0.0,0.0,0.0,0.0,0.0,0.0,0.0,0.0,-1.9015,0.0,0.0,0.0,0.0,0.0,0.0,0.0,0.0,0.0,0.0,0.0,0.0,0.0,0.0,0.0,0.0,0.0,0.0,0.0,0.0,0.0,0.0,0.0,0.0,0.0,0.0,0.0,0.0,0.0,0.0,0.0,0.0,0.0,0.0,0.0,0.0,0.0,0.0,0.0,0.0,0.0,-1.4482,-1.4999,-1.5431,-1.5431,-1.5431,-1.5431,-1.5431,-1.5431,-1.4999,-1.4139,-1.3834,0.0,0.0,0.0,0.0,0.0,0.0,0.0,0.0,0.0,0.0,0.0,0.0,0.0,0.0,0.0,0.0,0.0,0.0,0.0,0.0,0.0,0.0,0.0,0.0,0.0,0.0,0.0,0.0,0.0,0.0,0.0,0.0,0.0,0.0,0.0,0.0,0.0,0.0,0.0,0.0,0.0,0.0,0.0,0.0,0.0,0.0,0.0,0.0,0.0,0.0,0.0,0.0,0.0,0.0,0.0,0.0,0.0,0.0,0.0,0.0,-1.819,0.0,0.0,0.0,0.0,0.0,0.0,0.0,0.0,0.0,0.0,0.0,0.0,0.0,0.0,0.0,0.0,0.0,0.0,0.0,0.0,0.0,0.0,0.0,0.0,0.0,0.0,0.0,0.0,0.0,0.0,0.0,0.0,0.0,0.0,0.0,0.0,0.0,0.0,0.0,0.0,-1.4741,-1.509,-1.5431,-1.5431,-1.5431,-1.5431,-1.5431,-1.5431,-1.5173,-1.4741,-1.4447,0.0,0.0,0.0,0.0,0.0,0.0,0.0,0.0,0.0,0.0,0.0,0.0,0.0,0.0,0.0,0.0,0.0,0.0,0.0,0.0,0.0,0.0,0.0,0.0,0.0,0.0,0.0,0.0,0.0,0.0,0.0,0.0,0.0,0.0,0.0,0.0,0.0,0.0,0.0,0.0,0.0,0.0,0.0,0.0,0.0,0.0,0.0,0.0,0.0,0.0,0.0,0.0,0.0,-2.0978,-2.0953,-2.0526,-2.0882,-2.056,-1.954,-1.8315,-1.8055,-1.8473,-1.7904,0.0,0.0,0.0,0.0,0.0,0.0,0.0,0.0,0.0,0.0,0.0,0.0,0.0,0.0,0.0,0.0,0.0,0.0,0.0,0.0,0.0,0.0,-1.363,-1.3564,-1.3492,-1.3492,-1.3492,0.0,0.0,0.0,0.0,0.0,0.0,0.0,0.0,0.0,0.0,0.0,-1.5082,-1.5347,-1.5431,-1.5431,-1.5431,-1.5431,-1.5431,-1.5431,-1.5409,-1.535,-1.5043,-1.4308,0.0,0.0,0.0,0.0,0.0,0.0,0.0,0.0,0.0,0.0,0.0,0.0,0.0,0.0,0.0,0.0,0.0,0.0,0.0,0.0,0.0,0.0,0.0,0.0,0.0,0.0,0.0,0.0,0.0,0.0,0.0,0.0,-2.3967,-2.4007,0.0,0.0,0.0,0.0,0.0,0.0,0.0,0.0,0.0,0.0,0.0,0.0,0.0,-2.0526,-2.0024,-2.0526,-2.0489,-1.9911,-1.9987,-1.9987,-1.9924,-1.954,-1.9498,-1.971,-1.8438,0.0,-1.7843,-1.7729,0.0,0.0,0.0,0.0,0.0,0.0,0.0,0.0,0.0,0.0,0.0,0.0,0.0,0.0,0.0,0.0,0.0,0.0,0.0,0.0,0.0,0.0,-1.4258,-1.3637,-1.3492,-1.3492,-1.3492,-1.3492,-1.3492,-1.3492,-1.3492,-1.3587,0.0,0.0,0.0,0.0,0.0,0.0,-1.4314,-1.4915,-1.5431,-1.5431,-1.5431,-1.5431,-1.5431,-1.5431,-1.5306,-1.494,-1.4706,-1.4066,-1.2896,-1.2518,0.0,0.0,0.0,0.0,0.0,0.0,0.0,0.0,0.0,0.0,0.0,0.0,0.0,0.0,0.0,0.0,0.0,0.0,0.0,0.0,0.0,0.0,0.0,0.0,0.0,0.0,0.0,0.0,0.0,-2.4345,-2.4036,-2.4413,-2.4457,-2.4297,0.0,0.0,0.0,0.0,0.0,0.0,0.0,0.0,0.0,-1.9811,-2.0363,-2.0388,-1.9811,-2.0376,-2.0592,-2.0288,-2.0916,-2.1217,-2.123,-2.1262,-2.1235,-2.1091,-2.0534,-1.9812,-1.9009,-1.8062,-1.7668,-1.7668,0.0,0.0,0.0,0.0,-1.8194,-1.8346,-1.8291,-1.8161,-1.7996,-1.8121,0.0,0.0,0.0,0.0,0.0,0.0,0.0,-1.4903,-1.4903,-1.4617,-1.4266,-1.392,-1.3848,-1.3848,-1.3848,-1.3848,-1.3775,-1.3717,-1.3645,-1.3748,-1.4081,-1.4084,0.0,0.0,0.0,-1.5061,-1.5242,-1.5582,-1.5756,-1.5582,-1.5582,-1.5499,-1.5431,-1.5431,-1.5292,-1.4881,-1.464,-1.4164,-1.3528,-1.2689,-1.2003,0.0,0.0,0.0,0.0,0.0,0.0,0.0,0.0,0.0,0.0,0.0,0.0,0.0,0.0,0.0,0.0,0.0,0.0,0.0,0.0,0.0,0.0,0.0,0.0,0.0,0.0,0.0,0.0,-2.444,-2.4127,-2.4636,-2.4486,-2.4196,0.0,0.0,0.0,0.0,0.0,0.0,-2.0271,-2.112,-2.112,-2.0037,-2.0715,-2.0815,-2.0238,-2.0803,-2.1016,-2.0891,-2.1707,-2.2096,-2.2121,-2.2673,-2.26,-2.2165,-2.193,-2.1302,-2.0235,-1.8913,-1.8197,-1.8081,-1.8081,-1.8268,-1.8557,-1.8557,-1.8775,-1.9065,-1.8942,-1.8808,-1.8808,-1.8617,-1.8405,-1.8124,-1.755,0.0,0.0,0.0,0.0,-1.5754,-1.5551,-1.5046,-1.4553,-1.4201,-1.4129,-1.4129,-1.4129,-1.4129,-1.4065,-1.3928,-1.393,-1.4096,-1.4434,-1.4355,0.0,-1.541,-1.524,-1.5311,-1.6004,-1.6087,-1.6004,-1.5824,-1.5733,-1.5658,-1.5506,-1.535,-1.5167,-1.4838,-1.4523,-1.4194,-1.3872,-1.31,-1.2526,-1.2305,0.0,0.0,0.0,0.0,0.0,0.0,0.0,0.0,0.0,0.0,0.0,0.0,0.0,0.0,0.0,0.0,0.0,0.0,0.0,0.0,0.0,0.0,0.0,0.0,0.0,0.0,0.0,0.0,0.0,-2.4136,-2.3458,0.0,0.0,0.0,0.0,-2.2853,-2.1985,-2.1368,-2.1316,-2.1888,-2.1738,-2.0693,-2.1669,-2.197,-2.1405,-2.1945,-2.197,-2.1443,-2.1506,-2.1531,-2.1543,-2.2096,-2.2289,-2.2255,-2.1478,-2.1123,-2.0996,-2.0311,-1.9575,-1.9003,-1.9003,-1.9013,-1.9034,-1.9034,-1.9054,-1.9075,-1.9075,-1.8942,-1.8808,-1.8808,-1.8172,-1.7472,-1.7404,-1.6853,0.0,0.0,-1.7335,-1.7129,-1.6446,-1.6237,-1.5816,-1.441,-1.4129,-1.4129,-1.4129,-1.4129,-1.4129,-1.4057,-1.4324,-1.4652,-1.4988,0.0,-1.5667,-1.6011,-1.6079,-1.6087,-1.6087,-1.6087,-1.6087,-1.6087,-1.5824,-1.5733,-1.565,-1.522,-1.4831,-1.4516,-1.4187,-1.3857,-1.3536,-1.3499,-1.3046,-1.2305,-1.2305,0.0,0.0,0.0,0.0,0.0,0.0,0.0,0.0,0.0,0.0,0.0,0.0,0.0,0.0,0.0,0.0,0.0,0.0,0.0,0.0,0.0,0.0,0.0,0.0,0.0,0.0,0.0,0.0,-2.3433,-2.3123,0.0,-2.3037,-2.2725,-2.2491,-2.2501,-2.2205,-2.1861,-2.1508,-2.1987,-2.1982,-2.1217,-2.192,-2.2046,-2.1493,-2.2033,-2.2209,-2.202,-2.2372,-2.2548,-2.256,-2.2749,-2.305,-2.3414,-2.3096,-2.2911,-2.2799,-2.2198,-2.0828,-1.9075,-1.9075,-1.9075,-1.9075,-1.9075,-1.9075,-1.9075,-1.9075,-1.9065,-1.9008,-1.9008,-1.8787,-1.8509,-1.8509,-1.8307,-1.8162,-1.8442,-1.8172,-1.7755,-1.7482,-1.6724,-1.5824,-1.5338,-1.4768,-1.4418,-1.4418,-1.4605,-1.4843,-1.4843,-1.479,-1.4979,-1.5544,-1.5818,-1.6085,-1.6265,-1.6402,-1.6492,-1.6492,-1.6492,-1.6409,-1.6319,-1.6229,-1.6064,-1.5733,-1.536,-1.4961,-1.4572,-1.4165,-1.3836,-1.3506,-1.3492,-1.3346,-1.3046,-1.3046,-1.2526,0.0,0.0,0.0,0.0,0.0,0.0,0.0,0.0,0.0,0.0,0.0,0.0,0.0,0.0,0.0,0.0,0.0,0.0,0.0,0.0,0.0,0.0,0.0,0.0,0.0,0.0,-2.3756,-2.3802,-2.3725,-2.3632,-2.3679,-2.3521,-2.3312,-2.3094,-2.3219,-2.2952,-2.2103,-2.2794,-2.2756,-2.1794,-2.2297,-2.241,-2.2046,-2.241,-2.2585,-2.2585,-2.2902,-2.3078,-2.3078,-2.3339,-2.364,-2.4004,-2.3927,-2.3867,-2.3755,-2.2869,-2.153,-1.9896,-1.9579,-1.933,-1.9075,-1.9075,-1.9075,-1.9075,-1.9075,-1.9075,-1.9075,-1.9075,-1.9075,-1.9075,-1.9075,-1.9075,-1.9075,-1.9075,-1.8721,-1.824,-1.7755,-1.6932,-1.6035,-1.5551,-1.5088,-1.4824,-1.4824,-1.5102,-1.5388,-1.5507,-1.5447,-1.552,-1.5905,-1.6229,-1.6379,-1.6527,-1.6648,-1.673,-1.673,-1.673,-1.6648,-1.6484,-1.6476,-1.6183,-1.5748,-1.5456,-1.4989,-1.4403,-1.4099,-1.3836,-1.3506,-1.3492,-1.3346,-1.3119,-1.3119,-1.2599,-1.1484,0.0,0.0,0.0,0.0,0.0,0.0,0.0,0.0,0.0,0.0,0.0,0.0,0.0,0.0,0.0,0.0,0.0,0.0,0.0,0.0,0.0,0.0,0.0,-2.5568,-2.5458,-2.5349,-2.5191,-2.514,-2.5072,-2.4863,-2.4483,-2.4417,-2.4813,-2.5034,-2.458,-2.3185,-2.4356,-2.4209,-2.2372,-2.2849,-2.3138,-2.3078,-2.3078,-2.3078,-2.3078,-2.3078,-2.3078,-2.309,-2.3715,-2.3979,-2.3967,-2.39,-2.3869,-2.3749,-2.2309,-2.1699,-2.1611,-2.0511,-1.9681,-1.9085,-1.9085,-1.9085,-1.9075,-1.9075,-1.9075,-1.9075,-1.9075,-1.9075,-1.9075,-1.9075,-1.9075,-1.9075,-1.9075,-1.9075,-1.8787,-1.7345,-1.6941,-1.6603,-1.507,-1.5008,-1.5271,-1.5271,-1.5535,-1.587,-1.6213,-1.6293,-1.6222,-1.6222,-1.6508,-1.673,-1.673,-1.673,0.0,-1.673,-1.673,-1.673,-1.673,-1.6484,-1.618,-1.5614,-1.5408,-1.4885,-1.4018,-1.3975,-1.3821,-1.3506,-1.3492,-1.3119,-1.2378,-1.2305,-1.2305,-1.2305,0.0,0.0,0.0,0.0,0.0,0.0,0.0,0.0,0.0,0.0,0.0,0.0,0.0,0.0,0.0,0.0,0.0,0.0,0.0,0.0,0.0,0.0,-2.6643,-2.5592,-2.5379,-2.5331,-2.5349,-2.5667,-2.5914,-2.5963,-2.6616,-2.6732,-2.596,-2.6369,-2.591,-2.4073,-2.4713,-2.4416,-2.2912,-2.3513,-2.3603,-2.3078,-2.3078,-2.3078,-2.3078,-2.3078,-2.3078,-2.3078,-2.3301,-2.3602,-2.4029,-2.4377,-2.476,-2.5095,-2.4682,-2.4198,-2.3524,-2.1235,-2.0059,-1.964,-1.964,-1.9354,-1.9075,-1.9075,-1.9075,-1.9075,-1.9075,-1.9075,-1.9075,-1.9075,-1.9075,-1.9075,-1.9075,-1.9075,-1.8998,-1.8586,-1.834,-1.8088,-1.7656,-1.7461,-1.7391,-1.7391,-1.7703,-1.7938,-1.8044,-1.7742,-1.7291,-1.6668,-1.6667,-1.673,-1.673,-1.673,-1.673,-1.673,-1.673,-1.673,-1.673,-1.6484,-1.618,-1.5614,-1.5189,-1.4639,-1.4011,-1.3762,-1.3587,-1.3499,-1.3492,-1.3419,-1.3193,-1.2599,-1.2305,0.0,0.0,0.0,0.0,0.0,0.0,0.0,0.0,0.0,0.0,0.0,0.0,0.0,0.0,0.0,0.0,0.0,0.0,0.0,0.0,0.0,0.0,-2.8415,-2.7629,-2.6867,-2.6723,-2.6674,-2.6644,-2.7172,-2.7558,-2.7506,-2.8148,-2.8159,-2.7152,-2.7689,-2.7158,-2.5141,-2.5601,-2.5308,-2.3943,-2.4002,-2.3897,-2.3543,-2.3245,-2.3078,-2.3078,-2.3078,-2.3078,-2.3078,-2.3078,-2.3452,-2.4029,-2.4582,-2.5109,-2.5611,-2.5512,-2.5257,-2.4701,0.0,0.0,0.0,0.0,-1.9748,-1.9354,-1.9354,-1.923,-1.9075,-1.9075,-1.9075,-1.9075,-1.9075,-1.9075,-1.9075,-1.9075,-1.921,-1.9287,-1.9005,-1.8914,-1.8877,-1.8591,-1.8479,-1.848,-1.848,-1.8718,-1.9012,-1.9012,-1.8795,0.0,-1.7367,-1.6968,-1.673,-1.673,-1.673,-1.673,-1.673,-1.673,-1.6675,-1.6532,-1.6346,-1.5901,-1.5272,-1.4947,0.0,0.0,0.0,-1.3638,-1.3499,-1.32,0.0,0.0,0.0,-1.2452,-1.282,-1.2305,0.0,0.0,-1.2378,-1.215,0.0,0.0,0.0,0.0,0.0,0.0,0.0,0.0,0.0,0.0,0.0,0.0,0.0,0.0,0.0,0.0,-2.87,-2.8427,-2.8659,-2.8771,-2.8734,-2.8553,-2.9104,-2.9451,-2.9271,-2.9256,-2.899,-2.834,-2.8732,-2.8175,-2.6169,0.0,0.0,0.0,0.0,-2.4176,-2.4131,-2.3424,-2.3078,-2.3078,-2.3078,-2.3138,-2.3138,-2.3138,-2.3452,-2.4029,-2.4582,-2.5109,-2.5569,-2.5501,-2.5453,-2.5356,-2.4126,-2.2787,-2.1474,-2.0655,-2.0172,-1.99,-1.99,0.0,0.0,-1.9214,-1.9116,-1.9075,-1.9075,-1.9106,-1.9214,-1.9214,-1.9479,-1.9692,-1.9043,-1.9219,-1.9316,-1.8646,-1.8835,-1.9144,-1.9144,-1.9338,-1.9571,-1.9571,-1.9502,-1.9177,-1.8399,-1.7448,-1.6812,-1.673,-1.673,-1.6722,-1.6683,-1.6675,-1.654,-1.6182,-1.5984,0.0,-1.4697,-1.4683,-1.4364,-1.3536,-1.377,-1.3799,-1.3506,-1.2826,-1.2746,-1.3492,-1.282,-1.2826,-1.3492,-1.3492,-1.3492,-1.3492,-1.2003,-1.1781,0.0,0.0,0.0,0.0,0.0,0.0,0.0,0.0,0.0,0.0,0.0,0.0,0.0,0.0,0.0,-2.9785,-2.9085,-2.8726,-2.9349,-2.9819,-2.9953,-2.9445,-2.9884,-3.0257,-3.0201,-3.0201,-2.9993,-2.9377,-2.891,-2.8051,-2.6497,-2.691,-2.6519,-2.5175,-2.4951,-2.4567,-2.4131,-2.3424,-2.3078,-2.3078,0.0,0.0,-2.333,-2.3198,-2.3513,-2.4203,-2.4645,-2.5109,-2.5636,-2.6077,-2.6245,-2.6032,-2.3547,-2.2056,-2.1146,-2.0637,-2.0369,-2.0296,-2.0296,-1.9996,-1.9624,-1.9624,-1.9443,-1.9075,-1.9075,-1.9334,0.0,-1.9624,-1.9955,-2.0225,-2.0073,-2.0411,-2.0749,-2.0602,-2.0872,-2.1207,-2.1207,-2.1268,-2.1328,-2.1328,-2.0779,-2.0216,-2.007,-1.8798,-1.7521,-1.6812,-1.673,-1.6635,-1.6349,-1.6309,-1.6174,-1.5817,-1.5638,-1.5242,-1.4674,-1.4487,-1.4134,-1.3521,-1.3558,-1.3558,-1.3499,-1.3346,-1.3346,-1.3492,-1.3346,-1.3346,-1.3492,-1.3492,-1.3492,-1.3492,-1.32,-1.3119,0.0,0.0,0.0,0.0,0.0,0.0,0.0,0.0,0.0,0.0,0.0,-3.089,0.0,0.0,-3.0571,-3.0941,-3.0362,-2.9986,-3.0426,-3.0478,-3.0387,-3.0088,-3.0612,-3.1016,-3.1016,-3.0717,-3.0253,-2.9624,-2.8966,-2.8152,-2.6989,-2.7181,-2.7106,-2.6686,-2.6356,-2.5992,-2.567,-2.5017,-2.4558,-2.4202,-2.4202,-2.4124,-2.393,-2.3857,-2.4009,-2.4376,-2.4887,-2.5304,-2.5782,-2.6294,-2.6302,-2.5906,-2.4366,-2.3334,-2.2502,-2.1921,-2.1334,-2.0772,-2.0772,-2.0472,-2.0089,-2.0089,-1.9789,-1.9458,-1.9686,-1.9748,-1.981,-2.0027,-2.042,-2.0772,-2.0772,-2.1114,-2.1455,-2.1455,-2.1631,-2.1807,-2.1807,-2.1621,-2.1455,-2.1455,-2.0886,-2.0352,-1.9902,-1.9136,-1.8357,-1.7777,-1.7412,-1.7077,-1.6591,-1.6782,-1.6792,-1.6055,-1.5713,-1.5343,-1.4927,-1.4324,-1.3822,-1.3506,-1.3492,-1.3492,-1.3492,-1.3492,-1.3492,-1.3492,-1.3492,-1.3492,-1.3492,-1.3492,-1.3492,-1.3492,-1.3492,-1.3492,0.0,0.0,0.0,0.0,0.0,0.0,0.0,0.0,-3.1268,-3.1516,-3.1412,-3.1474,-3.2035,-3.1964,-3.1935,-3.2154,-3.1629,-3.1268,-3.1528,-3.1076,-3.0702,-3.0702,-3.1195,-3.1482,-3.1482,-3.0806,-3.0118,-2.9624,-2.8846,-2.8106,-2.7467,-2.752,-2.7765,-2.8231,-2.7726,-2.7456,-2.7357,-2.6668,-2.6008,-2.5471,-2.5358,-2.5063,-2.469,-2.4677,-2.4741,-2.4882,-2.5384,-2.5831,-2.6159,-2.6481,-2.6302,-2.5849,-2.5652,-2.5075,-2.4264,-2.335,-2.2381,-2.1471,-2.1323,-2.0948,-2.0555,-2.0555,-2.0255,-1.9944,-2.0213,-2.01,-1.9944,-2.0213,-2.0627,-2.0979,-2.0979,-2.1259,-2.1538,-2.1538,-2.1538,-2.1538,-2.1538,-2.1248,-2.0979,-2.0979,-2.0679,-2.0206,-1.9548,-1.9344,-1.9131,-1.8589,-1.8143,-1.7683,-1.7015,-1.7454,-1.744,-1.6477,-1.6063,-1.5719,-1.515,-1.4137,-1.3492,-1.3492,-1.3492,-1.3492,-1.3492,-1.3492,-1.3492,-1.3492,-1.3492,-1.3492,-1.3492,-1.3492,-1.3492,-1.3492,-1.3492,-1.3492,-3.1389,-3.1291,-3.123,-3.1055,-3.1112,-3.132,0.0,0.0,-3.2135,-3.262,-3.2667,-3.2657,-3.2636,-3.2249,-3.2171,-3.2789,-3.2025,-3.1597,-3.2182,-3.1747,-3.1362,-3.1362,-3.1422,-3.1482,-3.1482,-3.0417,-2.9654,-2.9594,-2.8412,-2.7649,-2.7575,-2.804,-2.8292,-2.8367,-2.8202,-2.8097,-2.8097,-2.6895,-2.6254,-2.6193,-2.5597,-2.5332,-2.5482,-2.5268,-2.555,-2.6207,-2.6642,-2.687,-2.6867,-2.693,-2.6875,-2.6807,-2.6645,-2.607,-2.5205,-2.357,-2.2894,-2.2691,-2.1952,-2.1424,-2.1041,-2.1041,-2.0731,-2.0286,-1.9944,-2.0079,-2.0276,-1.9934,-2.0151,-2.0503,-2.0503,-2.0534,-2.0586,-2.0586,-2.0586,-2.0586,-2.0586,-2.0534,-2.0503,-2.0503,-2.0462,-2.0349,-2.0278,-1.9959,-1.9334,-1.8165,-1.7961,-1.7732,-1.737,-1.7397,-1.7251,-1.6641,-1.6526,-1.6079,-1.5054,-1.4057,-1.3492,-1.3492,-1.3492,-1.3492,-1.3492,-1.3492,-1.3492,-1.3492,-1.3492,-1.3492,-1.3492,-1.3492,-1.3492,-1.3492,-1.3492,-1.3492,-3.123,-3.1495,-3.1833,0.0,-3.2114,-3.2519,-3.2757,-3.2782,-3.2866,-3.3127,-3.3048,-3.305,-3.3539,-3.3371,-3.3436,0.0,-3.3599,-3.3022,-3.3008,-3.268,-3.2367,-3.2064,-3.2007,-3.1743,-3.0971,-3.0118,-2.943,-2.9041,-2.8113,-2.779,-2.8143,-2.839,-2.8883,-2.963,-2.9592,-2.9549,-2.9521,-2.8987,-2.838,-2.7597,-2.7293,-2.6814,-2.6257,-2.6116,-2.6246,-2.6583,-2.7035,-2.7214,-2.7268,-2.7079,-2.7079,-2.7146,-2.6943,-2.6577,-2.607,-2.4802,-2.379,-2.2927,-2.2628,-2.205,-2.1518,-2.1518,-2.1207,-2.0845,-2.0928,-2.071,-2.0441,-2.0524,-2.0483,-2.042,-2.042,-2.042,-2.042,-2.042,-2.042,-2.042,-2.042,-2.0224,-2.0038,-2.0038,-1.982,-1.9634,-1.9634,-1.9479,-1.9213,-1.8695,-1.8576,-1.8368,-1.7846,-1.8094,-1.8027,-1.7157,-1.707,-1.6437,-1.4895,-1.4402,-1.3985,-1.3499,-1.3492,-1.3492,-1.3492,-1.3492,-1.3492,-1.3492,-1.3492,-1.3492,-1.3492,-1.3492,-1.3492,-1.3492,-1.3492,-1.3492,-3.1742,-3.2116,0.0,-3.2594,-3.3,-3.3457,-3.366,-3.3685,-3.371,-3.3955,-3.3816,-3.3818,-3.4443,-3.4454,-3.4564,-3.5207,-3.4706,-3.4119,-3.37,-3.3391,-3.3014,-3.2377,-3.2307,-3.1751,-3.0316,-2.9838,-2.931,-2.8652,-2.8143,-2.8068,-2.8577,-2.8936,-2.9549,-3.0477,-3.0687,-3.0787,-3.0777,-3.0584,-3.0025,-2.903,-2.8839,-2.8251,-2.7155,-2.6961,-2.6909,-2.6935,-2.722,-2.7403,-2.7469,-2.7214,-2.7214,-2.7335,-2.7146,-2.7011,-2.6782,-2.5943,-2.4802,-2.357,-2.335,-2.2905,-2.2456,-2.2456,-2.2222,-2.1913,-2.1924,-2.1439,-2.0915,-2.0793,-2.0503,-2.0213,-2.0089,-2.0048,-2.0048,-2.0048,-2.0048,-2.0048,-2.0048,-1.9799,-1.964,-1.964,-1.9303,-1.9075,-1.9075,-1.9075,-1.9075,-1.9075,-1.9075,-1.8931,-1.8385,-1.8654,-1.8596,-1.7765,-1.7413,-1.6636,-1.5029,-1.4744,-1.4258,-1.3564,-1.3492,-1.3492,-1.3492,-1.3492,-1.3492,-1.3492,-1.3492,-1.3492,-1.3492,-1.3492,-1.3492,-1.3492,-1.3492,-1.3492,-3.3059,0.0,-3.3372,-3.3372,-3.3389,-3.3592,-3.4303,-3.4472,-3.4631,-3.5318,-3.5424,-3.5379,-3.5304,-3.5258,-3.5274,-3.5291,-3.4802,-3.4333,-3.4185,-3.37,-3.3085,-3.2199,-3.212,-3.1397,0.0,-2.9509,-2.931,-2.8652,-2.8577,-2.8577,-2.8607,-2.9774,-3.0462,-3.0507,-3.115,-3.1452,-3.1467,-3.0837,-3.0464,-3.045,-2.9766,-2.9142,-2.8454,-2.7749,-2.751,-2.751,-2.7456,-2.7523,-2.7523,-2.7456,-2.7456,-2.7469,-2.7335,-2.7268,-2.7201,-2.6794,-2.6082,-2.5087,-2.4348,-2.4047,-2.4036,-2.4036,-2.4036,-2.3788,-2.2639,-2.2269,-2.1919,-2.0327,-1.9858,-1.9675,-1.923,-1.9116,-1.9116,-1.9116,-1.9116,-1.9116,-1.9116,-1.9106,-1.9085,-1.9085,-1.9085,-1.9075,-1.9075,-1.9075,-1.9075,-1.9075,-1.9075,-1.9065,-1.9075,-1.8741,-1.8482,-1.8482,-1.7569,-1.6585,-1.5745,-1.5029,-1.4258,-1.3564,-1.3492,-1.3492,-1.3492,-1.3492,-1.3492,-1.3492,-1.3492,-1.3492,-1.3492,-1.3492,-1.3492,-1.3492,-1.3492,-1.3492,-3.3719,0.0,-3.4134,-3.4134,-3.4506,-3.4928,-3.5182,-3.5233,-3.5273,-3.5543,-3.5099,-3.4701,-3.4745,-3.4701,-3.4656,-3.4745,-3.4985,-3.4961,-3.4382,-3.4448,-3.4088,-3.2819,-3.2689,0.0,0.0,0.0,0.0,-2.8015,-2.8338,-2.8786,-2.922,-3.0043,-3.0717,-3.1165,-3.1347,-3.1482,-3.1482,-3.1278,-3.097,-3.0524,-2.9827,-2.9142,-2.8481,-2.8287,-2.7908,-2.7523,-2.7523,-2.7523,-2.7523,-2.7523,-2.7523,-2.7523,-2.7469,-2.7403,-2.7268,-2.7011,-2.6589,-2.6082,-2.5229,-2.4564,-2.4108,-2.4108,-2.4108,-2.4013,-2.3636,-2.3293,-2.2965,-2.2416,-2.1446,-2.0514,-2.0353,-1.9684,-1.9075,-1.9075,-1.9075,-1.9075,-1.9075,-1.9075,-1.9075,-1.9075,-1.9075,-1.9075,-1.9075,-1.9075,-1.9075,-1.9075,-1.9075,-1.9065,-1.8942,-1.8808,-1.8607,-1.8405,-1.8056,-1.7501,-1.6585,-1.6298,-1.5807,-1.5037,-1.4974,-1.476,-1.4258,-1.4258,-1.3977,-1.3492,-1.3492,-1.3492,-1.3492,-1.3492,-1.3492,-1.3492,-1.3492,-1.3492,-3.4495,-3.4643,-3.4895,-3.4895,-3.5267,-3.5622,-3.5622,-3.5419,-3.5216,-3.5216,-3.4783,-3.4401,-3.4489,-3.4445,-3.4486,-3.4844,-3.5053,-3.5064,-3.4816,-3.5024,-3.4612,-3.3137,-3.2912,-3.2248,0.0,0.0,0.0,-2.7925,-2.8516,-2.9146,-2.9564,-3.0402,-3.1076,-3.1467,-3.1482,-3.1482,-3.1482,-3.1482,-3.1278,-3.0837,-3.0208,-2.9642,-2.9219,-2.8725,-2.8287,-2.7842,-2.759,-2.7523,-2.7523,-2.7523,-2.7523,-2.7523,-2.7523,-2.7469,-2.7335,-2.7079,-2.6943,-2.6726,-2.5955,-2.537,-2.4992,-2.4992,-2.4992,-2.4921,-2.4636,-2.4342,-2.4038,-2.3642,-2.2376,-2.1103,-2.0928,-2.0002,-1.9075,-1.9075,-1.9075,-1.9075,-1.9075,-1.9075,-1.9075,-1.9075,-1.9075,-1.9075,-1.9075,-1.9075,-1.9075,-1.9075,-1.9075,-1.8942,-1.8808,-1.8741,-1.8607,-1.8337,-1.8269,-1.7852,-1.7001,-1.6932,-1.6585,-1.5745,-1.5675,-1.5463,-1.5029,-1.4744,-1.4394,-1.3912,-1.3637,-1.3492,-1.3492,-1.3492,-1.3492,-1.3492,-1.3492,-1.3492,-3.5486,-3.5369,-3.5622,-3.5622,-3.5622,-3.5622,-3.5622,-3.503,-3.4506,-3.4539,-3.4489,-3.4455,0.0,0.0,-3.4675,-3.5385,-3.4912,-3.4665,-3.5323,-3.5333,-3.4643,0.0,0.0,0.0,0.0,0.0,0.0,-2.8494,0.0,-2.9633,-2.9633,-3.0821,-3.1482,-3.1482,-3.1482,-3.1482,-3.1482,-3.1482,-3.1482,-3.1482,-3.0837,-3.0524,-3.0464,-2.9156,-2.8597,-2.8532,-2.7842,-2.7523,-2.7523,-2.7523,-2.7523,-2.7523,-2.7523,-2.7523,-2.7469,-2.7146,-2.7024,-2.6956,-2.6602,-2.6533,-2.6533,-2.6533,-2.6533,-2.6383,-2.5594,-2.5382,-2.5121,-2.398,-2.2693,-2.1647,-2.1173,-2.0146,-1.9198,-1.9198,-1.9208,-1.9131,-1.9131,-1.9131,-1.9075,-1.9075,-1.9075,-1.9075,-1.9075,-1.9075,-1.9075,-1.9075,-1.8942,-1.8808,-1.8808,-1.8607,-1.8414,-1.8269,-1.8144,-1.7725,-1.701,-1.6932,-1.6655,-1.5886,-1.5816,-1.5816,-1.5745,-1.51,-1.4673,-1.4673,-1.3985,-1.3637,-1.3637,-1.3564,-1.3564,-1.3564,-1.3492,-1.3419,-3.6167,-3.5805,-3.5622,-3.5622,-3.5622,-3.5622,-3.5622,-3.503,-3.4658,-3.5216,-3.4455,-3.3846,0.0,0.0,0.0,-3.3931,-3.3812,0.0,-3.4499,-3.4544,0.0,-3.3034,0.0,-3.2056,-3.0474,-3.0027,0.0,0.0,-3.0176,-3.0105,-3.0105,-3.1031,-3.1482,-3.1482,-3.1482,-3.1482,-3.1482,-3.1482,-3.1482,-3.1482,-3.1351,-3.097,-3.0524,-3.0147,-2.9718,-2.9205,-2.8532,-2.8222,-2.8222,-2.7723,-2.7523,-2.7523,-2.7523,-2.7523,-2.7469,-2.7268,-2.7146,-2.6943,-2.6726,-2.6589,-2.6533,-2.6533,-2.6533,-2.6452,-2.6245,-2.6164,-2.6139,-2.5852,-2.4502,-2.3211,-2.3081,-2.1843,-2.0613,-2.0613,-2.0226,-1.9846,-1.9846,-1.9452,-1.9075,-1.9075,-1.9075,-1.9075,-1.9075,-1.9075,-1.9075,-1.9075,-1.8942,-1.8751,-1.8617,-1.8405,-1.8269,-1.8076,-1.8008,-1.794,-1.7725,-1.7725,-1.7647,-1.7442,-1.7442,-1.7157,-1.6655,-1.6446,-1.6018,-1.5455,-1.5251,-1.5108,-1.5108,-1.4609,-1.4322,-1.433,-1.3775,-1.3419,-3.6156,-3.5783,-3.5622,-3.5622,-3.5622,-3.5622,-3.5622,-3.503,-3.4607,-3.503,-3.4455,0.0,-3.4421,-3.3897,0.0,0.0,0.0,0.0,-3.425,-3.4286,-3.3946,0.0,-3.2934,0.0,-3.1207,-3.0777,-3.0898,0.0,-3.1053,-3.0818,-3.113,-3.1595,-3.191,-3.191,-3.164,-3.1482,-3.1482,-3.1482,-3.1482,-3.1482,-3.1482,-3.1278,-3.0896,-3.0644,-3.0269,-2.9889,-2.9205,-2.8967,-2.8903,-2.8519,-2.8403,-2.8338,-2.8026,-2.7908,-2.7908,-2.7469,-2.7214,-2.7079,-2.6794,-2.6658,-2.6589,-2.6521,-2.6533,-2.6533,-2.6533,-2.6533,-2.6533,-2.6533,-2.5167,-2.3791,-2.3791,-2.2468,-2.1123,-2.1123,-2.0805,-2.0549,-2.0549,-2.0226,-1.9911,-1.9584,-1.9518,-1.9462,-1.9131,-1.9075,-1.9075,-1.9008,-1.8808,-1.8617,-1.8405,-1.8347,-1.8202,-1.8008,-1.8008,-1.8008,-1.8008,-1.8008,-1.8008,-1.8008,-1.8008,-1.7794,-1.7432,-1.7079,-1.6655,-1.6237,-1.5886,-1.5675,-1.5675,-1.5313,-1.51,-1.5029,-1.4266,-1.3768,-3.5941,-3.5711,-3.5667,-3.5622,-3.5622,-3.5622,-3.5622,-3.5074,-3.4609,-3.4624,0.0,-3.4609,-3.4624,-3.4049,-3.3728,-3.4269,0.0,-3.2771,-3.4015,-3.4182,-3.3943,-3.3354,-3.3081,-3.2634,-3.1874,-3.1663,-3.1918,-3.263,-3.1932,-3.1722,-3.2292,-3.2429,-3.2492,-3.2398,-3.1796,-3.1482,-3.1482,-3.1482,-3.1482,-3.1482,-3.1482,-3.1482,-3.1467,-3.0896,-3.0644,-3.0584,-2.995,-2.9628,-2.9628,-2.9566,-2.9504,-2.9442,-2.8839,-2.8661,-2.8532,-2.7842,-2.7523,-2.7323,-2.6985,-2.6782,-2.6658,-2.6521,-2.6533,-2.6533,-2.6533,-2.6533,-2.6533,-2.6533,-2.5246,-2.3923,-2.3923,-2.2674,-2.1376,-2.1376,-2.1313,-2.125,-2.125,-2.1187,-2.0933,-2.0355,-2.0161,-1.9911,-1.933,-1.9131,-1.9008,-1.8808,-1.8607,-1.8405,-1.8337,-1.8269,-1.8202,-1.8008,-1.8008,-1.8008,-1.8008,-1.8008,-1.8008,-1.8008,-1.8008,-1.8008,-1.8008,-1.7364,-1.7079,-1.7079,-1.6376,-1.6026,-1.6026,-1.5886,-1.5886,-1.5816,-1.4903,-1.4258,-3.6392,-3.6174,-3.6088,-3.5711,-3.5622,-3.5622,-3.5622,-3.5335,0.0,0.0,-3.5215,-3.5145,-3.5345,-3.481,-3.415,-3.3677,0.0,0.0,-3.2669,-3.3102,-3.3388,0.0,-3.3141,-3.271,-3.1874,-3.1765,0.0,0.0,-3.3106,-3.3205,-3.2902,-3.299,-3.2841,-3.2382,-3.1796,-3.1482,-3.1482,-3.1482,-3.1482,-3.1482,-3.1482,-3.1482,-3.1482,-3.1409,-3.1351,-3.1278,-3.0644,-3.0329,-3.0269,-2.9752,-2.9504,-2.9504,-2.938,-2.9331,-2.9331,-2.9205,-2.857,-2.7868,-2.7802,-2.7284,-2.6658,-2.6521,-2.6533,-2.6533,-2.6533,-2.6533,-2.6533,-2.6533,-2.5594,-2.4613,-2.4613,-2.3716,-2.2763,-2.2763,-2.231,-2.1928,-2.1928,-2.1491,-2.106,-2.0933,-2.0484,-2.0042,-1.9977,-1.933,-1.8808,-1.8808,-1.8539,-1.8337,-1.8269,-1.8144,-1.8008,-1.8008,-1.8008,-1.8008,-1.8008,-1.8008,-1.8008,-1.8008,-1.8008,-1.8008,-1.8008,-1.7872,-1.7794,-1.7794,-1.7657,-1.7588,-1.7588,-1.701,-1.6724,-1.6655,-1.5745,-1.4824,-3.6781,-3.6597,-3.6557,-3.6333,-3.6266,-3.6266,-3.6266,0.0,0.0,0.0,-3.6203,-3.6185,-3.6281,-3.5479,0.0,-3.4394,0.0,0.0,0.0,0.0,0.0,-3.3288,-3.327,-3.305,0.0,-3.2519,-3.2567,-3.2785,-3.3134,-3.3512,-3.3988,-3.379,-3.3439,-3.2841,-3.2272,-3.1966,-3.1966,-3.164,-3.1482,-3.1482,-3.1482,-3.1482,-3.1482,-3.1482,-3.1482,-3.1467,-3.1161,-3.1029,-3.1029,-3.0644,-3.0524,-3.0524,-3.0147,-3.0011,-2.995,-2.9628,-2.9192,-2.8748,-2.8325,-2.7881,-2.7443,-2.6782,-2.6589,-2.6589,-2.6521,-2.6533,-2.6533,-2.6533,-2.5674,-2.482,-2.482,-2.3917,-2.3078,-2.3078,-2.2871,-2.2628,-2.2628,-2.2384,-2.2063,-2.1678,-2.1365,-2.1049,-2.0677,-2.0237,-1.9846,-1.977,-1.9573,-1.9253,-1.8721,-1.8596,-1.8395,-1.8008,-1.8008,-1.8008,-1.8008,-1.8008,-1.8008,-1.8008,-1.8008,-1.8008,-1.8008,-1.8008,-1.8008,-1.8008,-1.8008,-1.8008,-1.8008,-1.7647,-1.7432,-1.7285,-1.6376,-1.5604,-3.6905,-3.6914,-3.7017,-3.6939,-3.69,-3.686,-3.6781,-3.6882,0.0,0.0,-3.6803,-3.6921,-3.6781,-3.611,-3.5498,0.0,-3.3985,-3.3012,0.0,0.0,0.0,0.0,-3.3339,0.0,-3.3455,-3.3403,0.0,-3.3201,-3.329,-3.376,-3.4618,-3.4317,-3.3866,-3.3423,-3.2857,-3.2492,-3.2398,-3.191,-3.164,-3.1482,-3.1482,-3.1482,-3.1482,-3.1482,-3.1482,-3.1482,-3.1482,-3.1482,-3.1482,-3.1482,-3.1482,-3.1467,-3.0896,-3.0703,-3.0644,-3.0133,-2.9827,-2.958,-2.8967,-2.8661,-2.8352,-2.743,-2.6985,-2.6658,-2.6521,-2.6533,-2.6533,-2.6533,-2.5674,-2.482,-2.482,-2.3917,-2.3078,-2.3078,-2.3078,-2.3078,-2.3078,-2.3078,-2.2944,-2.2433,-2.2175,-2.1916,-2.1376,-2.1008,-2.0752,-2.0602,-2.0279,-1.9835,-1.911,-1.8844,-1.8586,-1.8076,-1.8008,-1.8008,-1.8008,-1.8008,-1.8008,-1.8008,-1.8008,-1.8008,-1.8008,-1.8008,-1.8008,-1.8008,-1.8008,-1.8008,-1.8008,-1.8008,-1.793,-1.7706,-1.6941,-1.6385,-3.6592,-3.6934,-3.7358,-3.6978,-3.69,-3.6781,-3.6451,0.0,0.0,-3.5898,-3.6333,-3.6781,-3.6409,-3.6586,-3.6527,-3.5843,0.0,-3.449,0.0,0.0,0.0,0.0,0.0,0.0,-3.424,-3.4229,-3.4169,-3.4086,-3.4614,-3.4609,-3.3922,-3.4039,-3.4101,-3.4034,-3.3423,-3.2895,-3.2382,-3.2342,-3.2023,-3.1482,-3.1482,-3.1482,-3.1482,-3.1482,-3.1482,-3.1482,-3.1482,-3.1482,-3.1482,-3.1482,-3.1482,-3.1482,-3.1409,-3.1409,-3.1409,-3.1351,-3.0837,-3.0208,-3.0147,-2.9718,-2.9107,-2.8725,-2.7762,-2.6658,-2.6521,-2.6533,-2.6533,-2.6533,-2.5674,-2.482,-2.482,-2.3917,-2.3078,-2.3078,-2.3078,-2.3078,-2.3078,-2.3078,-2.3065,-2.3005,-2.2494,-2.2051,-2.1877,-2.1175,-2.0602,-2.042,-1.9704,-1.911,-1.9044,-1.8462,-1.8076,-1.8008,-1.8008,-1.8008,-1.8008,-1.8008,-1.8008,-1.8008,-1.8008,-1.8008,-1.8008,-1.8008,-1.8008,-1.8008,-1.8008,-1.8008,-1.8008,-1.8008,-1.793,-1.7706,-1.752,-1.6899,-3.6359,-3.6353,-3.654,-3.6407,-3.6714,-3.7055,-3.6881,0.0,-3.7755,-3.7379,-3.7542,-3.7721,-3.7523,-3.7358,-3.7177,-3.6875,-3.6095,0.0,-3.408,0.0,0.0,0.0,-3.3301,0.0,0.0,0.0,-3.4189,-3.3567,-3.4006,-3.415,-3.3806,-3.4296,-3.4594,-3.4594,-3.4018,-3.3662,-3.3403,-3.3071,-3.2788,-3.2516,-3.2231,-3.2023,-3.2007,-3.1697,-3.1482,-3.1482,-3.1482,-3.1482,-3.1482,-3.1482,-3.1482,-3.1482,-3.1482,-3.1482,-3.1482,-3.1482,-3.1278,-3.097,-3.0478,-3.0115,-2.9808,-2.9044,-2.8403,-2.7894,-2.7297,-2.7095,-2.704,-2.6589,-2.5674,-2.482,-2.482,-2.3917,-2.3078,-2.3078,-2.3078,-2.3078,-2.3078,-2.3078,-2.3078,-2.3078,-2.2871,-2.2689,-2.2519,-2.2149,-2.1827,-2.1651,-2.1198,-2.0752,-2.0344,-2.002,-1.9704,-1.932,-1.8529,-1.8008,-1.8008,-1.8008,-1.8008,-1.8008,-1.8008,-1.8008,-1.8008,-1.8008,-1.8008,-1.8008,-1.8008,-1.8008,-1.8008,-1.7862,-1.7725,-1.7588,-1.7382,-1.7038,-3.6133,-3.603,-3.6,-3.6,-3.6419,-3.682,0.0,0.0,-3.7507,-3.7359,-3.741,-3.7511,-3.7431,-3.7246,-3.7039,-3.7039,0.0,-3.5366,-3.4553,-3.3647,0.0,0.0,0.0,-3.3617,0.0,-3.4361,-3.4509,-3.3784,-3.4022,-3.4167,-3.4121,-3.4618,-3.4899,-3.4899,-3.4546,-3.425,-3.4101,-3.3697,-3.3355,-3.3198,-3.2841,-3.2641,-3.2641,-3.2007,-3.1754,-3.1754,-3.1582,-3.1482,-3.1482,-3.1482,-3.1482,-3.1482,-3.1482,-3.1482,-3.1482,-3.1482,-3.1467,-3.1351,-3.0807,-3.0568,-3.0387,-2.9623,-2.9373,-2.9233,-2.839,-2.7999,-2.763,-2.6768,-2.5608,-2.4544,-2.4368,-2.3666,-2.3078,-2.3078,-2.3078,-2.3078,-2.3078,-2.3078,-2.3078,-2.3078,-2.3078,-2.3017,-2.2848,-2.2739,-2.2555,-2.2371,-2.2049,-2.1663,-2.1198,-2.0933,-2.0613,-2.0161,-1.9187,-1.8596,-1.8596,-1.8395,-1.8269,-1.8269,-1.8144,-1.8008,-1.8008,-1.8008,-1.8008,-1.8008,-1.8008,-1.8008,-1.8008,-1.7784,-1.7647,-1.747,-1.7314,-1.7107,-3.5893,-3.6072,-3.6,-3.6,-3.6,-3.5908,0.0,-3.5424,-3.5287,-3.4818,-3.5116,-3.5424,-3.5424,-3.5734,-3.5988,-3.5945,-3.5573,0.0,-3.4148,-3.3652,0.0,0.0,0.0,-3.4134,-3.4447,-3.511,-3.5429,-3.5274,-3.5182,0.0,-3.4883,-3.4899,-3.4899,-3.4899,-3.4899,-3.4643,-3.4101,-3.4101,-3.3815,-3.3182,-3.3182,-3.3182,-3.3182,-3.2641,-3.2398,-3.2342,-3.1739,-3.1482,-3.1482,-3.1482,-3.1482,-3.1482,-3.1482,-3.1482,-3.1482,-3.1482,-3.1409,-3.1278,-3.1278,-3.1176,-3.1073,-3.0821,-3.0762,-3.0642,-2.9808,-2.9093,-2.8241,-2.705,-2.5396,-2.3879,-2.3301,-2.3078,-2.3078,-2.3078,-2.3078,-2.3078,-2.3078,-2.3078,-2.3078,-2.3078,-2.2957,-2.2848,-2.2739,-2.2555,-2.2359,-2.2185,-2.1588,-2.1123,-2.1123,-2.0549,-2.0096,-2.0096,-2.0107,-2.0096,-2.0096,-1.9441,-1.8977,-1.8977,-1.8395,-1.8008,-1.8008,-1.8008,-1.8008,-1.8008,-1.8008,-1.8008,-1.8008,-1.7784,-1.7647,-1.747,-1.7314,-1.7107,-3.4623,-3.4504,-3.4495,-3.4438,-3.4887,-3.5261,-3.5078,-3.5563,-3.5933,-3.5706,-3.5786,-3.5866,-3.5823,-3.5903,-3.6,-3.597,-3.5828,-3.5413,0.0,0.0,0.0,-3.2581,-3.3115,-3.4024,0.0,0.0,-3.5492,-3.5446,-3.5245,-3.5088,-3.5041,-3.4947,-3.4899,-3.4899,-3.4899,-3.4804,-3.4643,-3.4643,-3.4529,-3.4366,-3.3968,-3.3815,-3.3815,-3.3214,-3.2949,-3.2949,-3.2382,-3.2135,-3.2064,-3.1697,-3.1482,-3.1482,-3.1482,-3.1482,-3.1482,-3.1409,-3.1351,-3.1292,-3.1058,-3.094,-3.0895,-3.0702,-3.0642,-3.0555,-2.9808,-2.911,-2.8201,-2.6566,-2.5668,-2.5077,-2.454,-2.4381,-2.4381,-2.4381,-2.4381,-2.4381,-2.4381,-2.4047,-2.3767,-2.3767,-2.3318,-2.2848,-2.2739,-2.2543,-2.2359,-2.2185,-2.1999,-2.1862,-2.1862,-2.1663,-2.1537,-2.1537,-2.1537,-2.1146,-2.0172,-1.9901,-1.9573,-1.9044,-1.8787,-1.8462,-1.8008,-1.8008,-1.8008,-1.8008,-1.8008,-1.8008,-1.8008,-1.7784,-1.7579,-1.7314,-1.7107,-1.6968,0.0,-3.4027,-3.3807,-3.3753,-3.4165,0.0,0.0,-3.4935,-3.5349,-3.5255,-3.5227,-3.517,-3.5141,-3.51,-3.5089,-3.5059,-3.503,-3.4806,0.0,0.0,0.0,-3.3368,0.0,0.0,0.0,-3.58,-3.5639,-3.5492,-3.5291,-3.5198,-3.5198,-3.5105,-3.5041,-3.5041,-3.4947,-3.4899,-3.4899,-3.4899,-3.4899,-3.4899,-3.4546,-3.4399,-3.4399,-3.3799,-3.3527,-3.3491,-3.2749,-3.2398,0.0,-3.1754,-3.1482,-3.1482,-3.1482,-3.1482,-3.1467,-3.1351,-3.1292,-3.1176,-3.0881,-3.0762,-3.0658,-3.0351,-3.006,-2.974,-2.9102,-2.8426,-2.7703,-2.6516,-2.5843,-2.5426,-2.5116,-2.5007,-2.5007,-2.5007,-2.5007,-2.4951,-2.4738,-2.435,-2.4015,-2.378,-2.3258,-2.28,-2.2678,-2.2494,-2.2309,-2.2197,-2.2197,-2.2197,-2.2197,-2.2197,-2.2197,-2.2197,-2.2197,-2.1862,-2.0944,-2.0613,-2.0291,-1.9824,-1.9562,-1.9243,-1.8798,-1.8798,-1.8664,-1.8395,-1.8405,-1.8269,-1.8008,-1.7725,-1.7451,-1.7107,-1.6968,-1.6908,0.0,-3.4403,0.0,0.0,0.0,0.0,-3.3788,-3.3807,0.0,-3.3788,-3.3753,-3.3698,-3.3698,-3.3643,-3.3577,-3.352,-3.3509,-3.3481,0.0,-3.3364,0.0,0.0,-3.48,0.0,-3.6229,-3.6241,-3.5985,-3.5611,-3.5429,-3.5337,-3.5337,-3.5337,-3.5291,-3.5291,-3.5041,-3.4899,-3.4899,-3.4899,-3.4899,-3.4899,-3.4899,-3.4899,-3.4899,-3.435,-3.407,-3.402,-3.2855,-3.2353,-3.2299,-3.1762,-3.1507,-3.1465,-3.1567,-3.1539,-3.1467,-3.1351,-3.1234,-3.1073,-3.0895,-3.0673,-3.0468,-2.9769,-2.9131,-2.8507,-2.7911,-2.731,-2.6863,-2.6821,-2.6008,-2.5133,-2.5133,-2.5133,-2.5133,-2.5133,-2.5133,-2.4951,-2.4408,-2.4234,-2.406,-2.3365,-2.303,-2.28,-2.28,-2.2494,-2.2259,-2.2259,-2.2185,-2.2197,-2.2197,-2.2197,-2.2197,-2.2197,-2.2197,-2.2197,-2.2197,-2.1588,-2.1135,-2.1123,-2.0549,-2.0172,-2.0096,-2.0096,-1.977,-1.911,-1.9044,-1.8654,-1.8008,-1.7676,-1.7332,-1.6908,-1.6908,-1.6908,-3.4664,0.0,-3.4049,-3.3807,-3.378,-3.3807,0.0,-3.378,-3.3807,-3.3726,0.0,0.0,-3.3698,-3.3671,-3.3671,-3.3661,-3.3577,-3.3491,-3.3481,0.0,0.0,-3.4588,-3.4637,-3.5177,-3.6601,-3.6741,-3.6661,-3.6597,-3.6139,-3.5898,-3.5898,-3.5532,-3.5291,-3.5291,-3.5152,-3.5041,-3.5041,-3.4947,-3.4899,-3.4899,-3.4899,-3.4899,-3.4883,-3.4209,-3.3851,-3.3818,-3.2579,-3.2046,-3.2029,-3.1961,-3.1705,-3.1402,-3.1977,-3.191,-3.1467,-3.1351,-3.1292,-3.1234,-3.0881,-3.0499,-2.9929,-2.9159,-2.8477,-2.7926,-2.7781,-2.7614,-2.7389,-2.6913,-2.6615,-2.6379,-2.6379,-2.6379,-2.6379,-2.6379,-2.6379,-2.6326,-2.6218,-2.5825,-2.537,-2.4951,-2.4337,-2.3826,-2.3577,-2.3065,-2.2726,-2.2726,-2.2432,-2.2197,-2.2197,-2.2197,-2.2197,-2.2197,-2.2197,-2.2197,-2.2197,-2.2061,-2.1726,-2.1135,-2.0933,-2.0613,-2.0107,-2.0096,-2.0031,-1.9835,-1.9309,-1.8654,-1.8008,-1.7676,-1.747,-1.7323,-1.7047,-1.6908,-3.4753,-3.4505,-3.4255,-3.3998,-3.3947,-3.3947,-3.378,0.0,0.0,0.0,0.0,0.0,0.0,0.0,-3.3605,-3.3605,-3.352,0.0,0.0,0.0,0.0,-3.5027,-3.549,-3.6096,0.0,-3.717,-3.7094,-3.69,-3.662,-3.6457,-3.6457,-3.6028,-3.5756,-3.5756,-3.5076,-3.4801,-3.5088,-3.4615,-3.4386,-3.4386,-3.4038,-3.3889,-3.3872,-3.3458,-3.3292,-3.3259,-3.2297,-3.1884,-3.1869,-3.1704,-3.1393,-3.1182,-3.1607,-3.155,-3.1228,-3.1104,-3.09,-3.0597,-3.0357,-2.9675,-2.8822,-2.8347,-2.781,-2.7302,-2.7302,-2.7302,-2.7229,-2.6881,-2.6779,-2.6779,-2.6779,-2.6779,-2.6779,-2.6779,-2.6779,-2.6727,-2.6447,-2.6111,-2.5715,-2.5133,-2.4624,-2.4163,-2.3859,-2.3305,-2.2909,-2.2909,-2.2494,-2.2197,-2.2197,-2.2197,-2.2197,-2.2197,-2.2197,-2.2197,-2.2197,-2.2197,-2.2061,-2.1651,-2.1588,-2.1463,-2.1083,-2.1083,-2.088,-2.0549,-1.9835,-1.9309,-1.8844,-1.8519,-1.8182,-1.7842,-1.7442,-1.7176,-3.5001,-3.4793,-3.4551,-3.4321,-3.4269,-3.4179,-3.3954,0.0,0.0,0.0,0.0,0.0,0.0,-3.3587,0.0,0.0,0.0,0.0,-3.3393,-3.4099,-3.4914,-3.5711,-3.6508,0.0,-3.756,-3.7596,-3.7487,-3.7132,-3.7017,-3.6925,-3.6802,-3.6423,-3.6143,-3.6022,-3.4788,-3.4331,-3.4877,-3.4031,-3.3624,-3.3607,-3.2994,-3.268,-3.268,-3.2564,-3.2531,-3.2514,-3.1932,-3.1716,-3.167,-3.1278,-3.1019,-3.0986,-3.1097,-3.1079,-3.0979,-3.0864,-3.0474,-2.9932,-2.9546,-2.8675,-2.7763,-2.7621,-2.7229,-2.6779,-2.6779,-2.6779,-2.6779,-2.6779,-2.6779,-2.6779,-2.6779,-2.6779,-2.6779,-2.6779,-2.6779,-2.6674,-2.6165,-2.6056,-2.577,-2.4964,-2.4624,-2.4452,-2.4105,-2.3531,-2.3138,-2.3138,-2.2714,-2.242,-2.242,-2.242,-2.242,-2.242,-2.242,-2.2359,-2.2309,-2.2309,-2.2247,-2.2197,-2.2197,-2.2197,-2.2197,-2.2197,-2.1862,-2.1123,-2.0549,-2.0085,-1.9738,-1.942,-1.8957,-1.8277,-1.7959,-1.7579,-3.5157,-3.5124,-3.4981,-3.4551,-3.4464,-3.4442,-3.4398,0.0,0.0,0.0,0.0,0.0,0.0,-3.3726,-3.3671,0.0,0.0,-3.3452,0.0,0.0,-3.4914,-3.5711,0.0,-3.7286,-3.8016,-3.8088,-3.8072,-3.802,-3.7632,-3.7093,-3.6417,-3.6013,-3.5465,-3.4801,-3.4077,-3.3751,-3.3828,-3.3188,-3.2862,-3.2862,-3.2729,-3.268,-3.2663,-3.2067,-3.1785,-3.1709,-3.1037,-3.0714,-3.0764,-3.1303,-3.1222,-3.0889,-3.15,-3.1437,-3.0979,-3.0979,-3.0643,-3.0066,-2.8838,-2.8305,-2.8075,-2.719,-2.6866,-2.6779,-2.6779,-2.6779,-2.6779,-2.6779,-2.6779,-2.6779,-2.6779,-2.6779,-2.6779,-2.6779,-2.6779,-2.6779,-2.6674,-2.6674,-2.6553,-2.6136,-2.5811,-2.5564,-2.5313,-2.4593,-2.406,-2.406,-2.3708,-2.3412,-2.3412,-2.3412,-2.3412,-2.3412,-2.3412,-2.3233,-2.2848,-2.2787,-2.2616,-2.2259,-2.2197,-2.2197,-2.2197,-2.2197,-2.1862,-2.1123,-2.0996,-2.0484,-1.966,-1.9375,-1.911,-1.8731,-1.8509,-1.8297,-3.5209,-3.5209,-3.5141,-3.4944,-3.4793,-3.4674,-3.4529,0.0,0.0,0.0,0.0,0.0,0.0,0.0,-3.3671,-3.3605,0.0,-3.3481,-3.3393,-3.448,-3.5403,0.0,0.0,-3.7775,-3.8156,-3.8192,-3.8011,-3.7558,-3.7352,-3.689,-3.6065,-3.5616,-3.5226,-3.4818,-3.3885,-3.3373,-3.3373,-3.2667,-3.2259,-3.21,-3.1702,-3.152,-3.1504,-3.1172,-3.1023,-3.1007,-3.0659,-3.0526,-3.0543,-3.0891,-3.0836,-3.068,-3.1024,-3.0961,-3.0674,-3.0382,-3.0085,-2.9768,-2.8641,-2.8283,-2.8223,-2.7584,-2.7393,-2.7393,-2.7393,-2.7393,-2.7357,-2.7181,-2.6989,-2.6779,-2.6779,-2.6779,-2.6779,-2.6779,-2.6779,-2.6779,-2.6779,-2.6779,-2.6712,-2.6351,-2.619,-2.6042,-2.5743,-2.5216,-2.4794,-2.4794,-2.4208,-2.38,-2.38,-2.3682,-2.3577,-2.3577,-2.3577,-2.3518,-2.3305,-2.3305,-2.2944,-2.2259,-2.2197,-2.2197,-2.2197,-2.2197,-2.2061,-2.1726,-2.1663,-2.1474,-2.1031,-2.056,-2.0096,-1.9562,-1.9166,-1.8777,-3.5209,-3.5209,-3.5209,-3.5209,0.0,-3.4926,-3.4695,0.0,0.0,0.0,0.0,0.0,0.0,-3.4005,0.0,-3.3643,-3.3549,-3.3491,-3.3393,-3.4624,-3.553,-3.553,-3.6779,-3.7631,-3.7631,-3.7631,-3.7377,-3.6761,-3.6707,-3.6363,-3.5566,-3.5202,-3.4894,-3.4715,-3.367,-3.3072,-3.3072,-3.2353,-3.1895,-3.17,-3.1007,-3.0699,-3.0675,-3.0593,-3.0526,-3.0526,-3.0526,-3.0526,-3.0526,-3.0526,-3.0526,-3.0526,-3.0526,-3.0526,-3.0426,-2.9865,-2.9629,-2.954,-2.867,-2.8352,-2.8304,-2.7997,-2.7898,-2.7898,-2.7898,-2.7898,-2.7864,-2.756,-2.7321,-2.7026,-2.6832,-2.6779,-2.6779,-2.6779,-2.6779,-2.6779,-2.6779,-2.6779,-2.6712,-2.6472,-2.6351,-2.6229,-2.6042,-2.5646,-2.5356,-2.5356,-2.4838,-2.4439,-2.4394,-2.4163,-2.3989,-2.393,-2.393,-2.3872,-2.3754,-2.3636,-2.328,-2.2592,-2.2432,-2.2371,-2.2371,-2.2247,-2.2197,-2.2197,-2.2197,-2.2185,-2.2061,-2.1486,-2.088,-2.0344,-1.977,-1.9243,-3.5242,-3.5209,-3.5209,-3.5209,-3.5193,0.0,-3.5157,-3.5019,0.0,-3.487,0.0,0.0,0.0,-3.4321,-3.4124,-3.3998,-3.3753,-3.3549,-3.3422,0.0,-3.4697,-3.4697,-3.5457,-3.5983,-3.5983,-3.5983,-3.5965,-3.5892,-3.5892,-3.5548,-3.4733,-3.4648,-3.4304,-3.3563,-3.3019,-3.274,-3.274,-3.2231,-3.1985,-3.1965,-3.1545,-3.13,-3.1218,-3.0838,-3.0609,-3.0526,-3.0526,-3.0526,-3.0526,-3.0526,-3.0526,-3.0526,-3.0526,-3.0526,-3.0426,-2.9968,-2.9793,-2.9661,-2.8795,-2.8511,-2.8415,-2.8012,-2.7898,-2.7898,-2.7898,-2.7898,-2.7898,-2.7864,-2.7864,-2.7665,-2.6974,-2.6779,-2.6779,-2.6779,-2.6779,-2.6779,-2.6779,-2.6779,-2.6779,-2.6779,-2.6525,-2.6283,-2.6283,-2.6042,-2.5839,-2.5839,-2.5784,-2.5674,-2.5425,-2.5383,-2.5257,-2.4948,-2.4892,-2.4708,-2.4292,-2.3872,-2.3577,-2.3518,-2.3065,-2.2848,-2.2848,-2.2432,-2.2197,-2.2197,-2.2197,-2.2061,-2.1726,-2.1348,-2.0967,-2.0571,-2.0205,-2.0009,-3.535,-3.5258,-3.5209,-3.5209,-3.5209,0.0,0.0,-3.5141,-3.5089,-3.5089,-3.4908,0.0,0.0,0.0,-3.4302,-3.403,-3.3947,-3.3807,-3.3452,-3.4171,-3.4679,-3.4606,-3.5344,-3.5833,-3.5802,-3.582,-3.5602,-3.5095,-3.5059,-3.4715,-3.39,-3.3846,-3.3719,-3.3411,-3.3226,-3.3135,-3.3135,-3.2943,-3.288,-3.288,-3.1986,-3.1507,-3.1295,-3.0998,-3.0733,-3.0526,-3.0526,-3.0526,-3.0526,-3.0526,-3.0526,-3.0526,-3.0526,-3.0526,-3.0468,-3.03,-3.0258,-3.0156,-2.9528,-2.9303,-2.9257,-2.8795,-2.8669,-2.8669,-2.8669,-2.8669,-2.8559,-2.8352,-2.8255,-2.8158,-2.763,-2.7479,-2.7444,-2.7233,-2.7196,-2.7093,-2.6832,-2.6779,-2.6779,-2.6779,-2.6712,-2.6592,-2.6592,-2.6553,-2.6447,-2.6447,-2.6258,-2.6042,-2.5798,-2.5592,-2.5369,-2.5061,-2.5005,-2.4948,-2.4765,-2.4593,-2.4465,-2.4465,-2.3767,-2.3352,-2.3352,-2.3173,-2.3053,-2.3053,-2.2775,-2.2543,-2.2469,-2.16,-2.1094,-2.0967,-2.0399,-2.0085,-3.5411,-3.53,-3.5209,0.0,0.0,0.0,-3.5209,-3.5209,-3.5209,-3.5209,-3.5089,0.0,0.0,0.0,0.0,0.0,-3.4227,-3.408,-3.3716,-3.4211,-3.4549,-3.4379,-3.4859,-3.5145,-3.5041,-3.5041,-3.4824,-3.4262,-3.4226,-3.3991,-3.3429,-3.3393,-3.3393,-3.3393,-3.3393,-3.3393,-3.3393,-3.3393,-3.3393,-3.3393,-3.257,-3.1967,-3.164,-3.1235,-3.0895,-3.0651,-3.0568,-3.0526,-3.0526,-3.0526,-3.0526,-3.0526,-3.0526,-3.0526,-3.0526,-3.0526,-3.0426,-3.0241,-2.9897,-2.9766,-2.9633,-2.9243,-2.9167,-2.9213,-2.9121,-2.9075,-2.9029,-2.8779,-2.8669,-2.8622,-2.8367,-2.811,-2.7864,-2.761,-2.7575,-2.7473,-2.7218,-2.7167,-2.7115,-2.6989,-2.6989,-2.6937,-2.6832,-2.6779,-2.6779,-2.6779,-2.6592,-2.6365,-2.6042,-2.5798,-2.5481,-2.5061,-2.5005,-2.5005,-2.5005,-2.5005,-2.5005,-2.5005,-2.4408,-2.4002,-2.3813,-2.3695,-2.3518,-2.3352,-2.3198,-2.2969,-2.286,-2.2025,-2.1639,-2.1639,-2.0828,-2.0388,-3.5444,-3.5288,0.0,0.0,0.0,0.0,-3.5209,-3.5209,-3.5209,-3.5209,0.0,-3.5209,-3.5209,-3.5037,0.0,-3.4793,-3.4572,-3.4379,-3.4311,-3.4232,-3.4087,-3.3847,-3.3743,-3.3633,-3.3422,-3.3411,-3.3411,-3.3411,-3.3393,-3.3393,-3.3393,-3.3393,-3.3393,-3.3393,-3.3393,-3.3393,-3.3393,-3.3393,-3.3393,-3.3393,-3.3196,-3.2848,-3.2385,-3.1562,-3.1151,-3.0975,-3.0634,-3.0526,-3.051,-3.0526,-3.0526,-3.0526,-3.0526,-3.0526,-3.0526,-3.0526,-3.0215,-2.981,-2.9793,-2.9677,-2.947,-2.9213,-2.9305,-2.9425,-2.9167,-2.9121,-2.9121,-2.9121,-2.9075,-2.9075,-2.9075,-2.8511,-2.7898,-2.7898,-2.7898,-2.7898,-2.7898,-2.7898,-2.783,-2.7488,-2.7401,-2.7299,-2.6884,-2.6779,-2.6779,-2.6779,-2.6779,-2.6659,-2.6351,-2.6042,-2.5674,-2.5061,-2.5005,-2.5005,-2.5005,-2.5005,-2.5005,-2.5005,-2.5005,-2.4765,-2.435,-2.3872,-2.3412,-2.2909,-2.321,-2.3163,-2.2678,-2.2628,-2.2592,-2.2604,-2.1553,-2.1123,-3.5631,-3.5483,0.0,0.0,0.0,0.0,0.0,-3.5209,0.0,0.0,-3.5209,-3.5209,-3.5209,-3.5141,0.0,-3.4832,-3.4773,-3.4653,-3.4357,-3.4357,-3.4353,-3.4176,-3.4171,-3.4117,-3.3972,-3.3972,-3.3921,-3.3815,-3.3698,-3.3605,-3.3605,-3.3481,-3.3393,-3.3393,-3.3393,-3.3393,-3.3393,-3.3393,-3.3393,-3.3393,-3.3196,-3.2943,-3.2586,-3.2127,-3.1748,-3.147,-3.1295,-3.1078,-3.0855,-3.0609,-3.0526,-3.0526,-3.0526,-3.0526,-3.0526,-3.0526,-3.0426,-3.0258,-3.013,-3.0044,-2.9973,-2.9677,-2.9633,-2.9677,-2.9633,-2.9499,-2.938,-2.938,-2.9259,-2.9075,-2.9075,-2.892,-2.8669,-2.8415,-2.8319,-2.8255,-2.7947,-2.7898,-2.7864,-2.778,-2.773,-2.7645,-2.7284,-2.7408,-2.7393,-2.6884,-2.7041,-2.6922,-2.6096,-2.555,-2.5174,-2.5005,-2.5005,-2.5005,-2.5005,-2.5005,-2.5005,-2.5005,-2.5005,-2.4948,-2.4821,-2.465,-2.4536,-2.4363,-2.4131,-2.3897,-2.3662,-2.31,-2.2482,-2.1854,-2.1376,-2.0816,-3.5715,0.0,0.0,0.0,0.0,-3.5311,-3.5289,0.0,0.0,0.0,0.0,-3.5209,-3.5209,-3.5209,0.0,-3.4982,-3.4982,-3.4926,-3.4695,-3.4714,-3.4674,-3.4529,-3.4486,-3.442,-3.4255,-3.4232,-3.4208,-3.4136,-3.3979,-3.3895,-3.3895,-3.3661,-3.352,-3.352,-3.3452,-3.3393,-3.3393,-3.3393,-3.3393,-3.3393,-3.3274,-3.3117,-3.2943,-3.2504,-3.2162,-3.1967,-3.1694,-3.1411,-3.1173,-3.0998,-3.0918,-3.0878,-3.0757,-3.0692,-3.0692,-3.0568,-3.0443,-3.0359,-3.0231,-3.0189,-3.0146,-2.9897,-2.9853,-2.9941,-2.9853,-2.9722,-2.9589,-2.9515,-2.938,-2.9213,-2.9121,-2.9075,-2.9029,-2.8826,-2.8716,-2.8669,-2.8415,-2.8367,-2.8319,-2.8158,-2.8158,-2.8012,-2.766,-2.778,-2.7765,-2.7291,-2.7423,-2.7269,-2.6549,-2.592,-2.5495,-2.5397,-2.5118,-2.5005,-2.5005,-2.5005,-2.5005,-2.5005,-2.5005,-2.5005,-2.5005,-2.5005,-2.4892,-2.4708,-2.4593,-2.4305,-2.3956,-2.3649,-2.316,-2.2555,-2.2113,-2.1678,-3.5732,0.0,0.0,0.0,0.0,0.0,-3.5422,-3.53,-3.5223,-3.519,0.0,-3.5209,-3.5209,-3.5209,-3.5209,-3.5209,-3.5209,-3.5209,-3.5209,-3.5162,-3.5038,-3.487,-3.4714,-3.4572,-3.4401,-3.4379,-3.4379,-3.4357,-3.4279,-3.4245,-3.4245,-3.3947,-3.3734,-3.3753,-3.3549,-3.3422,-3.3422,-3.3393,-3.3393,-3.3393,-3.3393,-3.3393,-3.3364,-3.2734,-3.2453,-3.2385,-3.1932,-3.1674,-3.1542,-3.1504,-3.1504,-3.1466,-3.1157,-3.1055,-3.1015,-3.0675,-3.0485,-3.0316,-3.0316,-3.0316,-3.0274,-3.0011,-3.0113,-3.0258,-3.0027,-2.9924,-2.9837,-2.9633,-2.956,-2.9425,-2.9213,-2.9121,-2.9075,-2.9075,-2.9075,-2.9075,-2.9075,-2.9075,-2.8982,-2.8622,-2.8559,-2.8415,-2.8012,-2.8012,-2.8012,-2.7947,-2.7845,-2.766,-2.7348,-2.6745,-2.6244,-2.5988,-2.5495,-2.516,-2.516,-2.516,-2.516,-2.516,-2.5118,-2.5061,-2.5061,-2.5005,-2.4821,-2.435,-2.4664,-2.4492,-2.3852,-2.4189,-2.4189,-2.3982,-2.3399,-2.3088,0.0,-3.5752,0.0,0.0,0.0,-3.5495,-3.5489,-3.5464,-3.5378,-3.5223,-3.5209,-3.5209,-3.5209,-3.5209,-3.5209,-3.5209,-3.5209,-3.5209,-3.5209,-3.5193,-3.516,-3.5124,-3.5107,-3.5035,-3.4945,-3.4927,-3.487,-3.4773,-3.4612,-3.4526,-3.4526,-3.4307,-3.416,-3.4099,-3.3858,-3.3698,-3.3633,-3.3481,-3.3393,-3.3393,-3.3393,-3.3393,-3.3393,-3.3086,-3.2816,-3.2555,-3.2249,-3.2002,-3.1785,-3.1579,-3.1504,-3.1504,-3.1428,-3.1389,-3.1389,-3.1312,-3.1274,-3.1235,-3.1235,-3.1235,-3.1196,-3.114,-3.1179,-3.1196,-3.114,-3.0804,-3.0418,-3.0377,-2.9968,-2.947,-2.9441,-2.9259,-2.9075,-2.9075,-2.9075,-2.9075,-2.9075,-2.9075,-2.9075,-2.8982,-2.8982,-2.8826,-2.8463,-2.8622,-2.8716,-2.8415,-2.7913,-2.7515,-2.7348,-2.699,-2.6692,-2.6534,-2.6428,-2.6308,-2.6308,-2.6308,-2.6308,-2.6308,-2.592,-2.5729,-2.5729,-2.523,-2.4948,-2.4835,-2.4948,-2.4778,-2.4447,-2.4492,-2.4131,-2.3339,-2.3148,-2.2847,0.0,0.0,0.0,0.0,0.0,0.0,-3.5604,-3.555,-3.547,-3.5369,-3.5315,-3.5273,-3.5209,-3.5209,-3.5209,-3.5209,-3.5209,-3.5209,-3.5209,-3.5209,-3.5209,-3.5209,-3.5209,-3.5193,-3.5143,-3.5162,-3.5126,-3.5054,-3.4908,-3.4851,-3.4851,-3.4572,-3.4398,-3.434,-3.4111,-3.3935,-3.3842,-3.3753,-3.3671,-3.3671,-3.3605,-3.3491,-3.3411,-3.3304,-3.3073,-3.2737,-3.2606,-3.237,-3.2108,-3.2001,-3.1929,-3.1893,-3.1765,-3.1691,-3.1691,-3.1559,-3.1504,-3.1504,-3.1504,-3.1504,-3.1504,-3.1504,-3.1504,-3.1504,-3.1504,-3.1295,-3.1004,-3.0845,-3.0502,-3.0182,-3.0011,-2.9897,-2.9766,-2.9766,-2.9425,-2.9075,-2.9075,-2.9075,-2.9075,-2.9075,-2.9075,-2.9029,-2.8826,-2.8967,-2.9029,-2.8826,-2.8415,-2.8158,-2.8094,-2.7615,-2.7261,-2.721,-2.6886,-2.6678,-2.6678,-2.6678,-2.6678,-2.6678,-2.6443,-2.6283,-2.6283,-2.596,-2.5591,-2.5005,-2.5005,-2.4892,-2.4677,-2.4677,-2.4363,-2.3682,-2.3682,-2.3458,0.0,0.0,0.0,0.0,0.0,0.0,-3.5728,-3.5648,-3.5543,-3.555,-3.5483,-3.5393,-3.527,-3.5239,-3.5242,-3.5242,-3.5226,-3.5209,-3.5209,-3.5209,-3.5209,-3.5209,-3.5209,-3.5209,-3.5209,-3.5209,-3.5209,-3.5209,-3.5162,-3.511,-3.511,-3.4832,-3.4651,-3.4583,-3.4363,-3.4197,-3.4049,-3.4023,-3.3998,-3.3998,-3.3815,-3.3671,-3.3491,-3.3491,-3.3286,-3.293,-3.293,-3.2755,-3.2491,-3.2491,-3.2491,-3.2457,-3.2197,-3.2038,-3.2002,-3.1748,-3.1691,-3.1671,-3.1671,-3.1671,-3.1671,-3.1671,-3.1671,-3.1671,-3.1671,-3.1617,-3.1504,-3.124,-3.1083,-3.0925,-3.0642,-3.0559,-3.0518,-3.0518,-2.9924,-2.9335,-2.9259,-2.9167,-2.9075,-2.9075,-2.9075,-2.9075,-2.9075,-2.9075,-2.9075,-2.9075,-2.9013,-2.892,-2.8904,-2.8319,-2.7879,-2.7845,-2.7363,-2.7004,-2.7004,-2.7004,-2.7004,-2.7004,-2.6901,-2.6834,-2.6834,-2.673,-2.6269,-2.5314,-2.5258,-2.5216,-2.5104,-2.5104,-2.4921,-2.461,-2.4509,-2.4363,0.0,0.0,0.0,0.0,0.0,-3.5864,0.0,0.0,-3.5736,0.0,-3.5562,-3.547,-3.5457,-3.5416,-3.5364,-3.5364,-3.5273,-3.5209,-3.5209,-3.5209,-3.5209,-3.5209,-3.5209,-3.5209,-3.5209,-3.5209,-3.5209,-3.5209,-3.5193,-3.5193,-3.5193,-3.5091,-3.4983,-3.4851,-3.4604,-3.4404,-3.4269,-3.4099,-3.3998,-3.3998,-3.3972,-3.3947,-3.3921,-3.3921,-3.3606,-3.3055,-3.3055,-3.2961,-3.282,-3.282,-3.282,-3.282,-3.277,-3.2672,-3.2488,-3.2472,-3.2387,-3.2284,-3.2284,-3.2284,-3.2284,-3.2284,-3.2284,-3.2284,-3.2284,-3.2073,-3.1821,-3.1785,-3.1393,-3.0982,-3.0925,-3.0723,-3.0518,-3.0518,-3.0393,-3.0225,-2.9793,-2.938,-2.9075,-2.9075,-2.9075,-2.9075,-2.9075,-2.9075,-2.9075,-2.9075,-2.9075,-2.9029,-2.8904,-2.8811,-2.8669,-2.851,-2.8414,-2.8317,-2.8186,-2.8186,-2.8186,-2.8186,-2.768,-2.7399,-2.7399,-2.6938,-2.6625,-2.6467,-2.6467,-2.6428,-2.6297,-2.6297,-2.6108,-2.5741,-2.5273,-2.5034,-3.5782,0.0,0.0,0.0,-3.5897,-3.5911,-3.5911,0.0,-3.5859,-3.5811,-3.5768,-3.5688,-3.5531,-3.5514,-3.5509,-3.5451,-3.5438,-3.5405,-3.5364,-3.5383,-3.5355,-3.532,-3.5304,-3.5289,-3.5209,-3.5209,-3.5209,-3.5209,-3.5209,-3.5209,-3.5209,-3.5176,-3.5108,-3.502,-3.4831,-3.4689,-3.4583,-3.4427,-3.4269,-3.4173,-3.4173,-3.4124,-3.3998,-3.3998,-3.3797,-3.3447,-3.3321,-3.3202,-3.3068,-3.293,-3.2916,-3.2916,-3.2916,-3.2852,-3.2737,-3.2639,-3.2573,-3.2507,-3.2422,-3.2406,-3.2406,-3.2406,-3.2406,-3.2406,-3.2406,-3.2319,-3.2144,-3.2108,-3.1875,-3.1674,-3.1637,-3.1524,-3.1393,-3.1393,-3.1184,-3.0931,-3.0714,-3.0276,-2.9881,-2.9881,-2.9881,-2.9881,-2.9881,-2.9881,-2.9881,-2.9881,-2.9881,-2.9881,-2.9821,-2.9733,-2.9645,-2.9572,-2.9166,-2.8904,-2.8858,-2.8573,-2.8411,-2.8411,-2.8137,-2.8008,-2.8008,-2.776,-2.7645,-2.7645,-2.7004,-2.6678,-2.6587,-2.6587,-2.6481,-2.6147,-2.5946,-2.5687,0.0,0.0,0.0,0.0,-3.588,-3.5877,0.0,0.0,-3.5904,0.0,-3.5894,-3.5833,-3.5631,-3.563,-3.562,-3.5566,-3.5577,-3.5577,-3.5531,-3.5507,-3.5489,-3.543,-3.5435,-3.5374,-3.53,-3.5254,-3.5258,-3.5258,-3.5226,-3.5209,-3.5209,-3.5193,-3.5143,-3.5092,-3.4964,-3.487,-3.4829,-3.4708,-3.458,-3.4427,-3.4386,-3.4293,-3.4148,-3.4148,-3.408,-3.3899,-3.3652,-3.3504,-3.339,-3.3232,-3.319,-3.319,-3.319,-3.316,-3.3099,-3.2939,-3.2862,-3.2784,-3.2573,-3.2523,-3.2507,-3.2422,-3.2406,-3.2406,-3.2406,-3.2406,-3.2388,-3.2267,-3.2232,-3.2179,-3.2144,-3.2108,-3.2108,-3.2108,-3.1821,-3.1528,-3.1244,-3.0851,-3.0518,-3.0518,-3.0518,-3.0518,-3.0518,-3.0518,-3.0518,-3.0518,-3.0518,-3.0518,-3.0518,-3.0418,-3.0335,-3.0293,-2.9761,-2.9406,-2.9361,-2.8997,-2.87,-2.8573,-2.8573,-2.8525,-2.8396,-2.8411,-2.8411,-2.8411,-2.7595,-2.7108,-2.7108,-2.7108,-2.7004,-2.6721,-2.6549,-2.6336,0.0,0.0,0.0,-3.5874,0.0,0.0,0.0,0.0,-3.59,-3.59,-3.5895,-3.5908,-3.5878,-3.582,-3.5776,-3.5706,-3.564,-3.5607,-3.5607,-3.5531,-3.5495,-3.5495,-3.5495,-3.5483,-3.5483,-3.543,-3.5398,-3.5398,-3.5273,-3.5209,-3.5209,-3.5145,-3.5092,-3.5092,-3.4964,-3.4908,-3.4889,-3.481,-3.4788,-3.4768,-3.4645,-3.458,-3.4561,-3.4561,-3.4561,-3.4539,-3.4148,-3.3972,-3.3972,-3.3947,-3.3947,-3.3947,-3.3947,-3.3831,-3.3661,-3.3661,-3.3524,-3.3314,-3.3014,-3.2827,-3.2749,-3.2473,-3.2406,-3.2406,-3.2406,-3.2406,-3.2406,-3.2388,-3.2301,-3.2179,-3.2179,-3.2144,-3.2108,-3.2108,-3.2073,-3.1785,-3.0868,-3.0625,-3.0584,-3.0518,-3.0518,-3.0518,-3.0518,-3.0518,-3.0518,-3.0518,-3.0518,-3.0518,-3.0518,-3.0477,-3.0435,-3.0293,-3.0166,-2.9978,-2.9859,-2.9777,-2.9528,-2.909,-2.909,-2.8873,-2.8396,-2.8411,-2.8411,-2.8411,-2.8348,-2.8299,-2.8299,-2.8299,-2.8152,-2.7905,-2.7342,-2.6916,0.0,0.0,0.0,-3.5802,-3.5854,-3.5864,-3.5888,-3.5936,-3.5957,-3.5957,-3.5955,-3.5951,-3.5908,-3.5877,-3.5864,-3.5833,-3.5807,-3.5781,-3.5799,-3.5764,-3.5741,-3.5697,-3.5641,-3.562,-3.5566,-3.5502,-3.5464,-3.5464,-3.5374,-3.532,-3.532,-3.5226,-3.516,-3.516,-3.5073,-3.5001,-3.4908,-3.483,-3.4788,-3.4788,-3.4666,-3.4602,-3.4602,-3.4602,-3.4602,-3.4583,-3.445,-3.4316,-3.4173,-3.4049,-3.3998,-3.3998,-3.3998,-3.3972,-3.3876,-3.3743,-3.3634,-3.3522,-3.3014,-3.2827,-3.2749,-3.2507,-3.2406,-3.2406,-3.2406,-3.2406,-3.2406,-3.2406,-3.2354,-3.2319,-3.2319,-3.2319,-3.2284,-3.2284,-3.2284,-3.2161,-3.1731,-3.1545,-3.1414,-3.1414,-3.1355,-3.1334,-3.1334,-3.1334,-3.1334,-3.1334,-3.1334,-3.1334,-3.1334,-3.1334,-3.1295,-3.1257,-3.0828,-3.0543,-3.0485,-3.0081,-2.9705,-2.9572,-2.9528,-2.9483,-2.9319,-2.9319,-2.9319,-2.9319,-2.9319,-2.9013,-2.8411,-2.8411,-2.8299,-2.8137,-2.7925,-2.766,-3.5499,0.0,0.0,0.0,0.0,-3.5846,-3.5851,0.0,-3.5932,-3.5932,-3.5938,-3.5925,-3.5894,-3.5898,-3.5901,-3.5892,-3.5903,-3.5903,-3.5904,-3.5894,-3.5878,-3.5846,-3.5799,-3.5741,-3.5697,-3.564,-3.5609,-3.5609,-3.5519,-3.5464,-3.5457,-3.5369,-3.5296,-3.5273,-3.5176,-3.5091,-3.5001,-3.4927,-3.4907,-3.4907,-3.4751,-3.471,-3.471,-3.471,-3.4689,-3.4666,-3.4666,-3.458,-3.4386,-3.4245,-3.4197,-3.4197,-3.4197,-3.4197,-3.4197,-3.4049,-3.3998,-3.3921,-3.34,-3.3207,-3.3166,-3.2862,-3.277,-3.277,-3.277,-3.277,-3.2737,-3.2737,-3.2705,-3.2722,-3.2722,-3.2623,-3.2523,-3.2523,-3.2473,-3.2371,-3.2267,-3.2144,-3.1984,-3.1894,-3.1875,-3.1819,-3.18,-3.18,-3.18,-3.18,-3.18,-3.18,-3.18,-3.18,-3.18,-3.18,-3.1351,-3.1021,-3.1021,-3.0559,-3.0182,-3.0054,-3.0054,-2.9968,-2.981,-2.9793,-2.9793,-2.9793,-2.9793,-2.9499,-2.8889,-2.8889,-2.8779,-2.8669,-2.8669,-2.8527,0.0,0.0,0.0,0.0,0.0,0.0,-3.5782,0.0,-3.5807,-3.5807,-3.5802,-3.5814,-3.589,-3.5893,-3.5908,-3.5894,-3.589,-3.5892,-3.5908,-3.589,-3.5894,-3.5894,-3.5889,-3.5889,-3.5889,-3.5846,-3.5799,-3.5799,-3.5676,-3.5611,-3.5599,-3.5607,-3.5538,-3.5412,-3.5273,-3.5209,-3.5209,-3.5145,-3.5092,-3.5092,-3.4964,-3.4908,-3.4908,-3.4908,-3.485,-3.4809,-3.4809,-3.4747,-3.4623,-3.4583,-3.4602,-3.4602,-3.4602,-3.4602,-3.4602,-3.4602,-3.4561,-3.4473,-3.4197,-3.4049,-3.3928,-3.3616,-3.3514,-3.3514,-3.3514,-3.3458,-3.3419,-3.3419,-3.3361,-3.3321,-3.3321,-3.3063,-3.2827,-3.2813,-3.2639,-3.2422,-3.2422,-3.2336,-3.2179,-3.1948,-3.1894,-3.1875,-3.18,-3.18,-3.18,-3.18,-3.18,-3.18,-3.18,-3.1837,-3.1837,-3.1837,-3.1651,-3.1517,-3.1517,-3.1308,-3.0998,-3.0559,-3.0559,-3.0335,-2.9881,-2.9881,-2.9881,-2.9837,-2.9837,-2.9837,-2.9837,-2.9793,-2.9733,-2.9629,-2.9585,-2.9435,-3.5016,0.0,0.0,0.0,0.0,0.0,0.0,0.0,-3.5721,-3.5721,-3.5764,-3.5813,-3.582,-3.5833,-3.5827,-3.583,-3.5911,-3.5976,-3.597,-3.5966,-3.5979,-3.5962,-3.5927,-3.5899,-3.5899,-3.5869,-3.5872,-3.5872,-3.5787,-3.5724,-3.5679,-3.5588,-3.5507,-3.5477,-3.5451,-3.5397,-3.5354,-3.5239,-3.5157,-3.5092,-3.4964,-3.4908,-3.4908,-3.4908,-3.4889,-3.487,-3.487,-3.485,-3.4811,-3.4647,-3.4602,-3.4602,-3.4602,-3.4602,-3.4583,-3.4539,-3.4517,-3.445,-3.4148,-3.4023,-3.3928,-3.3616,-3.3514,-3.3514,-3.3514,-3.3486,-3.3458,-3.3458,-3.3458,-3.3429,-3.339,-3.3284,-3.3225,-3.3184,-3.3111,-3.3068,-3.3068,-3.3019,-3.283,-3.2161,-3.1984,-3.1875,-3.18,-3.18,-3.18,-3.18,-3.2001,-3.2144,-3.2144,-3.2369,-3.2419,-3.2179,-3.2091,-3.1875,-3.1517,-3.1634,-3.16,-3.1376,-3.1642,-3.1735,-3.1608,-3.1625,-3.1476,-3.1189,-3.1167,-3.1067,-3.0797,-3.014,-2.9793,-2.975,-2.954,-2.9406,0.0,0.0,0.0,0.0,0.0,0.0,-3.5419,-3.5512,-3.5549,-3.5689,-3.5728,-3.5766,-3.5765,-3.576,-3.5772,-3.5794,-3.5869,-3.5919,-3.5911,-3.5912,-3.5915,-3.5918,-3.5915,-3.5908,-3.5908,-3.5929,-3.5935,-3.5951,-3.5909,-3.5844,-3.5801,-3.566,-3.5568,-3.5568,-3.5531,-3.5489,-3.5443,-3.5364,-3.5307,-3.527,-3.5184,-3.5149,-3.5149,-3.5149,-3.51,-3.5035,-3.5035,-3.5018,-3.4963,-3.4851,-3.4771,-3.4666,-3.4623,-3.4602,-3.4602,-3.4561,-3.4539,-3.4517,-3.4316,-3.4245,-3.4221,-3.4037,-3.3968,-3.3968,-3.3968,-3.3943,-3.3917,-3.3917,-3.3891,-3.3884,-3.3831,-3.3725,-3.3616,-3.3578,-3.3447,-3.3332,-3.3321,-3.3291,-3.3154,-3.2669,-3.247,-3.2351,-3.23,-3.2231,-3.2214,-3.2214,-3.2403,-3.2504,-3.2504,-3.2684,-3.2749,-3.2519,-3.2437,-3.2318,-3.2002,-3.2073,-3.2091,-3.2003,-3.2179,-3.2317,-3.2317,-3.2317,-3.2179,-3.1967,-3.1967,-3.186,-3.1674,-3.0804,-3.0368,-3.0368,-3.0182,-3.0038,0.0,0.0,0.0,0.0,-3.4907,0.0,-3.5209,-3.5268,-3.5311,-3.5565,-3.562,-3.5612,-3.5629,-3.5609,-3.5649,-3.5727,-3.5736,-3.5757,-3.5792,-3.5802,-3.5806,-3.581,-3.5857,-3.589,-3.589,-3.5957,-3.5992,-3.5991,-3.5987,-3.5957,-3.5896,-3.5801,-3.5724,-3.5724,-3.562,-3.5543,-3.5531,-3.5531,-3.5519,-3.5507,-3.5507,-3.5495,-3.5495,-3.5495,-3.5399,-3.5228,-3.5228,-3.52,-3.5136,-3.5138,-3.5018,-3.483,-3.471,-3.4668,-3.4668,-3.4668,-3.4668,-3.4668,-3.4668,-3.4668,-3.467,-3.467,-3.4668,-3.4668,-3.4647,-3.4604,-3.4539,-3.4517,-3.4473,-3.4427,-3.4409,-3.4221,-3.4049,-3.3972,-3.3743,-3.3504,-3.3419,-3.3419,-3.339,-3.3314,-3.3184,-3.3063,-3.2934,-3.2872,-3.2827,-3.2827,-3.2858,-3.289,-3.2858,-3.289,-3.2921,-3.2858,-3.2813,-3.2766,-3.2702,-3.2553,-3.2486,-3.2453,-3.2453,-3.2419,-3.2419,-3.2419,-3.2419,-3.2351,-3.2317,-3.2317,-3.2317,-3.1637,-3.1329,-3.1329,-3.1196,-3.1078,0.0,0.0,0.0,0.0,-3.4668,0.0,-3.4926,-3.498,-3.4977,-3.5047,-3.51,-3.5133,-3.5149,-3.513,-3.5178,-3.5364,-3.5399,-3.5477,-3.5756,-3.58,-3.5797,-3.5806,-3.5818,-3.5822,-3.5822,-3.5888,-3.5915,-3.5927,-3.5917,-3.5906,-3.5901,-3.587,-3.5866,-3.5866,-3.5833,-3.5799,-3.5732,-3.5688,-3.564,-3.5566,-3.5519,-3.5495,-3.5495,-3.5495,-3.5483,-3.5445,-3.5445,-3.5425,-3.5418,-3.5364,-3.5262,-3.5119,-3.5083,-3.5049,-3.4996,-3.4996,-3.5049,-3.5083,-3.5083,-3.5081,-3.5092,-3.5092,-3.5078,-3.5049,-3.4907,-3.4832,-3.4791,-3.4626,-3.4561,-3.4539,-3.4495,-3.445,-3.4404,-3.4316,-3.425,-3.4179,-3.413,-3.4105,-3.408,-3.403,-3.3542,-3.3136,-3.3009,-3.2978,-3.2947,-3.2947,-3.3207,-3.3343,-3.3284,-3.3504,-3.356,-3.3243,-3.3184,-3.3032,-3.2734,-3.288,-3.2943,-3.288,-3.3086,-3.3196,-3.3196,-3.3196,-3.3037,-3.2699,-3.2453,-3.2317,-3.2317,-3.2144,-3.2074,-3.2074,-3.195,-3.1897,-3.4099,0.0,-3.4173,-3.4316,-3.4381,0.0,0.0,-3.4754,-3.4794,-3.4906,-3.498,-3.4997,-3.4997,-3.4997,-3.5015,-3.5136,-3.5149,-3.522,-3.5379,-3.5611,-3.576,-3.5745,-3.5742,-3.5749,-3.5749,-3.5821,-3.5845,-3.5857,-3.587,-3.5898,-3.5898,-3.5891,-3.589,-3.5896,-3.5903,-3.588,-3.5853,-3.5813,-3.5784,-3.5745,-3.5727,-3.5679,-3.5649,-3.5649,-3.5629,-3.5604,-3.5604,-3.5604,-3.5604,-3.555,-3.5526,-3.547,-3.5283,-3.5174,-3.5159,-3.5159,-3.5174,-3.5209,-3.5209,-3.5205,-3.5215,-3.5215,-3.5185,-3.5174,-3.5076,-3.5047,-3.5016,-3.4889,-3.4851,-3.4851,-3.4813,-3.4813,-3.4774,-3.4715,-3.4696,-3.4695,-3.4614,-3.4593,-3.4591,-3.4567,-3.4265,-3.3938,-3.3607,-3.3524,-3.3496,-3.3496,-3.3625,-3.3725,-3.3698,-3.3868,-3.3868,-3.3634,-3.3606,-3.3504,-3.3273,-3.3309,-3.3327,-3.3298,-3.3345,-3.3393,-3.3393,-3.3393,-3.3345,-3.3243,-3.3093,-3.3045,-3.3148,-3.3045,-3.2763,-3.2317,-3.2231,-3.2179,-3.3998,-3.4049,-3.4074,-3.4074,-3.4124,-3.4203,0.0,0.0,0.0,-3.4774,-3.4832,0.0,0.0,0.0,0.0,-3.4679,0.0,0.0,0.0,-3.5211,0.0,-3.5572,-3.563,-3.5678,-3.5621,-3.5714,-3.5794,-3.5797,-3.5849,-3.5884,-3.5884,-3.589,-3.5878,-3.5877,-3.5872,-3.5899,-3.5896,-3.5888,-3.5895,-3.5908,-3.5891,-3.5872,-3.5818,-3.5823,-3.5791,-3.5737,-3.5737,-3.5737,-3.5737,-3.5737,-3.5765,-3.5801,-3.5456,-3.5301,-3.5301,-3.5301,-3.5301,-3.532,-3.532,-3.5334,-3.5315,-3.5315,-3.5287,-3.5259,-3.5259,-3.522,-3.5197,-3.5127,-3.5111,-3.5111,-3.5111,-3.5111,-3.5111,-3.5062,-3.5045,-3.5028,-3.4943,-3.4925,-3.4925,-3.4889,-3.4889,-3.4772,-3.4321,-3.4203,-3.4179,-3.4179,-3.4179,-3.4179,-3.4154,-3.4154,-3.4105,-3.403,-3.403,-3.4005,-3.3928,-3.3823,-3.3762,-3.3762,-3.3625,-3.3587,-3.3587,-3.3587,-3.3643,-3.3788,-3.3807,-3.3868,-3.3998,-3.386,-3.3332,-3.2568,-3.2519,-3.2435,-3.3998,-3.3998,-3.3998,-3.3998,-3.4023,-3.4023,-3.4055,0.0,-3.408,-3.4179,0.0,-3.4227,-3.4274,0.0,0.0,0.0,0.0,0.0,-3.3919,-3.4575,-3.5066,-3.5066,-3.5451,-3.5612,-3.538,-3.5568,-3.5732,-3.5807,-3.5813,-3.58,-3.58,-3.5802,-3.5802,-3.5806,-3.5806,-3.5835,-3.5908,-3.5837,-3.584,-3.5896,-3.5893,-3.5892,-3.5888,-3.5894,-3.5878,-3.5872,-3.5872,-3.5872,-3.5872,-3.5872,-3.5872,-3.5885,-3.5782,-3.5689,-3.563,-3.563,-3.5689,-3.5728,-3.5728,-3.5737,-3.5736,-3.5736,-3.56,-3.5469,-3.5463,-3.5353,-3.52,-3.52,-3.52,-3.52,-3.52,-3.52,-3.5185,-3.5181,-3.5181,-3.513,-3.5028,-3.4996,-3.498,-3.4906,-3.4908,-3.487,-3.4812,-3.4812,-3.4792,-3.4792,-3.4792,-3.4792,-3.4713,-3.4672,-3.4591,-3.4529,-3.4464,-3.4442,-3.442,-3.4334,-3.4311,-3.4311,-3.4242,-3.4195,-3.4195,-3.4195,-3.4189,-3.4148,-3.4148,-3.4099,-3.3998,-3.3972,-3.3815,-3.3541,-3.3375,-3.3256,-3.3868,-3.3921,-3.3947,-3.3947,-3.3972,-3.3998,-3.3998,-3.3998,-3.3998,-3.4049,0.0,0.0,0.0,0.0,0.0,0.0,-3.4008,-3.4149,0.0,0.0,-3.4755,-3.4962,-3.5165,-3.5307,-3.5297,-3.5507,-3.5669,-3.5747,-3.5735,-3.5732,-3.5741,-3.5787,-3.5807,-3.5797,-3.5797,-3.5812,-3.5841,-3.5809,-3.5801,-3.5831,-3.584,-3.5819,-3.5799,-3.581,-3.5827,-3.5774,-3.5774,-3.5774,-3.5794,-3.5827,-3.5845,-3.5843,-3.5853,-3.5844,-3.5826,-3.5826,-3.5833,-3.5852,-3.585,-3.5869,-3.585,-3.5807,-3.5745,-3.5679,-3.5669,-3.5618,-3.5535,-3.5492,-3.5492,-3.5492,-3.5492,-3.5492,-3.55,-3.5483,-3.5489,-3.5457,-3.5372,-3.5345,-3.5336,-3.5307,-3.5315,-3.5315,-3.5315,-3.507,-3.4908,-3.4908,-3.4908,-3.4889,-3.4851,-3.4831,-3.4773,-3.4674,-3.4632,-3.4572,-3.4508,-3.4423,-3.4401,-3.4401,-3.4334,-3.4311,-3.4311,-3.4311,-3.4334,-3.4439,-3.439,-3.4386,-3.4473,-3.4269,-3.4124,-3.3998,-3.3815,-3.3726,-3.3625,-3.3662,-3.3716,-3.3815,-3.3868,-3.3895,-3.377,-3.377,-3.377,-3.3698,-3.3752,0.0,0.0,0.0,0.0,0.0,0.0,-3.3924,0.0,-3.403,0.0,-3.4715,-3.4832,-3.4978,-3.5209,-3.5345,-3.5483,-3.5584,-3.5589,-3.5615,-3.5669,-3.5708,-3.5754,-3.5772,-3.5779,-3.5762,-3.5766,-3.5766,-3.5783,-3.5806,-3.5789,-3.5762,-3.5723,-3.5774,-3.5774,-3.573,-3.573,-3.573,-3.573,-3.5776,-3.5797,-3.5798,-3.5859,-3.5876,-3.5871,-3.588,-3.5904,-3.5899,-3.5911,-3.5898,-3.5892,-3.5838,-3.583,-3.583,-3.5834,-3.5826,-3.5826,-3.5773,-3.5745,-3.5745,-3.5727,-3.5745,-3.5743,-3.5736,-3.5735,-3.5743,-3.566,-3.565,-3.566,-3.5659,-3.5639,-3.5629,-3.5629,-3.5316,-3.5088,-3.507,-3.5051,-3.507,-3.5072,-3.5054,-3.5,-3.4889,-3.487,-3.4832,-3.4734,-3.4655,-3.4634,-3.4634,-3.4574,-3.4553,-3.4553,-3.4553,-3.4593,-3.4674,-3.463,-3.4647,-3.4747,-3.4495,-3.434,-3.4269,-3.4074,-3.3947,-3.3184,-3.3214,-3.3302,-3.3643,-3.3698,-3.3615,-3.3202,-3.3172,-3.3142,-3.289,-3.3136,-3.3447,-3.3514,0.0,0.0,0.0,0.0,0.0,0.0,0.0,-3.4049,-3.4124,-3.4416,-3.4715,-3.498,-3.5015,-3.5102,-3.5315,-3.5296,-3.5402,-3.5601,-3.5612,-3.5643,-3.5695,-3.5695,-3.5707,-3.5698,-3.5698,-3.5736,-3.5807,-3.5807,-3.5794,-3.5794,-3.5797,-3.5791,-3.5791,-3.5791,-3.5791,-3.5791,-3.5791,-3.5791,-3.5791,-3.5795,-3.5795,-3.5809,-3.589,-3.59,-3.5896,-3.5904,-3.5908,-3.5908,-3.5908,-3.5908,-3.5908,-3.5908,-3.5903,-3.5897,-3.5885,-3.5898,-3.5891,-3.5807,-3.5833,-3.5883,-3.5807,-3.5846,-3.5877,-3.5806,-3.5792,-3.5788,-3.5783,-3.5741,-3.5704,-3.5704,-3.5621,-3.5547,-3.5502,-3.547,-3.5476,-3.5474,-3.5412,-3.5379,-3.5383,-3.5324,-3.5277,-3.5277,-3.5209,-3.5174,-3.5174,-3.5174,-3.5157,-3.5157,-3.5157,-3.5089,-3.4889,-3.4889,-3.4772,-3.4623,-3.4602,-3.4561,-3.4473,-3.4099,-3.3868,-3.2713,-3.2745,-3.2745,-3.2872,-3.2921,-3.2872,-3.2713,-3.2731,-3.2699,-3.2616,-3.2713,-3.284,-3.2952,0.0,0.0,0.0,0.0,0.0,0.0,0.0,-3.385,-3.3671,-3.4123,-3.4489,-3.4595,-3.4756,-3.4925,-3.5032,-3.5032,-3.5133,-3.5383,-3.5397,-3.5457,-3.5628,-3.5628,-3.5639,-3.5643,-3.5643,-3.5654,-3.5678,-3.5718,-3.5736,-3.5727,-3.5741,-3.5729,-3.5743,-3.5743,-3.5743,-3.5724,-3.5729,-3.5725,-3.5745,-3.5787,-3.5801,-3.582,-3.5884,-3.5876,-3.5834,-3.5839,-3.58,-3.5778,-3.5812,-3.5829,-3.5849,-3.5899,-3.5896,-3.5896,-3.589,-3.5903,-3.59,-3.5873,-3.5873,-3.5896,-3.5864,-3.5873,-3.588,-3.581,-3.5806,-3.5802,-3.5802,-3.5773,-3.5777,-3.5777,-3.5749,-3.571,-3.5638,-3.5639,-3.5621,-3.5631,-3.5601,-3.56,-3.5599,-3.5543,-3.5495,-3.5502,-3.5438,-3.5391,-3.5391,-3.5391,-3.5391,-3.5391,-3.5391,-3.5364,-3.5302,-3.5209,-3.513,-3.5062,-3.4978,-3.4906,-3.4832,-3.4679,-3.447,-3.223,-3.223,-3.2282,-3.2417,-3.2468,-3.2417,-3.2248,-3.2265,-3.2265,-3.2109,-3.2213,-3.2368,-3.2453,0.0,0.0,0.0,0.0,0.0,0.0,-3.3255,-3.3325,-3.3105,-3.3776,-3.426,-3.426,-3.4423,-3.4555,-3.4676,-3.4735,-3.4851,-3.51,-3.5133,-3.5216,-3.5388,-3.5388,-3.5416,-3.5476,-3.5476,-3.5489,-3.5496,-3.5601,-3.5631,-3.5572,-3.5635,-3.5657,-3.5651,-3.5651,-3.5651,-3.5662,-3.5657,-3.5648,-3.5678,-3.5708,-3.5718,-3.5747,-3.583,-3.583,-3.5791,-3.5802,-3.5776,-3.5747,-3.5792,-3.5816,-3.5838,-3.5898,-3.5918,-3.5937,-3.5917,-3.5895,-3.5893,-3.589,-3.5891,-3.5893,-3.5909,-3.5912,-3.5915,-3.5873,-3.5872,-3.587,-3.587,-3.5864,-3.5879,-3.5879,-3.5871,-3.5845,-3.5743,-3.5742,-3.5735,-3.5702,-3.5706,-3.5702,-3.5696,-3.5641,-3.559,-3.5566,-3.5519,-3.5495,-3.5495,-3.5495,-3.5495,-3.5495,-3.5495,-3.5483,-3.547,-3.5386,-3.5297,-3.5254,-3.5178,-3.5114,-3.5045,-3.5045,-3.4887]},{"header":{"parameterUnit":"m.s-1","parameterCategory":1,"la1":30.6,"la2":29.2853,"lo1":-89.7004,"lo2":-87.6739,"dy":0.0162,"dx":0.0183,"nx":112,"ny":82,"refTime":"2023-08-18T12:00:00:Z","depth":0,"parameterNumber":3,"parameterNumberName":"V-component_of_WINDS"},"data":[0.0,0.0,0.0,0.0,0.0,0.0,0.0,0.0,0.0,0.0,0.0,0.0,0.0,0.0,0.0,0.0,0.0,0.0,0.0,0.0,0.0,0.0,0.0,0.0,0.0,0.0,0.0,0.0,0.0,0.0,0.0,0.0,0.0,0.0,0.0,0.0,0.0,0.0,0.0,0.0,0.0,0.0,0.0,0.0,0.0,0.0,0.0,0.0,0.0,0.0,0.0,0.0,0.0,0.0,0.0,0.0,0.0,0.0,0.0,0.0,0.0,0.0,0.0,0.0,0.0,0.0,0.0,0.0,0.0,0.0,0.0,0.0,0.0,0.0,0.0,0.0,0.0,0.0,0.0,0.0,0.0,0.0,0.0,0.0,0.0,0.0,0.0,0.0,0.0,0.0,-3.7984,-3.7984,-3.7951,-3.7934,-3.7934,-3.7934,-3.7934,-3.7934,0.0,0.0,0.0,0.0,0.0,0.0,0.0,0.0,0.0,0.0,0.0,0.0,0.0,0.0,0.0,0.0,0.0,0.0,0.0,0.0,0.0,0.0,0.0,0.0,0.0,0.0,0.0,0.0,0.0,0.0,0.0,0.0,0.0,0.0,0.0,0.0,0.0,0.0,0.0,0.0,0.0,0.0,0.0,0.0,0.0,0.0,0.0,0.0,0.0,0.0,0.0,0.0,0.0,0.0,0.0,0.0,0.0,0.0,0.0,0.0,0.0,0.0,0.0,0.0,0.0,0.0,0.0,0.0,0.0,0.0,0.0,0.0,0.0,0.0,0.0,0.0,0.0,0.0,0.0,0.0,0.0,0.0,0.0,0.0,0.0,0.0,0.0,0.0,0.0,0.0,0.0,0.0,0.0,0.0,0.0,0.0,0.0,0.0,0.0,0.0,0.0,0.0,0.0,0.0,-3.7984,-3.7984,-3.8088,-3.8158,-3.8158,-3.8054,-3.8036,-3.8158,0.0,0.0,0.0,0.0,0.0,0.0,0.0,0.0,0.0,0.0,0.0,0.0,0.0,0.0,0.0,0.0,0.0,0.0,0.0,0.0,0.0,0.0,0.0,0.0,0.0,0.0,0.0,0.0,0.0,0.0,0.0,0.0,0.0,0.0,0.0,0.0,0.0,0.0,0.0,0.0,0.0,0.0,0.0,0.0,0.0,0.0,0.0,0.0,0.0,0.0,0.0,0.0,0.0,0.0,0.0,0.0,0.0,0.0,0.0,0.0,0.0,0.0,0.0,0.0,0.0,0.0,0.0,0.0,0.0,0.0,0.0,0.0,0.0,0.0,0.0,0.0,0.0,0.0,0.0,0.0,0.0,0.0,0.0,0.0,0.0,0.0,0.0,0.0,0.0,0.0,0.0,0.0,0.0,0.0,0.0,0.0,0.0,0.0,0.0,0.0,0.0,0.0,0.0,-3.814,-3.8122,-3.8122,-3.8174,-3.8192,-3.8192,-3.8122,-3.8122,-3.8192,-3.8106,0.0,0.0,0.0,0.0,0.0,0.0,0.0,0.0,0.0,0.0,0.0,0.0,0.0,0.0,0.0,0.0,0.0,0.0,0.0,0.0,0.0,0.0,0.0,0.0,0.0,0.0,0.0,0.0,0.0,0.0,0.0,0.0,0.0,0.0,0.0,0.0,0.0,0.0,0.0,0.0,0.0,0.0,0.0,0.0,0.0,0.0,0.0,0.0,0.0,0.0,0.0,0.0,0.0,0.0,0.0,0.0,0.0,0.0,0.0,0.0,0.0,0.0,0.0,0.0,0.0,0.0,0.0,0.0,0.0,0.0,0.0,0.0,0.0,0.0,0.0,0.0,0.0,0.0,0.0,0.0,0.0,0.0,0.0,0.0,0.0,0.0,0.0,0.0,0.0,0.0,0.0,0.0,0.0,0.0,0.0,0.0,0.0,0.0,0.0,0.0,0.0,0.0,-3.8192,-3.8192,-3.8192,-3.8192,-3.8192,-3.8192,-3.8192,-3.8225,-3.8307,-3.8241,0.0,0.0,0.0,0.0,0.0,0.0,0.0,0.0,0.0,0.0,0.0,0.0,0.0,0.0,0.0,0.0,0.0,0.0,0.0,0.0,0.0,0.0,0.0,0.0,0.0,0.0,0.0,0.0,0.0,0.0,0.0,0.0,0.0,0.0,0.0,0.0,0.0,0.0,0.0,0.0,0.0,0.0,0.0,0.0,0.0,0.0,0.0,0.0,0.0,0.0,0.0,0.0,0.0,0.0,0.0,0.0,0.0,0.0,0.0,0.0,0.0,0.0,0.0,0.0,0.0,0.0,0.0,0.0,0.0,0.0,0.0,0.0,0.0,0.0,0.0,0.0,0.0,0.0,0.0,0.0,0.0,0.0,0.0,0.0,0.0,0.0,0.0,0.0,0.0,0.0,0.0,0.0,0.0,0.0,0.0,0.0,0.0,0.0,0.0,0.0,0.0,0.0,-3.8192,-3.8192,-3.8192,-3.8192,-3.8192,-3.8192,-3.8192,-3.8289,-3.8572,-3.8354,0.0,0.0,0.0,0.0,0.0,0.0,0.0,0.0,0.0,0.0,0.0,0.0,0.0,0.0,0.0,0.0,0.0,0.0,0.0,0.0,0.0,0.0,0.0,0.0,0.0,0.0,0.0,0.0,0.0,0.0,0.0,0.0,0.0,0.0,0.0,0.0,0.0,0.0,0.0,0.0,0.0,0.0,0.0,0.0,0.0,0.0,0.0,0.0,0.0,0.0,0.0,0.0,0.0,0.0,0.0,0.0,0.0,0.0,0.0,0.0,0.0,0.0,0.0,0.0,0.0,0.0,0.0,0.0,0.0,0.0,0.0,0.0,0.0,0.0,0.0,0.0,0.0,0.0,0.0,0.0,0.0,0.0,0.0,0.0,0.0,0.0,0.0,0.0,0.0,0.0,0.0,0.0,0.0,0.0,0.0,0.0,0.0,0.0,0.0,0.0,0.0,0.0,-3.8192,-3.8192,-3.8192,-3.8192,-3.8192,-3.8192,-3.8192,-3.8322,-3.8585,0.0,0.0,0.0,0.0,0.0,0.0,0.0,0.0,0.0,0.0,0.0,0.0,0.0,0.0,0.0,0.0,0.0,0.0,0.0,0.0,0.0,0.0,0.0,0.0,0.0,0.0,0.0,0.0,0.0,0.0,0.0,0.0,0.0,0.0,0.0,0.0,0.0,0.0,0.0,0.0,0.0,0.0,0.0,0.0,0.0,0.0,0.0,0.0,0.0,0.0,0.0,0.0,0.0,0.0,0.0,0.0,0.0,0.0,0.0,0.0,0.0,0.0,0.0,0.0,0.0,0.0,0.0,0.0,0.0,0.0,0.0,0.0,0.0,0.0,0.0,0.0,0.0,0.0,0.0,0.0,0.0,0.0,0.0,0.0,0.0,0.0,0.0,0.0,0.0,0.0,0.0,0.0,0.0,0.0,0.0,0.0,0.0,0.0,0.0,0.0,0.0,0.0,-3.8192,-3.8192,-3.8192,-3.8192,-3.8192,-3.8192,-3.8192,-3.8192,-3.8354,-3.87,0.0,0.0,0.0,0.0,0.0,0.0,0.0,0.0,0.0,0.0,0.0,0.0,0.0,0.0,0.0,0.0,0.0,0.0,0.0,0.0,0.0,0.0,0.0,0.0,0.0,0.0,0.0,0.0,0.0,0.0,0.0,0.0,0.0,0.0,0.0,0.0,0.0,0.0,0.0,0.0,0.0,0.0,0.0,0.0,0.0,0.0,0.0,0.0,0.0,0.0,0.0,0.0,0.0,0.0,0.0,0.0,0.0,0.0,0.0,0.0,0.0,0.0,0.0,0.0,0.0,0.0,0.0,0.0,0.0,0.0,0.0,0.0,0.0,0.0,0.0,0.0,0.0,0.0,0.0,0.0,0.0,0.0,0.0,0.0,0.0,0.0,0.0,0.0,0.0,0.0,0.0,0.0,0.0,0.0,0.0,0.0,0.0,0.0,0.0,0.0,0.0,0.0,-3.8192,-3.8192,-3.8192,-3.8192,-3.8192,-3.8192,-3.8192,-3.8192,-3.8415,0.0,0.0,0.0,0.0,0.0,0.0,0.0,0.0,0.0,0.0,0.0,0.0,0.0,0.0,0.0,0.0,0.0,0.0,0.0,0.0,0.0,0.0,0.0,0.0,0.0,0.0,0.0,0.0,0.0,0.0,0.0,0.0,0.0,0.0,0.0,0.0,0.0,0.0,0.0,0.0,0.0,0.0,0.0,0.0,0.0,0.0,0.0,0.0,0.0,0.0,0.0,0.0,0.0,0.0,0.0,0.0,0.0,0.0,0.0,0.0,0.0,0.0,0.0,0.0,0.0,0.0,0.0,0.0,0.0,0.0,0.0,0.0,0.0,0.0,0.0,0.0,0.0,0.0,0.0,0.0,0.0,0.0,0.0,0.0,0.0,0.0,0.0,0.0,0.0,0.0,0.0,0.0,0.0,0.0,0.0,0.0,0.0,0.0,0.0,0.0,0.0,0.0,0.0,-3.8192,-3.8192,-3.8192,-3.8192,-3.8192,-3.8192,-3.8192,-3.8192,-3.8415,-3.8952,0.0,0.0,0.0,0.0,0.0,0.0,0.0,0.0,0.0,0.0,0.0,0.0,0.0,0.0,0.0,0.0,0.0,0.0,0.0,0.0,0.0,0.0,0.0,0.0,0.0,0.0,0.0,0.0,0.0,0.0,0.0,0.0,0.0,0.0,0.0,0.0,0.0,0.0,0.0,0.0,0.0,0.0,0.0,0.0,0.0,0.0,0.0,0.0,0.0,0.0,0.0,0.0,0.0,0.0,0.0,0.0,0.0,0.0,0.0,0.0,0.0,0.0,0.0,0.0,0.0,0.0,0.0,0.0,0.0,0.0,0.0,0.0,0.0,0.0,0.0,0.0,0.0,0.0,0.0,0.0,0.0,0.0,0.0,0.0,0.0,0.0,0.0,0.0,0.0,0.0,0.0,0.0,0.0,0.0,0.0,0.0,0.0,0.0,0.0,0.0,0.0,0.0,-3.8192,-3.8192,-3.8192,-3.8192,-3.8192,-3.8192,-3.8192,-3.8192,-3.8368,-3.8799,0.0,0.0,0.0,0.0,0.0,0.0,0.0,0.0,0.0,0.0,0.0,0.0,0.0,0.0,0.0,0.0,0.0,0.0,0.0,0.0,0.0,0.0,0.0,0.0,0.0,0.0,0.0,0.0,0.0,0.0,0.0,0.0,0.0,0.0,0.0,0.0,0.0,0.0,0.0,0.0,0.0,0.0,0.0,0.0,0.0,0.0,0.0,0.0,0.0,0.0,0.0,0.0,0.0,0.0,0.0,0.0,0.0,0.0,0.0,0.0,0.0,0.0,0.0,0.0,0.0,0.0,0.0,0.0,0.0,0.0,0.0,0.0,0.0,0.0,0.0,0.0,0.0,0.0,0.0,0.0,0.0,0.0,0.0,0.0,0.0,0.0,0.0,0.0,0.0,0.0,0.0,0.0,0.0,0.0,0.0,0.0,0.0,0.0,0.0,0.0,0.0,0.0,-3.8241,-3.8225,-3.8192,-3.8192,-3.8192,-3.8192,-3.8192,-3.8192,-3.8322,-3.8585,0.0,0.0,0.0,0.0,0.0,0.0,0.0,0.0,0.0,0.0,0.0,0.0,0.0,0.0,0.0,0.0,0.0,0.0,0.0,0.0,0.0,0.0,0.0,0.0,0.0,0.0,0.0,0.0,0.0,0.0,0.0,0.0,0.0,0.0,0.0,0.0,0.0,0.0,0.0,0.0,0.0,0.0,0.0,0.0,0.0,0.0,0.0,0.0,0.0,0.0,0.0,0.0,0.0,0.0,0.0,0.0,0.0,0.0,0.0,0.0,-2.741,0.0,0.0,0.0,0.0,0.0,0.0,0.0,0.0,0.0,0.0,0.0,0.0,0.0,0.0,0.0,0.0,0.0,0.0,0.0,0.0,0.0,0.0,0.0,0.0,0.0,0.0,0.0,0.0,0.0,0.0,0.0,0.0,0.0,0.0,0.0,0.0,0.0,0.0,0.0,0.0,0.0,-3.8478,-3.8322,-3.8192,-3.8192,-3.8192,-3.8192,-3.8192,-3.8192,-3.8322,-3.8585,-3.801,0.0,0.0,0.0,0.0,0.0,0.0,0.0,0.0,0.0,0.0,0.0,0.0,0.0,0.0,0.0,0.0,0.0,0.0,0.0,0.0,0.0,0.0,0.0,0.0,0.0,0.0,0.0,0.0,0.0,0.0,0.0,0.0,0.0,0.0,0.0,0.0,0.0,0.0,0.0,0.0,0.0,0.0,0.0,0.0,0.0,0.0,0.0,0.0,0.0,0.0,0.0,0.0,0.0,0.0,0.0,0.0,0.0,0.0,0.0,0.0,-2.801,0.0,0.0,0.0,0.0,0.0,0.0,0.0,0.0,0.0,0.0,0.0,0.0,0.0,0.0,0.0,0.0,0.0,0.0,0.0,0.0,0.0,0.0,0.0,0.0,0.0,0.0,0.0,0.0,0.0,0.0,0.0,0.0,0.0,0.0,0.0,0.0,0.0,0.0,0.0,0.0,-3.8401,-3.8307,-3.8192,-3.8192,-3.8192,-3.8192,-3.8192,-3.8192,-3.8274,-3.8401,-3.7635,0.0,0.0,0.0,0.0,0.0,0.0,0.0,0.0,0.0,0.0,0.0,0.0,0.0,0.0,0.0,0.0,0.0,0.0,0.0,0.0,0.0,0.0,0.0,0.0,0.0,0.0,0.0,0.0,0.0,0.0,0.0,0.0,0.0,0.0,0.0,0.0,0.0,0.0,0.0,0.0,0.0,0.0,0.0,0.0,0.0,0.0,0.0,0.0,0.0,0.0,0.0,0.0,0.0,-2.5001,-2.4971,-2.4462,-2.5107,-2.5847,-2.6772,-2.7671,-2.7935,-2.7778,-2.824,0.0,0.0,0.0,0.0,0.0,0.0,0.0,0.0,0.0,0.0,0.0,0.0,0.0,0.0,0.0,0.0,0.0,0.0,0.0,0.0,0.0,0.0,-3.3316,-3.3364,-3.3393,-3.3393,-3.3393,0.0,0.0,0.0,0.0,0.0,0.0,0.0,0.0,0.0,0.0,0.0,-3.8289,-3.8225,-3.8192,-3.8192,-3.8192,-3.8192,-3.8192,-3.8192,-3.8138,-3.7993,-3.7232,-3.6557,0.0,0.0,0.0,0.0,0.0,0.0,0.0,0.0,0.0,0.0,0.0,0.0,0.0,0.0,0.0,0.0,0.0,0.0,0.0,0.0,0.0,0.0,0.0,0.0,0.0,0.0,0.0,0.0,0.0,0.0,0.0,0.0,-2.1485,-2.1616,0.0,0.0,0.0,0.0,0.0,0.0,0.0,0.0,0.0,0.0,0.0,0.0,0.0,-2.4462,-2.3864,-2.4462,-2.4418,-2.3729,-2.3819,-2.3819,-2.3744,-2.4237,-2.4844,-2.5571,-2.6455,0.0,-2.8279,-2.8373,0.0,0.0,0.0,0.0,0.0,0.0,0.0,0.0,0.0,0.0,0.0,0.0,0.0,0.0,0.0,0.0,0.0,0.0,0.0,0.0,0.0,0.0,-3.2988,-3.3334,-3.3393,-3.3393,-3.3393,-3.3393,-3.3393,-3.3393,-3.3393,-3.3628,0.0,0.0,0.0,0.0,0.0,0.0,-3.8541,-3.8354,-3.8192,-3.8192,-3.8192,-3.8192,-3.8192,-3.8192,-3.7884,-3.721,-3.6399,-3.5708,-3.5192,-3.4394,0.0,0.0,0.0,0.0,0.0,0.0,0.0,0.0,0.0,0.0,0.0,0.0,0.0,0.0,0.0,0.0,0.0,0.0,0.0,0.0,0.0,0.0,0.0,0.0,0.0,0.0,0.0,0.0,0.0,-2.1824,-2.1642,-2.1982,-2.2021,-2.1877,0.0,0.0,0.0,0.0,0.0,0.0,0.0,0.0,0.0,-2.361,-2.4268,-2.4298,-2.361,-2.4283,-2.4433,-2.4178,-2.4926,-2.5285,-2.53,-2.5908,-2.6458,-2.6995,-2.7373,-2.8163,-2.9132,-2.8626,-2.8412,-2.8412,0.0,0.0,0.0,0.0,-2.9258,-2.9646,-2.9703,-2.9782,-2.9951,-3.0308,0.0,0.0,0.0,0.0,0.0,0.0,0.0,-3.2702,-3.2702,-3.283,-3.3006,-3.3196,-3.3226,-3.3226,-3.3226,-3.3226,-3.3256,-3.3322,-3.3352,-3.3605,-3.4418,-3.5302,0.0,0.0,0.0,-3.8234,-3.8204,-3.8088,-3.8038,-3.8088,-3.8088,-3.8122,-3.8192,-3.8192,-3.7848,-3.7065,-3.6236,-3.5501,-3.4786,-3.4165,-3.3895,0.0,0.0,0.0,0.0,0.0,0.0,0.0,0.0,0.0,0.0,0.0,0.0,0.0,0.0,0.0,0.0,0.0,0.0,0.0,0.0,0.0,0.0,0.0,0.0,0.0,0.0,0.0,0.0,-2.1718,-2.1629,-2.2085,-2.2047,-2.1786,0.0,0.0,0.0,0.0,0.0,0.0,-2.3629,-2.3978,-2.4082,-2.3879,-2.4687,-2.4807,-2.4118,-2.4792,-2.5046,-2.4896,-2.5869,-2.6333,-2.6363,-2.7021,-2.7538,-2.7865,-2.8323,-2.8919,-2.9581,-2.8985,-2.8841,-2.8936,-2.8936,-2.9234,-2.9698,-2.9698,-3.0046,-3.051,-3.0609,-3.0692,-3.0692,-3.0831,-3.0935,-3.1078,-3.1338,0.0,0.0,0.0,0.0,-3.23,-3.242,-3.2636,-3.288,-3.3055,-3.3086,-3.3086,-3.3086,-3.3086,-3.3135,-3.3214,-3.3424,-3.3821,-3.4632,-3.553,0.0,-3.6976,-3.7721,-3.8135,-3.7934,-3.7899,-3.7934,-3.7967,-3.7984,-3.8036,-3.814,-3.7993,-3.754,-3.6725,-3.5946,-3.5131,-3.4335,-3.3905,-3.3726,-3.3807,0.0,0.0,0.0,0.0,0.0,0.0,0.0,0.0,0.0,0.0,0.0,0.0,0.0,0.0,0.0,0.0,0.0,0.0,0.0,0.0,0.0,0.0,0.0,0.0,0.0,0.0,0.0,0.0,0.0,-2.1354,-2.1029,0.0,0.0,0.0,0.0,-2.236,-2.3268,-2.3836,-2.3883,-2.4524,-2.4787,-2.4552,-2.5824,-2.6183,-2.551,-2.6153,-2.6183,-2.5555,-2.563,-2.5659,-2.5674,-2.6333,-2.6681,-2.6759,-2.8373,-2.9074,-2.9166,-2.9553,-2.9999,-3.041,-3.041,-3.0427,-3.046,-3.046,-3.0493,-3.0526,-3.0526,-3.0609,-3.0692,-3.0692,-3.1004,-3.1359,-3.1397,-3.1696,0.0,0.0,-3.1435,-3.1548,-3.1932,-3.2039,-3.2248,-3.2943,-3.3086,-3.3086,-3.3086,-3.3086,-3.3086,-3.3117,-3.3746,-3.4519,-3.531,0.0,-3.691,-3.7719,-3.7881,-3.7899,-3.7899,-3.7899,-3.7899,-3.7899,-3.7967,-3.7984,-3.8018,-3.7434,-3.6707,-3.5928,-3.5113,-3.4298,-3.3502,-3.3411,-3.3549,-3.3807,-3.3807,0.0,0.0,0.0,0.0,0.0,0.0,0.0,0.0,0.0,0.0,0.0,0.0,0.0,0.0,0.0,0.0,0.0,0.0,0.0,0.0,0.0,0.0,0.0,0.0,0.0,0.0,0.0,0.0,-2.0823,-2.0729,0.0,-2.0562,-2.1565,-2.2393,-2.2797,-2.3812,-2.4601,-2.4961,-2.5631,-2.5738,-2.5285,-2.6123,-2.6273,-2.5615,-2.6258,-2.6467,-2.6243,-2.6662,-2.6871,-2.6886,-2.7111,-2.747,-2.7904,-2.8521,-2.9193,-2.9847,-2.9592,-2.9884,-3.0526,-3.0526,-3.0526,-3.0526,-3.0526,-3.0526,-3.0526,-3.0526,-3.051,-3.0568,-3.0568,-3.0658,-3.0804,-3.0804,-3.0925,-3.0988,-3.0845,-3.1004,-3.1223,-3.1376,-3.1787,-3.2266,-3.2521,-3.2784,-3.2961,-3.2961,-3.3391,-3.3734,-3.3734,-3.4014,-3.4655,-3.5964,-3.6378,-3.6773,-3.7631,-3.7721,-3.7703,-3.7703,-3.7703,-3.7739,-3.7757,-3.7774,-3.7845,-3.7984,-3.7313,-3.657,-3.5842,-3.5059,-3.4244,-3.3429,-3.3393,-3.3452,-3.3549,-3.3549,-3.3726,0.0,0.0,0.0,0.0,0.0,0.0,0.0,0.0,0.0,0.0,0.0,0.0,0.0,0.0,0.0,0.0,0.0,0.0,0.0,0.0,0.0,0.0,0.0,0.0,0.0,0.0,-2.1017,-2.0966,-2.1082,-2.1185,-2.1134,-2.203,-2.3008,-2.4019,-2.4682,-2.5379,-2.6225,-2.6688,-2.6644,-2.5974,-2.6572,-2.6707,-2.6273,-2.6707,-2.6916,-2.6916,-2.7415,-2.7625,-2.7625,-2.7814,-2.8173,-2.8607,-2.9026,-2.9605,-3.0268,-3.0211,-3.0464,-3.0931,-3.0438,-3.0342,-3.0526,-3.0526,-3.0526,-3.0526,-3.0526,-3.0526,-3.0526,-3.0526,-3.0526,-3.0526,-3.0526,-3.0526,-3.0526,-3.0526,-3.0699,-3.0965,-3.1223,-3.1677,-3.2162,-3.242,-3.2918,-3.3294,-3.3294,-3.3919,-3.4561,-3.4829,-3.4898,-3.5272,-3.6361,-3.6666,-3.7006,-3.756,-3.7613,-3.7577,-3.7577,-3.7577,-3.7613,-3.7685,-3.7667,-3.7667,-3.7554,-3.7084,-3.641,-3.5426,-3.4896,-3.4244,-3.3429,-3.3393,-3.3452,-3.352,-3.352,-3.3698,-3.4074,0.0,0.0,0.0,0.0,0.0,0.0,0.0,0.0,0.0,0.0,0.0,0.0,0.0,0.0,0.0,0.0,0.0,0.0,0.0,0.0,0.0,0.0,0.0,-2.1549,-2.1648,-2.1746,-2.1898,-2.2047,-2.2182,-2.2387,-2.2831,-2.389,-2.5807,-2.5811,-2.6244,-2.7509,-2.753,-2.7243,-2.6662,-2.723,-2.7575,-2.7625,-2.7625,-2.7625,-2.7625,-2.7625,-2.7625,-2.764,-2.8263,-2.8577,-2.8689,-2.9779,-3.0278,-3.0397,-3.1421,-3.1869,-3.174,-3.0409,-3.0162,-3.0543,-3.0543,-3.0543,-3.0526,-3.0526,-3.0526,-3.0526,-3.0526,-3.0526,-3.0526,-3.0526,-3.0526,-3.0526,-3.0526,-3.0526,-3.0658,-3.1452,-3.1694,-3.1894,-3.269,-3.3512,-3.41,-3.41,-3.4688,-3.5437,-3.6203,-3.6381,-3.6435,-3.6435,-3.7077,-3.7577,-3.7577,-3.7577,0.0,-3.7577,-3.7577,-3.7577,-3.7577,-3.7685,-3.7434,-3.6784,-3.6744,-3.6158,-3.4697,-3.4588,-3.4208,-3.3429,-3.3393,-3.352,-3.378,-3.3807,-3.3807,-3.3807,0.0,0.0,0.0,0.0,0.0,0.0,0.0,0.0,0.0,0.0,0.0,0.0,0.0,0.0,0.0,0.0,0.0,0.0,0.0,0.0,0.0,0.0,-2.2455,-2.1762,-2.1771,-2.1827,-2.1746,-2.2214,-2.2526,-2.247,-2.3444,-2.4281,-2.4851,-2.5243,-2.5797,-2.6736,-2.6386,-2.6529,-2.7305,-2.7049,-2.7152,-2.7625,-2.7625,-2.7625,-2.7625,-2.7625,-2.7625,-2.7625,-2.7769,-2.8128,-2.8637,-2.944,-3.0036,-3.0443,-3.0754,-3.1111,-3.1502,-3.1781,-3.1638,-3.1279,-3.1279,-3.0974,-3.0526,-3.0526,-3.0526,-3.0526,-3.0526,-3.0526,-3.0526,-3.0526,-3.0526,-3.0526,-3.0526,-3.0526,-3.0551,-3.0781,-3.1449,-3.2134,-3.2351,-3.3187,-3.3949,-3.3949,-3.4557,-3.5205,-3.5414,-3.6176,-3.687,-3.7219,-3.7434,-3.7577,-3.7577,-3.7577,-3.7577,-3.7577,-3.7577,-3.7577,-3.7577,-3.7685,-3.7434,-3.6784,-3.6222,-3.5562,-3.4679,-3.4063,-3.3628,-3.3411,-3.3393,-3.3422,-3.3491,-3.3698,-3.3807,0.0,0.0,0.0,0.0,0.0,0.0,0.0,0.0,0.0,0.0,0.0,0.0,0.0,0.0,0.0,0.0,0.0,0.0,0.0,0.0,0.0,0.0,-2.2002,-2.2675,-2.2644,-2.2723,-2.2781,-2.2756,-2.331,-2.3641,-2.3701,-2.4361,-2.4913,-2.5209,-2.5261,-2.566,-2.6493,-2.5939,-2.598,-2.6826,-2.6774,-2.6893,-2.7203,-2.7458,-2.7625,-2.7625,-2.7625,-2.7625,-2.7625,-2.7625,-2.7949,-2.8637,-2.9295,-2.9924,-3.0522,-3.1086,-3.1469,-3.1759,0.0,0.0,0.0,0.0,-3.1603,-3.0974,-3.0974,-3.0775,-3.0526,-3.0526,-3.0526,-3.0526,-3.0526,-3.0526,-3.0526,-3.0526,-3.0742,-3.1016,-3.1166,-3.195,-3.2696,-3.2859,-3.3682,-3.4393,-3.4393,-3.5018,-3.557,-3.557,-3.6104,0.0,-3.7243,-3.7449,-3.7577,-3.7577,-3.7577,-3.7577,-3.7577,-3.7577,-3.7452,-3.7131,-3.7149,-3.6789,-3.5762,-3.5645,0.0,0.0,0.0,-3.3755,-3.3411,-3.3509,0.0,0.0,0.0,-3.3753,-3.3615,-3.3807,0.0,0.0,-3.378,-3.3842,0.0,0.0,0.0,0.0,0.0,0.0,0.0,0.0,0.0,0.0,0.0,0.0,0.0,0.0,0.0,0.0,-2.1824,-2.2713,-2.3942,-2.4142,-2.4217,-2.4279,-2.4747,-2.5153,-2.5333,-2.532,-2.5536,-2.6083,-2.5532,-2.5481,-2.6284,0.0,0.0,0.0,0.0,-2.6616,-2.6683,-2.7306,-2.7625,-2.7625,-2.7625,-2.7575,-2.7575,-2.7575,-2.7949,-2.8637,-2.9295,-2.9924,-3.0608,-3.1774,-3.2287,-3.2164,-3.1019,-3.1221,-3.2138,-3.2578,-3.2282,-3.1692,-3.1692,0.0,0.0,-3.06,-3.0593,-3.0526,-3.0526,-3.0576,-3.06,-3.06,-3.1172,-3.1822,-3.2169,-3.2791,-3.3457,-3.3813,-3.4511,-3.5077,-3.5077,-3.5616,-3.6045,-3.6045,-3.6105,-3.6256,-3.6701,-3.7206,-3.754,-3.7577,-3.7577,-3.7559,-3.747,-3.7452,-3.7148,-3.6345,-3.6326,0.0,-3.4415,-3.5015,-3.4893,-3.3502,-3.4081,-3.4154,-3.3429,-3.3633,-3.3643,-3.3393,-3.3615,-3.3633,-3.3393,-3.3393,-3.3393,-3.3393,-3.3895,-3.3972,0.0,0.0,0.0,0.0,0.0,0.0,0.0,0.0,0.0,0.0,0.0,0.0,0.0,0.0,0.0,-2.164,-2.2826,-2.3891,-2.4518,-2.5021,-2.5134,-2.4707,-2.5187,-2.5501,-2.5567,-2.5567,-2.5391,-2.509,-2.4583,-2.4384,-2.4709,-2.423,-2.4514,-2.5618,-2.5837,-2.6229,-2.6683,-2.7306,-2.7625,-2.7625,0.0,0.0,-2.7437,-2.7524,-2.7897,-2.8464,-2.9241,-2.9924,-3.0552,-3.1354,-3.1697,-3.1721,-3.2262,-3.2853,-3.3354,-3.2867,-3.2597,-3.2481,-3.2481,-3.2,-3.1404,-3.1404,-3.0964,-3.0526,-3.0526,-3.094,0.0,-3.1404,-3.1934,-3.2525,-3.2596,-3.3145,-3.3694,-3.3784,-3.4397,-3.4948,-3.4948,-3.5048,-3.5148,-3.5148,-3.5453,-3.5732,-3.5837,-3.6498,-3.715,-3.754,-3.7577,-3.7362,-3.672,-3.6631,-3.6328,-3.5525,-3.554,-3.5265,-3.4361,-3.4546,-3.4333,-3.3465,-3.3556,-3.3556,-3.3411,-3.3452,-3.3452,-3.3393,-3.3452,-3.3452,-3.3393,-3.3393,-3.3393,-3.3393,-3.3509,-3.352,0.0,0.0,0.0,0.0,0.0,0.0,0.0,0.0,0.0,0.0,0.0,-1.8745,0.0,0.0,-2.062,-2.1565,-2.257,-2.3639,-2.4529,-2.5236,-2.5498,-2.5247,-2.5686,-2.6025,-2.6025,-2.5774,-2.5385,-2.4858,-2.4305,-2.3938,-2.3878,-2.3628,-2.3981,-2.4994,-2.5341,-2.5992,-2.6933,-2.7541,-2.8003,-2.8337,-2.8337,-2.8121,-2.7772,-2.781,-2.7988,-2.829,-2.901,-2.9759,-3.0455,-3.1198,-3.1625,-3.1849,-3.2482,-3.3016,-3.3518,-3.3435,-3.3327,-3.3243,-3.3243,-3.2762,-3.215,-3.215,-3.1669,-3.1139,-3.1504,-3.1603,-3.1702,-3.205,-3.268,-3.3243,-3.3243,-3.3789,-3.4336,-3.4336,-3.4618,-3.4899,-3.4899,-3.4601,-3.4336,-3.4336,-3.4251,-3.4208,-3.4472,-3.4881,-3.5451,-3.6247,-3.6098,-3.5804,-3.558,-3.5382,-3.5009,-3.4429,-3.4479,-3.426,-3.3526,-3.3746,-3.3786,-3.3429,-3.3393,-3.3393,-3.3393,-3.3393,-3.3393,-3.3393,-3.3393,-3.3393,-3.3393,-3.3393,-3.3393,-3.3393,-3.3393,-3.3393,0.0,0.0,0.0,0.0,0.0,0.0,0.0,0.0,-1.8418,-1.838,-1.8596,-1.8912,-1.9344,-1.9684,-2.0247,-2.1485,-2.2353,-2.3349,-2.4522,-2.5277,-2.5762,-2.5762,-2.6176,-2.6533,-2.6533,-2.585,-2.5272,-2.4858,-2.4205,-2.3689,-2.3356,-2.3504,-2.3819,-2.4325,-2.5074,-2.5942,-2.7001,-2.7736,-2.8382,-2.8917,-2.9042,-2.8832,-2.8277,-2.8263,-2.8336,-2.8498,-2.9201,-2.9847,-3.0493,-3.1142,-3.1625,-3.1921,-3.2104,-3.2532,-3.3093,-3.3815,-3.3974,-3.3865,-3.3958,-3.3524,-3.2895,-3.2895,-3.2415,-3.1918,-3.2348,-3.2166,-3.1918,-3.2348,-3.3011,-3.3574,-3.3574,-3.4021,-3.4468,-3.4468,-3.4468,-3.4468,-3.4468,-3.4005,-3.3574,-3.3574,-3.3094,-3.2813,-3.3186,-3.317,-3.3473,-3.4777,-3.4483,-3.415,-3.4314,-3.4071,-3.3682,-3.3229,-3.3301,-3.3141,-3.2674,-3.3104,-3.3393,-3.3393,-3.3393,-3.3393,-3.3393,-3.3393,-3.3393,-3.3393,-3.3393,-3.3393,-3.3393,-3.3393,-3.3393,-3.3393,-3.3393,-3.3393,-1.7579,-1.7794,-1.794,-1.8202,-1.8144,-1.8174,0.0,0.0,-1.9023,-1.9697,-1.992,-2.0012,-2.0195,-2.0843,-2.1496,-2.2116,-2.3375,-2.4465,-2.5143,-2.5938,-2.6433,-2.6433,-2.6483,-2.6533,-2.6533,-2.5523,-2.4883,-2.4833,-2.3841,-2.3201,-2.3138,-2.3737,-2.4164,-2.4227,-2.5393,-2.6086,-2.6201,-2.7488,-2.8154,-2.8211,-2.8805,-2.9013,-2.8803,-2.8939,-2.9263,-2.9752,-3.0514,-3.0911,-3.1043,-3.1117,-3.119,-3.1249,-3.1336,-3.1766,-3.2407,-3.3662,-3.4102,-3.412,-3.4624,-3.4286,-3.3673,-3.3673,-3.3176,-3.2464,-3.1918,-3.2133,-3.2448,-3.1901,-3.2249,-3.2812,-3.2812,-3.2862,-3.2945,-3.2945,-3.2945,-3.2945,-3.2945,-3.2862,-3.2812,-3.2812,-3.2746,-3.2724,-3.2768,-3.2254,-3.2337,-3.3985,-3.4138,-3.3883,-3.319,-3.3066,-3.2789,-3.2138,-3.2088,-3.2249,-3.2654,-3.3117,-3.3393,-3.3393,-3.3393,-3.3393,-3.3393,-3.3393,-3.3393,-3.3393,-3.3393,-3.3393,-3.3393,-3.3393,-3.3393,-3.3393,-3.3393,-3.3393,-1.794,-1.8184,-1.8379,0.0,-1.8635,-1.887,-1.9199,-1.931,-1.936,-1.9611,-1.9857,-2.0154,-2.0252,-2.0751,-2.1199,0.0,-2.2663,-2.3663,-2.4313,-2.485,-2.5288,-2.5734,-2.5804,-2.582,-2.5988,-2.5272,-2.4695,-2.4368,-2.359,-2.3215,-2.3615,-2.3928,-2.4343,-2.4973,-2.5498,-2.6142,-2.6933,-2.7507,-2.8133,-2.8955,-2.9268,-2.9391,-2.929,-2.9389,-2.9535,-2.9784,-3.0558,-3.0895,-3.0821,-3.1014,-3.1014,-3.0955,-3.1132,-3.1394,-3.1766,-3.2765,-3.3507,-3.4151,-3.4349,-3.4445,-3.4435,-3.4435,-3.3938,-3.3359,-3.3491,-3.3143,-3.2713,-3.2845,-3.2779,-3.268,-3.268,-3.268,-3.268,-3.268,-3.268,-3.268,-3.268,-3.2365,-3.2067,-3.2067,-3.1719,-3.1421,-3.1421,-3.1172,-3.1199,-3.1898,-3.2013,-3.1975,-3.1866,-3.1659,-3.154,-3.16,-3.1603,-3.1914,-3.2684,-3.2925,-3.3147,-3.3411,-3.3393,-3.3393,-3.3393,-3.3393,-3.3393,-3.3393,-3.3393,-3.3393,-3.3393,-3.3393,-3.3393,-3.3393,-3.3393,-3.3393,-1.7868,-1.8356,0.0,-1.8818,-1.9053,-1.9316,-1.9434,-1.9546,-1.9659,-1.9703,-2.0018,-2.032,-2.0492,-2.0702,-2.0974,-2.1155,-2.2004,-2.2798,-2.3379,-2.3818,-2.4207,-2.4732,-2.479,-2.4807,-2.488,-2.4816,-2.4594,-2.4042,-2.3615,-2.3552,-2.3979,-2.428,-2.4795,-2.5573,-2.5749,-2.6295,-2.7229,-2.7417,-2.7999,-2.903,-2.9219,-2.9383,-2.9635,-2.9812,-2.9885,-2.9914,-3.0498,-3.0702,-3.0642,-3.0895,-3.0895,-3.0762,-3.0955,-3.1073,-3.1219,-3.1894,-3.2765,-3.3662,-3.3815,-3.4118,-3.4415,-3.4415,-3.4055,-3.3743,-3.4248,-3.3653,-3.283,-3.3115,-3.2812,-3.2348,-3.215,-3.2083,-3.2083,-3.2083,-3.2083,-3.2083,-3.2083,-3.1686,-3.1279,-3.1279,-3.0891,-3.0526,-3.0526,-3.0526,-3.0526,-3.0526,-3.0526,-3.0593,-3.0902,-3.074,-3.0797,-3.124,-3.1414,-3.1789,-3.2601,-3.2731,-3.2988,-3.3364,-3.3393,-3.3393,-3.3393,-3.3393,-3.3393,-3.3393,-3.3393,-3.3393,-3.3393,-3.3393,-3.3393,-3.3393,-3.3393,-3.3393,-1.7578,0.0,-1.9268,-1.9268,-1.9277,-1.9394,-1.9805,-1.9902,-2.0095,-2.07,-2.0867,-2.0944,-2.1108,-2.1185,-2.1195,-2.1205,-2.1852,-2.251,-2.2734,-2.3379,-2.3709,-2.3501,-2.3444,-2.3339,0.0,-2.4109,-2.4594,-2.4042,-2.3979,-2.3979,-2.4004,-2.4983,-2.5561,-2.5598,-2.6138,-2.6508,-2.6521,-2.7162,-2.755,-2.7537,-2.8247,-2.8889,-2.9594,-3.0283,-3.0553,-3.0553,-3.0628,-3.0568,-3.0568,-3.0628,-3.0628,-3.0642,-3.0762,-3.0821,-3.0881,-3.1234,-3.1781,-3.2547,-3.3055,-3.3251,-3.3235,-3.3235,-3.3235,-3.3196,-3.3095,-3.3016,-3.2804,-3.1907,-3.1626,-3.1487,-3.0775,-3.0593,-3.0593,-3.0593,-3.0593,-3.0593,-3.0593,-3.0576,-3.0543,-3.0543,-3.0543,-3.0526,-3.0526,-3.0526,-3.0526,-3.0526,-3.0526,-3.051,-3.0526,-3.0733,-3.0912,-3.0912,-3.1372,-3.186,-3.2283,-3.2601,-3.2988,-3.3364,-3.3393,-3.3393,-3.3393,-3.3393,-3.3393,-3.3393,-3.3393,-3.3393,-3.3393,-3.3393,-3.3393,-3.3393,-3.3393,-3.3393,-1.7834,0.0,-1.9707,-1.9707,-1.9922,-2.0166,-2.0312,-2.0342,-2.0468,-2.0624,-2.0572,-2.044,-2.0365,-2.044,-2.0516,-2.0365,-2.0918,-2.1634,-2.2435,-2.2371,-2.2349,-2.2661,-2.2677,0.0,0.0,0.0,0.0,-2.3403,-2.3778,-2.4155,-2.4519,-2.5209,-2.5774,-2.6151,-2.642,-2.6533,-2.6533,-2.6714,-2.704,-2.7484,-2.8182,-2.8889,-2.9623,-2.9808,-3.019,-3.0568,-3.0568,-3.0568,-3.0568,-3.0568,-3.0568,-3.0568,-3.0642,-3.0702,-3.0821,-3.1073,-3.1409,-3.1781,-3.2437,-3.2895,-3.3182,-3.3182,-3.3182,-3.3203,-3.3137,-3.2806,-3.2344,-3.2014,-3.1498,-3.0994,-3.0749,-3.0603,-3.0526,-3.0526,-3.0526,-3.0526,-3.0526,-3.0526,-3.0526,-3.0526,-3.0526,-3.0526,-3.0526,-3.0526,-3.0526,-3.0526,-3.0526,-3.051,-3.0609,-3.0692,-3.0814,-3.0935,-3.1117,-3.1411,-3.186,-3.1986,-3.2231,-3.2619,-3.2669,-3.2766,-3.2988,-3.2988,-3.3129,-3.3393,-3.3393,-3.3393,-3.3393,-3.3393,-3.3393,-3.3393,-3.3393,-3.3393,-1.8245,-1.9203,-2.0146,-2.0146,-2.0361,-2.0566,-2.0566,-2.0449,-2.0332,-2.0332,-2.0183,-2.0062,-1.9912,-1.9987,-2.0112,-2.0117,-2.034,-2.0861,-2.1756,-2.1568,-2.1419,-2.152,-2.1578,-2.1344,0.0,0.0,0.0,-2.2714,-2.3717,-2.4456,-2.4808,-2.5511,-2.6076,-2.6521,-2.6533,-2.6533,-2.6533,-2.6533,-2.6714,-2.7162,-2.7802,-2.8376,-2.8839,-2.9359,-2.9808,-3.0251,-3.0507,-3.0568,-3.0568,-3.0568,-3.0568,-3.0568,-3.0568,-3.0642,-3.0762,-3.1014,-3.1132,-3.1292,-3.191,-3.2327,-3.2571,-3.2571,-3.2571,-3.2625,-3.2841,-3.2598,-3.2191,-3.2096,-3.1661,-3.114,-3.0881,-3.0653,-3.0526,-3.0526,-3.0526,-3.0526,-3.0526,-3.0526,-3.0526,-3.0526,-3.0526,-3.0526,-3.0526,-3.0526,-3.0526,-3.0526,-3.0526,-3.0609,-3.0692,-3.0733,-3.0814,-3.0975,-3.1015,-3.1235,-3.164,-3.1677,-3.186,-3.2283,-3.2317,-3.2419,-3.2601,-3.2731,-3.2908,-3.3178,-3.3334,-3.3393,-3.3393,-3.3393,-3.3393,-3.3393,-3.3393,-3.3393,-1.867,-1.9706,-2.0566,-2.0566,-2.0566,-2.0566,-2.0566,-2.0225,-1.9922,-1.9941,-1.9912,-1.9893,0.0,0.0,-2.0019,-2.043,-2.0156,-2.0115,-2.0807,-2.1021,-2.0919,0.0,0.0,0.0,0.0,0.0,0.0,-2.1963,0.0,-2.4755,-2.4755,-2.5862,-2.6533,-2.6533,-2.6533,-2.6533,-2.6533,-2.6533,-2.6533,-2.6533,-2.7162,-2.7484,-2.755,-2.8903,-2.9484,-2.9546,-3.0251,-3.0568,-3.0568,-3.0568,-3.0568,-3.0568,-3.0568,-3.0568,-3.0642,-3.0955,-3.1087,-3.1146,-3.1424,-3.1482,-3.1482,-3.1482,-3.1482,-3.1582,-3.2176,-3.2342,-3.2299,-3.2113,-3.1962,-3.1644,-3.0951,-3.0582,-3.0426,-3.0426,-3.0443,-3.0468,-3.0468,-3.0468,-3.0526,-3.0526,-3.0526,-3.0526,-3.0526,-3.0526,-3.0526,-3.0526,-3.0609,-3.0692,-3.0692,-3.0814,-3.0952,-3.1015,-3.1112,-3.1329,-3.1657,-3.1677,-3.1823,-3.2214,-3.2248,-3.2248,-3.2283,-3.2568,-3.2763,-3.2763,-3.3147,-3.3334,-3.3334,-3.3364,-3.3364,-3.3364,-3.3393,-3.3422,-1.8928,-1.9847,-2.0566,-2.0566,-2.0566,-2.0566,-2.0566,-2.0225,-2.001,-2.0332,-1.9893,-1.9541,0.0,0.0,0.0,-1.959,-1.9521,0.0,-2.0321,-2.0552,0.0,-2.0144,0.0,-2.0128,-1.9414,-1.9781,0.0,0.0,-2.2947,-2.4054,-2.4054,-2.558,-2.6533,-2.6533,-2.6533,-2.6533,-2.6533,-2.6533,-2.6533,-2.6533,-2.6658,-2.704,-2.7484,-2.7868,-2.8325,-2.8826,-2.9546,-2.987,-2.987,-3.0387,-3.0568,-3.0568,-3.0568,-3.0568,-3.0642,-3.0821,-3.0955,-3.1132,-3.1292,-3.1409,-3.1482,-3.1482,-3.1482,-3.1524,-3.1697,-3.1739,-3.1709,-3.1641,-3.1221,-3.0663,-3.0491,-2.9927,-2.9438,-2.9438,-2.9705,-2.9984,-2.9984,-3.0241,-3.0526,-3.0526,-3.0526,-3.0526,-3.0526,-3.0526,-3.0526,-3.0526,-3.0609,-3.0749,-3.0831,-3.0935,-3.1015,-3.1151,-3.119,-3.123,-3.1329,-3.1329,-3.1351,-3.1466,-3.1466,-3.16,-3.1823,-3.1932,-3.2127,-3.2401,-3.2519,-3.2586,-3.2586,-3.2813,-3.2939,-3.2957,-3.3256,-3.3422,-1.9529,-2.0245,-2.0566,-2.0566,-2.0566,-2.0566,-2.0566,-2.0225,-1.998,-2.0225,-1.9893,0.0,-1.9873,-1.957,0.0,0.0,0.0,0.0,-1.9974,-2.0297,-2.0296,0.0,-2.0083,0.0,-1.9312,-1.9702,-2.0162,0.0,-2.2252,-2.3329,-2.3565,-2.5132,-2.5955,-2.5955,-2.6314,-2.6533,-2.6533,-2.6533,-2.6533,-2.6533,-2.6533,-2.6714,-2.7095,-2.7351,-2.7736,-2.8117,-2.8826,-2.9093,-2.9156,-2.9532,-2.967,-2.9732,-3.0054,-3.019,-3.019,-3.0642,-3.0895,-3.1014,-3.1234,-3.1351,-3.1409,-3.1467,-3.1482,-3.1482,-3.1482,-3.1482,-3.1482,-3.1482,-3.094,-3.0314,-3.0314,-2.9681,-2.9074,-2.9074,-2.9303,-2.9483,-2.9483,-2.9705,-2.9941,-3.0156,-3.0199,-3.0258,-3.0468,-3.0526,-3.0526,-3.0568,-3.0692,-3.0831,-3.0935,-3.0992,-3.1055,-3.119,-3.119,-3.119,-3.119,-3.119,-3.119,-3.119,-3.119,-3.1291,-3.1449,-3.162,-3.1823,-3.2039,-3.2214,-3.2317,-3.2317,-3.2468,-3.2568,-3.2601,-3.3006,-3.3238,-1.9923,-2.0411,-2.0489,-2.0566,-2.0566,-2.0566,-2.0566,-2.0148,-1.9781,-1.999,0.0,-1.9781,-1.999,-1.9658,-1.9473,-1.9785,0.0,-1.8825,-1.9639,-1.9934,-1.9994,-1.9647,-1.9877,-1.99,-1.9532,-1.9689,-1.9944,-2.0389,-2.164,-2.2627,-2.314,-2.4437,-2.5158,-2.5312,-2.6094,-2.6533,-2.6533,-2.6533,-2.6533,-2.6533,-2.6533,-2.6533,-2.6521,-2.7095,-2.7351,-2.7417,-2.8051,-2.8363,-2.8363,-2.8427,-2.8492,-2.8556,-2.9219,-2.9421,-2.9546,-3.0251,-3.0568,-3.0747,-3.1043,-3.1219,-3.1351,-3.1467,-3.1482,-3.1482,-3.1482,-3.1482,-3.1482,-3.1482,-3.09,-3.021,-3.021,-2.9549,-2.8889,-2.8889,-2.8935,-2.8982,-2.8982,-2.9028,-2.9212,-2.9617,-2.975,-2.9941,-3.0342,-3.0468,-3.0568,-3.0692,-3.0814,-3.0935,-3.0975,-3.1015,-3.1055,-3.119,-3.119,-3.119,-3.119,-3.119,-3.119,-3.119,-3.119,-3.119,-3.119,-3.1487,-3.162,-3.162,-3.1967,-3.2144,-3.2144,-3.2214,-3.2214,-3.2248,-3.2702,-3.2988,-1.9045,-1.9539,-1.9696,-2.0411,-2.0566,-2.0566,-2.0566,-1.9687,0.0,0.0,-1.9621,-1.9182,-2.0304,-2.0098,-1.9717,-1.9443,0.0,0.0,-1.8767,-1.9305,-1.9667,0.0,-1.9815,-1.9849,-1.9532,-1.9561,0.0,0.0,-2.0989,-2.1667,-2.2402,-2.364,-2.4636,-2.53,-2.6094,-2.6533,-2.6533,-2.6533,-2.6533,-2.6533,-2.6533,-2.6533,-2.6533,-2.6589,-2.6658,-2.6714,-2.7351,-2.767,-2.7736,-2.8233,-2.8492,-2.8492,-2.862,-2.8698,-2.8698,-2.8826,-2.9456,-3.0147,-3.0208,-3.0703,-3.1351,-3.1467,-3.1482,-3.1482,-3.1482,-3.1482,-3.1482,-3.1482,-3.0638,-2.9726,-2.9726,-2.877,-2.786,-2.786,-2.8174,-2.8448,-2.8448,-2.8779,-2.912,-2.9212,-2.9528,-2.9853,-2.9897,-3.0342,-3.0692,-3.0692,-3.0855,-3.0975,-3.1015,-3.1112,-3.119,-3.119,-3.119,-3.119,-3.119,-3.119,-3.119,-3.119,-3.119,-3.119,-3.119,-3.1269,-3.1291,-3.1291,-3.1368,-3.1406,-3.1406,-3.1657,-3.1787,-3.1823,-3.2283,-3.2716,-1.8238,-1.8647,-1.8727,-1.9116,-1.9283,-1.9283,-1.9283,0.0,0.0,0.0,-1.8646,-1.8338,-1.9088,-1.9263,0.0,-1.8967,0.0,0.0,0.0,0.0,0.0,-1.9413,-1.9598,-1.9663,0.0,-1.9636,-1.9859,-2.0288,-2.0504,-2.1042,-2.1967,-2.3007,-2.3852,-2.4636,-2.5441,-2.5886,-2.5886,-2.6314,-2.6533,-2.6533,-2.6533,-2.6533,-2.6533,-2.6533,-2.6533,-2.6521,-2.685,-2.6973,-2.6973,-2.7351,-2.7484,-2.7484,-2.7868,-2.7986,-2.8051,-2.8363,-2.8812,-2.9254,-2.9718,-3.0162,-3.0613,-3.1219,-3.1409,-3.1409,-3.1467,-3.1482,-3.1482,-3.1482,-3.0597,-2.9579,-2.9579,-2.8629,-2.7625,-2.7625,-2.7745,-2.7944,-2.7944,-2.814,-2.8367,-2.8638,-2.8873,-2.9104,-2.9393,-2.9722,-2.9984,-3.0011,-3.014,-3.0368,-3.0699,-3.0797,-3.0918,-3.119,-3.119,-3.119,-3.119,-3.119,-3.119,-3.119,-3.119,-3.119,-3.119,-3.119,-3.119,-3.119,-3.119,-3.119,-3.119,-3.1351,-3.1449,-3.1507,-3.1967,-3.2351,-1.7307,-1.7607,-1.7755,-1.7917,-1.7997,-1.8078,-1.8238,-1.7989,0.0,0.0,-1.8149,-1.7908,-1.8238,-1.8399,-1.8479,0.0,-1.8453,-1.8677,0.0,0.0,0.0,0.0,-1.9442,0.0,-1.9707,-1.9872,0.0,-2.0246,-2.04,-2.079,-2.1631,-2.2499,-2.3276,-2.3841,-2.4647,-2.5158,-2.5312,-2.5955,-2.6314,-2.6533,-2.6533,-2.6533,-2.6533,-2.6533,-2.6533,-2.6533,-2.6533,-2.6533,-2.6533,-2.6533,-2.6533,-2.6521,-2.7095,-2.7284,-2.7351,-2.7855,-2.8182,-2.8441,-2.9093,-2.9421,-2.9747,-3.0598,-3.1043,-3.1351,-3.1467,-3.1482,-3.1482,-3.1482,-3.0597,-2.9579,-2.9579,-2.8629,-2.7625,-2.7625,-2.7625,-2.7625,-2.7625,-2.7625,-2.771,-2.8076,-2.8255,-2.8432,-2.8889,-2.9182,-2.9364,-2.9422,-2.9645,-2.9968,-3.0435,-3.0601,-3.0781,-3.1151,-3.119,-3.119,-3.119,-3.119,-3.119,-3.119,-3.119,-3.119,-3.119,-3.119,-3.119,-3.119,-3.119,-3.119,-3.119,-3.119,-3.1213,-3.1295,-3.1694,-3.1985,-1.5816,-1.6444,-1.7025,-1.7836,-1.7997,-1.8238,-1.8975,0.0,0.0,-2.0001,-1.9116,-1.8238,-1.9054,-1.8541,-1.7914,-1.7579,0.0,-1.8339,0.0,0.0,0.0,0.0,0.0,0.0,-2.0068,-2.0163,-2.0227,-2.0481,-2.1004,-2.1312,-2.1197,-2.2317,-2.3001,-2.3065,-2.3841,-2.4564,-2.53,-2.5382,-2.5816,-2.6533,-2.6533,-2.6533,-2.6533,-2.6533,-2.6533,-2.6533,-2.6533,-2.6533,-2.6533,-2.6533,-2.6533,-2.6533,-2.6589,-2.6589,-2.6589,-2.6658,-2.7162,-2.7802,-2.7868,-2.8325,-2.898,-2.9359,-3.0297,-3.1351,-3.1467,-3.1482,-3.1482,-3.1482,-3.0597,-2.9579,-2.9579,-2.8629,-2.7625,-2.7625,-2.7625,-2.7625,-2.7625,-2.7625,-2.761,-2.766,-2.8027,-2.8352,-2.8511,-2.9012,-2.9422,-2.9572,-3.0054,-3.0435,-3.0477,-3.0878,-3.1151,-3.119,-3.119,-3.119,-3.119,-3.119,-3.119,-3.119,-3.119,-3.119,-3.119,-3.119,-3.119,-3.119,-3.119,-3.119,-3.119,-3.119,-3.1213,-3.1295,-3.1445,-3.1783,-1.4598,-1.4872,-1.5135,-1.5454,-1.5679,-1.5825,-1.6228,0.0,-1.6026,-1.6838,-1.6519,-1.6206,-1.6706,-1.7025,-1.7139,-1.7,-1.7507,0.0,-1.7178,0.0,0.0,0.0,-1.8841,0.0,0.0,0.0,-2.0039,-2.0169,-2.0839,-2.1236,-2.1124,-2.1849,-2.2252,-2.2252,-2.3054,-2.357,-2.3936,-2.436,-2.4707,-2.5063,-2.5523,-2.5816,-2.5804,-2.6245,-2.6533,-2.6533,-2.6533,-2.6533,-2.6533,-2.6533,-2.6533,-2.6533,-2.6533,-2.6533,-2.6533,-2.6533,-2.6714,-2.704,-2.7564,-2.796,-2.8287,-2.9044,-2.967,-3.0176,-3.0718,-3.0896,-3.097,-3.1409,-3.0597,-2.9579,-2.9579,-2.8629,-2.7625,-2.7625,-2.7625,-2.7625,-2.7625,-2.7625,-2.7625,-2.7625,-2.7745,-2.7894,-2.8057,-2.835,-2.8574,-2.8732,-2.9044,-2.9364,-2.9601,-2.9821,-3.0054,-3.0326,-3.0838,-3.119,-3.119,-3.119,-3.119,-3.119,-3.119,-3.119,-3.119,-3.119,-3.119,-3.119,-3.119,-3.119,-3.119,-3.1252,-3.1329,-3.1406,-3.1521,-3.1709,-1.378,-1.3831,-1.3909,-1.3909,-1.4071,-1.4226,0.0,0.0,-1.4775,-1.5094,-1.502,-1.4871,-1.5123,-1.5523,-1.5913,-1.5913,0.0,-1.6679,-1.6388,-1.6776,0.0,0.0,0.0,-1.9116,0.0,-1.9938,-2.0226,-2.03,-2.0849,-2.1246,-2.1321,-2.1631,-2.1807,-2.1807,-2.2327,-2.2777,-2.3001,-2.3486,-2.3902,-2.412,-2.4636,-2.4933,-2.4933,-2.5804,-2.6176,-2.6176,-2.6383,-2.6533,-2.6533,-2.6533,-2.6533,-2.6533,-2.6533,-2.6533,-2.6533,-2.6533,-2.6521,-2.6658,-2.7255,-2.7523,-2.7723,-2.8481,-2.8739,-2.8853,-2.9656,-3.0025,-3.0286,-3.0793,-3.0116,-2.925,-2.9041,-2.8329,-2.7625,-2.7625,-2.7625,-2.7625,-2.7625,-2.7625,-2.7625,-2.7625,-2.7625,-2.7675,-2.784,-2.7955,-2.8103,-2.825,-2.8477,-2.8748,-2.9044,-2.9212,-2.9438,-2.975,-3.041,-3.0797,-3.0797,-3.0918,-3.1015,-3.1015,-3.1112,-3.119,-3.119,-3.119,-3.119,-3.119,-3.119,-3.119,-3.119,-3.1274,-3.1351,-3.1517,-3.1559,-3.1671,-1.342,-1.3666,-1.3909,-1.3909,-1.3909,-1.4145,0.0,-1.5219,-1.5435,-1.6236,-1.5726,-1.5219,-1.5219,-1.4528,-1.3995,-1.4159,-1.4917,0.0,-1.5115,-1.5871,0.0,0.0,0.0,-1.863,-1.9788,-2.0476,-2.0974,-2.1195,-2.1349,0.0,-2.1797,-2.1807,-2.1807,-2.1807,-2.1807,-2.2176,-2.3001,-2.3001,-2.335,-2.4108,-2.4108,-2.4108,-2.4108,-2.4933,-2.5312,-2.5382,-2.6164,-2.6533,-2.6533,-2.6533,-2.6533,-2.6533,-2.6533,-2.6533,-2.6533,-2.6533,-2.6589,-2.6714,-2.6714,-2.6863,-2.7011,-2.7268,-2.7335,-2.7469,-2.8287,-2.8967,-2.9501,-2.952,-2.9086,-2.8457,-2.7769,-2.7625,-2.7625,-2.7625,-2.7625,-2.7625,-2.7625,-2.7625,-2.7625,-2.7625,-2.7725,-2.784,-2.7955,-2.8103,-2.8235,-2.8396,-2.8779,-2.9074,-2.9074,-2.9483,-2.9793,-2.9793,-2.981,-2.9793,-2.9793,-3.0225,-3.0518,-3.0518,-3.0918,-3.119,-3.119,-3.119,-3.119,-3.119,-3.119,-3.119,-3.119,-3.1274,-3.1351,-3.1517,-3.1559,-3.1671,-1.2688,-1.2729,-1.2811,-1.2962,-1.3044,-1.3271,-1.3641,-1.374,-1.3974,-1.4336,-1.4187,-1.4038,-1.4201,-1.4052,-1.3909,-1.3988,-1.4294,-1.4488,0.0,0.0,0.0,-1.6244,-1.7886,-1.9348,0.0,0.0,-2.0906,-2.0984,-2.1282,-2.1502,-2.1578,-2.1731,-2.1807,-2.1807,-2.1807,-2.1959,-2.2176,-2.2176,-2.2317,-2.2531,-2.3128,-2.335,-2.335,-2.4131,-2.4492,-2.4492,-2.53,-2.5676,-2.5734,-2.6245,-2.6533,-2.6533,-2.6533,-2.6533,-2.6533,-2.6589,-2.6658,-2.6726,-2.6998,-2.7134,-2.7214,-2.7403,-2.7469,-2.7391,-2.7314,-2.7746,-2.8201,-2.7752,-2.7526,-2.7248,-2.6547,-2.6375,-2.6375,-2.6375,-2.6375,-2.6375,-2.6375,-2.6707,-2.6982,-2.6982,-2.7423,-2.784,-2.7955,-2.8088,-2.8235,-2.8396,-2.8541,-2.8621,-2.8621,-2.8748,-2.8842,-2.8842,-2.8842,-2.9106,-2.9766,-2.9924,-3.014,-3.0477,-3.0658,-3.0878,-3.119,-3.119,-3.119,-3.119,-3.119,-3.119,-3.119,-3.1274,-3.1389,-3.1559,-3.1671,-3.1746,0.0,-1.2385,-1.2305,-1.2452,-1.252,0.0,0.0,-1.2802,-1.2866,-1.3006,-1.3083,-1.3237,-1.3314,-1.3474,-1.3557,-1.3634,-1.371,-1.3798,0.0,0.0,0.0,-1.5649,0.0,0.0,0.0,-2.0255,-2.0576,-2.0906,-2.1205,-2.1359,-2.1359,-2.1512,-2.1578,-2.1578,-2.1731,-2.1807,-2.1807,-2.1807,-2.1807,-2.1807,-2.2327,-2.2553,-2.2553,-2.3338,-2.3694,-2.3779,-2.4791,-2.5312,0.0,-2.6176,-2.6533,-2.6533,-2.6533,-2.6533,-2.6521,-2.6658,-2.6726,-2.6863,-2.7201,-2.7335,-2.7364,-2.7209,-2.7066,-2.6778,-2.6203,-2.6507,-2.687,-2.6516,-2.6413,-2.6329,-2.5895,-2.5783,-2.5783,-2.5783,-2.5783,-2.5837,-2.6068,-2.6457,-2.6788,-2.6997,-2.7473,-2.7905,-2.8005,-2.8152,-2.8299,-2.8411,-2.8411,-2.8411,-2.8411,-2.8411,-2.8411,-2.8411,-2.8411,-2.8621,-2.9227,-2.9438,-2.9661,-2.9951,-3.0123,-3.0351,-3.0675,-3.0675,-3.0757,-3.0918,-3.0935,-3.1015,-3.119,-3.1329,-3.1483,-3.1671,-3.1746,-3.18,0.0,-1.2437,0.0,0.0,0.0,0.0,-1.2298,-1.2305,0.0,-1.2298,-1.2452,-1.2599,-1.2599,-1.2746,-1.2973,-1.3119,-1.32,-1.3273,0.0,-1.3564,0.0,0.0,-1.6413,0.0,-1.9061,-1.9371,-1.9844,-2.0664,-2.0974,-2.1128,-2.1128,-2.1128,-2.1205,-2.1205,-2.1578,-2.1807,-2.1807,-2.1807,-2.1807,-2.1807,-2.1807,-2.1807,-2.1807,-2.2521,-2.2872,-2.2947,-2.4422,-2.5051,-2.5121,-2.5951,-2.6321,-2.6402,-2.6371,-2.6465,-2.6521,-2.6658,-2.6794,-2.7011,-2.7214,-2.7377,-2.7313,-2.6804,-2.6229,-2.5667,-2.5132,-2.5356,-2.5716,-2.5675,-2.567,-2.5687,-2.5687,-2.5687,-2.5687,-2.5687,-2.5687,-2.5837,-2.6404,-2.6563,-2.6721,-2.7357,-2.769,-2.7905,-2.7905,-2.8152,-2.8363,-2.8363,-2.8396,-2.8411,-2.8411,-2.8411,-2.8411,-2.8411,-2.8411,-2.8411,-2.8411,-2.8779,-2.909,-2.9074,-2.9483,-2.9766,-2.9793,-2.9793,-3.0011,-3.0435,-3.0477,-3.074,-3.119,-3.1402,-3.1593,-3.18,-3.18,-3.18,-1.0268,0.0,-1.1558,-1.2305,-1.2378,-1.2305,0.0,-1.2378,-1.2305,-1.2526,0.0,0.0,-1.2599,-1.2673,-1.2673,-1.2753,-1.2973,-1.3193,-1.3273,0.0,0.0,-1.6405,-1.68,-1.7252,-1.8249,-1.8318,-1.8479,-1.8647,-1.952,-2.0001,-2.0001,-2.0722,-2.1205,-2.1205,-2.1436,-2.1578,-2.1578,-2.1731,-2.1807,-2.1807,-2.1807,-2.1807,-2.1797,-2.1584,-2.1565,-2.1544,-2.2182,-2.2439,-2.2531,-2.3758,-2.4548,-2.5091,-2.5436,-2.5955,-2.6521,-2.6658,-2.6726,-2.6794,-2.7201,-2.6984,-2.6596,-2.614,-2.5641,-2.5145,-2.5014,-2.5082,-2.5097,-2.4662,-2.4495,-2.4492,-2.4492,-2.4492,-2.4492,-2.4492,-2.4492,-2.4549,-2.4664,-2.5048,-2.5481,-2.5837,-2.6443,-2.693,-2.7122,-2.761,-2.794,-2.794,-2.8201,-2.8411,-2.8411,-2.8411,-2.8411,-2.8411,-2.8411,-2.8411,-2.8411,-2.8493,-2.87,-2.909,-2.9212,-2.9438,-2.981,-2.9793,-2.9837,-2.9968,-3.0309,-3.074,-3.119,-3.1402,-3.1517,-3.1576,-3.1726,-3.18,-0.915,-0.9976,-1.0801,-1.1706,-1.1855,-1.1855,-1.2378,0.0,0.0,0.0,0.0,0.0,0.0,0.0,-1.29,-1.29,-1.3119,0.0,0.0,0.0,0.0,-1.5687,-1.5894,-1.6355,0.0,-1.7432,-1.7594,-1.7997,-1.8559,-1.8877,-1.8877,-1.9766,-2.0333,-2.0333,-2.0765,-2.1222,-2.1502,-2.1525,-2.1487,-2.1487,-2.1269,-2.1176,-2.1166,-2.0907,-2.0803,-2.0783,-2.1377,-2.1607,-2.1699,-2.2719,-2.3442,-2.3819,-2.4034,-2.4429,-2.484,-2.4964,-2.5246,-2.5674,-2.5927,-2.591,-2.5725,-2.5524,-2.504,-2.4583,-2.4583,-2.4583,-2.4517,-2.4204,-2.4112,-2.4112,-2.4112,-2.4112,-2.4112,-2.4112,-2.4112,-2.4171,-2.4447,-2.4778,-2.516,-2.5687,-2.6176,-2.6602,-2.6849,-2.7408,-2.779,-2.779,-2.8152,-2.8411,-2.8411,-2.8411,-2.8411,-2.8411,-2.8411,-2.8411,-2.8411,-2.8411,-2.8493,-2.8732,-2.8779,-2.8873,-2.9152,-2.9152,-2.9273,-2.9483,-2.9968,-3.0309,-3.0601,-3.0821,-3.1021,-3.1218,-3.1466,-3.1634,-0.8322,-0.8998,-0.9744,-1.0657,-1.0887,-1.1105,-1.1774,0.0,0.0,0.0,0.0,0.0,0.0,-1.2893,0.0,0.0,0.0,0.0,-1.3492,-1.3777,-1.4106,-1.4428,-1.475,0.0,-1.6429,-1.6542,-1.6788,-1.7513,-1.7755,-1.7811,-1.7751,-1.8559,-1.9016,-1.8952,-1.9782,-2.0527,-2.106,-2.1059,-2.101,-2.1,-2.0617,-2.042,-2.042,-2.0348,-2.0327,-2.0317,-2.0936,-2.1192,-2.1261,-2.2003,-2.2433,-2.2513,-2.2593,-2.2684,-2.2819,-2.2942,-2.349,-2.4239,-2.4464,-2.4708,-2.4888,-2.487,-2.4517,-2.4112,-2.4112,-2.4112,-2.4112,-2.4112,-2.4112,-2.4112,-2.4112,-2.4112,-2.4112,-2.4112,-2.4112,-2.4229,-2.4721,-2.4835,-2.5104,-2.5851,-2.6176,-2.6336,-2.6654,-2.7188,-2.7575,-2.7575,-2.7925,-2.8186,-2.8186,-2.8186,-2.8186,-2.8186,-2.8186,-2.8235,-2.8299,-2.8299,-2.8348,-2.8411,-2.8411,-2.8411,-2.8411,-2.8411,-2.8621,-2.9074,-2.9483,-2.9777,-2.9962,-3.0192,-3.0485,-3.0874,-3.1106,-3.1389,-0.7633,-0.7787,-0.8237,-0.9744,-1.0045,-1.0121,-1.0271,0.0,0.0,0.0,0.0,0.0,0.0,-1.2526,-1.2673,0.0,0.0,-1.3346,0.0,0.0,-1.4106,-1.4428,0.0,-1.5065,-1.5553,-1.5582,-1.5673,-1.5748,-1.646,-1.6806,-1.65,-1.7274,-1.7682,-1.7351,-1.8406,-1.8998,-1.9139,-2.004,-2.0534,-2.0534,-2.0452,-2.042,-2.041,-2.0038,-1.9862,-1.991,-1.9583,-1.9473,-1.9504,-2.0039,-2.0665,-2.1229,-2.165,-2.2218,-2.2819,-2.2819,-2.3301,-2.3916,-2.4306,-2.4389,-2.4298,-2.4268,-2.4191,-2.4112,-2.4112,-2.4112,-2.4112,-2.4112,-2.4112,-2.4112,-2.4112,-2.4112,-2.4112,-2.4112,-2.4112,-2.4112,-2.4229,-2.4229,-2.4332,-2.4694,-2.5034,-2.5342,-2.5647,-2.6258,-2.6721,-2.6721,-2.7034,-2.7291,-2.7291,-2.7291,-2.7291,-2.7291,-2.7291,-2.7444,-2.784,-2.789,-2.8054,-2.8363,-2.8411,-2.8411,-2.8411,-2.8411,-2.8621,-2.9074,-2.9166,-2.9528,-3.013,-3.0267,-3.0435,-3.0716,-3.0804,-3.0908,-0.7484,-0.7484,-0.771,-0.8389,-0.8917,-0.9372,-0.982,0.0,0.0,0.0,0.0,0.0,0.0,0.0,-1.2673,-1.29,0.0,-1.3273,-1.3492,-1.3931,-1.4304,0.0,0.0,-1.5262,-1.5416,-1.5431,-1.5357,-1.5174,-1.5472,-1.5564,-1.5309,-1.6044,-1.6426,-1.6329,-1.7172,-1.7652,-1.7652,-1.8014,-1.8813,-2.0058,-1.981,-1.9696,-1.9686,-1.9479,-1.9385,-1.9375,-1.9158,-1.9075,-1.9085,-1.9303,-1.9645,-1.9924,-2.0147,-2.0493,-2.0885,-2.1274,-2.1658,-2.2027,-2.2884,-2.3109,-2.3059,-2.3248,-2.3292,-2.3292,-2.3292,-2.3292,-2.3365,-2.3628,-2.3878,-2.4112,-2.4112,-2.4112,-2.4112,-2.4112,-2.4112,-2.4112,-2.4112,-2.4112,-2.4157,-2.4465,-2.4637,-2.4821,-2.5188,-2.566,-2.6014,-2.6014,-2.6534,-2.6901,-2.6901,-2.7004,-2.7122,-2.7122,-2.7122,-2.7174,-2.7408,-2.7408,-2.771,-2.8363,-2.8411,-2.8411,-2.8411,-2.8411,-2.8493,-2.87,-2.8748,-2.8889,-2.9213,-2.9499,-2.9793,-3.0123,-3.0377,-3.0642,-0.7484,-0.7484,-0.7484,-0.7484,0.0,-0.8546,-0.9216,0.0,0.0,0.0,0.0,0.0,0.0,-1.1626,0.0,-1.2746,-1.3046,-1.3193,-1.3492,-1.3989,-1.4355,-1.4355,-1.486,-1.5204,-1.5204,-1.5204,-1.5101,-1.4853,-1.4831,-1.4692,-1.437,-1.4942,-1.5263,-1.5185,-1.588,-1.6309,-1.6309,-1.6307,-1.7227,-1.8953,-1.8816,-1.8721,-1.8798,-1.8931,-1.9075,-1.9075,-1.9075,-1.9075,-1.9075,-1.9075,-1.9075,-1.9075,-1.9075,-1.9075,-1.9198,-1.9955,-2.0268,-2.0398,-2.1604,-2.2051,-2.2113,-2.247,-2.2592,-2.2592,-2.2592,-2.2592,-2.2665,-2.3125,-2.3437,-2.3806,-2.4054,-2.4112,-2.4112,-2.4112,-2.4112,-2.4112,-2.4112,-2.4112,-2.4157,-2.4363,-2.4465,-2.4567,-2.4821,-2.5203,-2.5467,-2.5467,-2.5946,-2.6322,-2.639,-2.6602,-2.6759,-2.6811,-2.6811,-2.6864,-2.6967,-2.7071,-2.7378,-2.8024,-2.8201,-2.825,-2.825,-2.8348,-2.8411,-2.8411,-2.8411,-2.8396,-2.8493,-2.8905,-2.9273,-2.9601,-3.0011,-3.0351,-0.733,-0.7484,-0.7484,-0.7484,-0.7561,0.0,-0.7633,-0.8246,0.0,-0.8775,0.0,0.0,0.0,-1.0657,-1.1335,-1.1706,-1.2452,-1.3046,-1.3419,0.0,-1.4018,-1.4018,-1.4326,-1.4538,-1.4538,-1.4538,-1.4531,-1.4501,-1.4501,-1.4362,-1.4033,-1.4087,-1.3947,-1.3645,-1.4529,-1.5007,-1.5007,-1.5895,-1.6385,-1.6551,-1.7217,-1.7619,-1.7842,-1.8529,-1.8942,-1.9075,-1.9075,-1.9075,-1.9075,-1.9075,-1.9075,-1.9075,-1.9075,-1.9075,-1.9198,-1.9835,-2.0096,-2.0291,-2.1502,-2.1877,-2.2002,-2.2482,-2.2592,-2.2592,-2.2592,-2.2592,-2.2592,-2.2665,-2.2665,-2.2907,-2.3865,-2.4112,-2.4112,-2.4112,-2.4112,-2.4112,-2.4112,-2.4112,-2.4112,-2.4112,-2.4305,-2.4509,-2.4509,-2.4821,-2.5061,-2.5061,-2.5118,-2.523,-2.5536,-2.5605,-2.5702,-2.5948,-2.6002,-2.615,-2.651,-2.6864,-2.7122,-2.7174,-2.761,-2.784,-2.784,-2.8201,-2.8411,-2.8411,-2.8411,-2.8493,-2.87,-2.8982,-2.9259,-2.9515,-2.9814,-2.9946,-0.6791,-0.7253,-0.7484,-0.7484,-0.7484,0.0,0.0,-0.771,-0.794,-0.794,-0.8623,0.0,0.0,0.0,-1.0651,-1.1552,-1.1855,-1.2305,-1.3346,-1.3546,-1.3748,-1.3982,-1.419,-1.4387,-1.4465,-1.4472,-1.4384,-1.4179,-1.4165,-1.4026,-1.3697,-1.3675,-1.3623,-1.3499,-1.3848,-1.4065,-1.4065,-1.441,-1.4553,-1.4553,-1.6298,-1.7285,-1.7706,-1.8259,-1.8741,-1.9075,-1.9075,-1.9075,-1.9075,-1.9075,-1.9075,-1.9075,-1.9075,-1.9075,-1.9131,-1.9396,-1.9462,-1.9584,-2.0484,-2.0805,-2.0869,-2.1502,-2.1702,-2.1702,-2.1702,-2.1702,-2.1815,-2.2051,-2.2175,-2.2298,-2.298,-2.316,-2.3233,-2.3569,-2.3641,-2.376,-2.4054,-2.4112,-2.4112,-2.4112,-2.4157,-2.4261,-2.4261,-2.4332,-2.4447,-2.4447,-2.4593,-2.4821,-2.5131,-2.5369,-2.5592,-2.5839,-2.5893,-2.5948,-2.6096,-2.6258,-2.6351,-2.6351,-2.6982,-2.7342,-2.7342,-2.7494,-2.7595,-2.7595,-2.7875,-2.8088,-2.8122,-2.8795,-2.9167,-2.9259,-2.9681,-2.9918,-0.6244,-0.6942,-0.7484,0.0,0.0,0.0,-0.7484,-0.7484,-0.7484,-0.7484,-0.794,0.0,0.0,0.0,0.0,0.0,-1.0956,-1.1403,-1.2439,-1.2621,-1.2832,-1.3283,-1.3556,-1.3844,-1.4157,-1.4157,-1.407,-1.3843,-1.3828,-1.3733,-1.3506,-1.3492,-1.3492,-1.3492,-1.3492,-1.3492,-1.3492,-1.3492,-1.3492,-1.3492,-1.5188,-1.6376,-1.7001,-1.7852,-1.8472,-1.8875,-1.9008,-1.9075,-1.9075,-1.9075,-1.9075,-1.9075,-1.9075,-1.9075,-1.9075,-1.9075,-1.9198,-1.9452,-1.9977,-2.0172,-2.0366,-2.0955,-2.1094,-2.1031,-2.1158,-2.1221,-2.1285,-2.1588,-2.1702,-2.1765,-2.2063,-2.2359,-2.2665,-2.3065,-2.3138,-2.3258,-2.3556,-2.3616,-2.3675,-2.3878,-2.3878,-2.3936,-2.4054,-2.4112,-2.4112,-2.4112,-2.4261,-2.4478,-2.4821,-2.5131,-2.5481,-2.5839,-2.5893,-2.5893,-2.5893,-2.5893,-2.5893,-2.5893,-2.6404,-2.6774,-2.6916,-2.7019,-2.7174,-2.7342,-2.7524,-2.774,-2.7855,-2.8446,-2.8716,-2.8716,-2.9335,-2.9665,-0.5693,-0.67,0.0,0.0,0.0,0.0,-0.7484,-0.7484,-0.7484,-0.7484,0.0,-0.7484,-0.7484,-0.8169,0.0,-0.8998,-0.9669,-1.0265,-1.049,-1.0875,-1.1323,-1.1903,-1.2365,-1.2826,-1.3419,-1.3499,-1.3499,-1.3499,-1.3492,-1.3492,-1.3492,-1.3492,-1.3492,-1.3492,-1.3492,-1.3492,-1.3492,-1.3492,-1.3492,-1.3492,-1.392,-1.4625,-1.5534,-1.7226,-1.8076,-1.8337,-1.8865,-1.9075,-1.9065,-1.9075,-1.9075,-1.9075,-1.9075,-1.9075,-1.9075,-1.9075,-1.9528,-2.0107,-2.0096,-2.0302,-2.0635,-2.1031,-2.0903,-2.07,-2.1094,-2.1158,-2.1158,-2.1158,-2.1221,-2.1221,-2.1221,-2.1877,-2.2592,-2.2592,-2.2592,-2.2592,-2.2592,-2.2592,-2.2738,-2.3271,-2.3403,-2.3522,-2.3995,-2.4112,-2.4112,-2.4112,-2.4112,-2.4216,-2.4465,-2.4821,-2.523,-2.5839,-2.5893,-2.5893,-2.5893,-2.5893,-2.5893,-2.5893,-2.5893,-2.6096,-2.6457,-2.6864,-2.7291,-2.779,-2.7539,-2.7604,-2.8005,-2.7944,-2.7898,-2.7913,-2.8732,-2.9074,-0.4533,-0.5699,0.0,0.0,0.0,0.0,0.0,-0.7484,0.0,0.0,-0.7484,-0.7484,-0.7484,-0.771,0.0,-0.8846,-0.9074,-0.9448,-1.034,-1.034,-1.0421,-1.0858,-1.0938,-1.1168,-1.1781,-1.1781,-1.1929,-1.2224,-1.2599,-1.29,-1.29,-1.3273,-1.3492,-1.3492,-1.3492,-1.3492,-1.3492,-1.3492,-1.3492,-1.3492,-1.392,-1.441,-1.5108,-1.6105,-1.6881,-1.7354,-1.7706,-1.8124,-1.8539,-1.8942,-1.9075,-1.9075,-1.9075,-1.9075,-1.9075,-1.9075,-1.9198,-1.9462,-1.966,-1.9791,-1.9933,-2.0302,-2.0366,-2.0302,-2.0366,-2.056,-2.0764,-2.0764,-2.0967,-2.1221,-2.1221,-2.14,-2.1702,-2.2002,-2.2125,-2.2175,-2.2531,-2.2592,-2.2665,-2.2798,-2.2859,-2.2992,-2.3509,-2.3305,-2.3292,-2.3995,-2.3819,-2.3923,-2.4765,-2.5328,-2.5729,-2.5893,-2.5893,-2.5893,-2.5893,-2.5893,-2.5893,-2.5893,-2.5893,-2.5948,-2.6042,-2.6204,-2.6312,-2.6472,-2.6683,-2.6893,-2.71,-2.753,-2.8012,-2.848,-2.8889,-2.9319,-0.399,0.0,0.0,0.0,0.0,-0.6784,-0.7099,0.0,0.0,0.0,0.0,-0.7484,-0.7484,-0.7484,0.0,-0.8318,-0.8318,-0.8466,-0.9216,-0.9221,-0.9372,-0.982,-0.997,-1.0196,-1.0801,-1.0875,-1.095,-1.1174,-1.17,-1.2003,-1.2003,-1.2753,-1.3119,-1.3119,-1.3346,-1.3492,-1.3492,-1.3492,-1.3492,-1.3492,-1.3783,-1.4057,-1.441,-1.533,-1.6035,-1.6376,-1.6941,-1.7501,-1.7998,-1.8259,-1.8395,-1.8462,-1.8664,-1.8808,-1.8808,-1.9008,-1.9208,-1.9341,-1.9539,-1.9605,-1.9671,-1.9977,-2.0042,-1.9911,-2.0042,-2.0237,-2.0431,-2.0571,-2.0764,-2.1031,-2.1158,-2.1221,-2.1285,-2.1526,-2.1639,-2.1702,-2.2002,-2.2063,-2.2125,-2.2298,-2.2298,-2.2482,-2.3005,-2.2798,-2.2786,-2.3412,-2.3318,-2.3497,-2.4221,-2.4921,-2.5384,-2.5508,-2.5784,-2.5893,-2.5893,-2.5893,-2.5893,-2.5893,-2.5893,-2.5893,-2.5893,-2.5893,-2.6002,-2.615,-2.6258,-2.6525,-2.6841,-2.7086,-2.7479,-2.7978,-2.8304,-2.8638,-0.3834,0.0,0.0,0.0,0.0,0.0,-0.6405,-0.6942,-0.7326,-0.748,0.0,-0.7484,-0.7484,-0.7484,-0.7484,-0.7484,-0.7484,-0.7484,-0.7484,-0.7795,-0.825,-0.8775,-0.9221,-0.9669,-1.019,-1.0265,-1.0265,-1.034,-1.0726,-1.0962,-1.0962,-1.1855,-1.2445,-1.2452,-1.3046,-1.3419,-1.3419,-1.3492,-1.3492,-1.3492,-1.3492,-1.3492,-1.3564,-1.4832,-1.5392,-1.5534,-1.6446,-1.7019,-1.7304,-1.7373,-1.7373,-1.7442,-1.7988,-1.8202,-1.8269,-1.8798,-1.9142,-1.9407,-1.9407,-1.9407,-1.9473,-1.977,-1.9649,-1.9462,-1.9781,-1.9901,-2.0031,-2.0366,-2.0506,-2.07,-2.1031,-2.1158,-2.1221,-2.1221,-2.1221,-2.1221,-2.1221,-2.1221,-2.1348,-2.1765,-2.1815,-2.2002,-2.2482,-2.2482,-2.2482,-2.2531,-2.275,-2.3005,-2.3255,-2.3975,-2.458,-2.4878,-2.5384,-2.5715,-2.5715,-2.5715,-2.5715,-2.5715,-2.5784,-2.5839,-2.5839,-2.5893,-2.6042,-2.6457,-2.6218,-2.6379,-2.6959,-2.663,-2.663,-2.687,-2.7276,-2.7515,0.0,-0.3837,0.0,0.0,0.0,-0.5622,-0.578,-0.5935,-0.6318,-0.7326,-0.7484,-0.7484,-0.7484,-0.7484,-0.7484,-0.7484,-0.7484,-0.7484,-0.7484,-0.7561,-0.7714,-0.7787,-0.7863,-0.8089,-0.8551,-0.8627,-0.8775,-0.9074,-0.9599,-0.99,-0.99,-1.0571,-1.1099,-1.1409,-1.199,-1.2432,-1.2826,-1.3273,-1.3492,-1.3492,-1.3492,-1.3492,-1.3492,-1.4129,-1.4697,-1.5267,-1.5903,-1.6394,-1.6811,-1.7235,-1.7373,-1.7373,-1.751,-1.7579,-1.7579,-1.7716,-1.7784,-1.7852,-1.7852,-1.7852,-1.792,-1.7978,-1.791,-1.792,-1.7978,-1.8509,-1.91,-1.9166,-1.9835,-2.0635,-2.0711,-2.0967,-2.1221,-2.1221,-2.1221,-2.1221,-2.1221,-2.1221,-2.1221,-2.1348,-2.1348,-2.1526,-2.1939,-2.1765,-2.1639,-2.2002,-2.2604,-2.3088,-2.3255,-2.3669,-2.4034,-2.4208,-2.4323,-2.4425,-2.4425,-2.4425,-2.4425,-2.4425,-2.4921,-2.5174,-2.5174,-2.5674,-2.5948,-2.6056,-2.5948,-2.6111,-2.6447,-2.6379,-2.6683,-2.7327,-2.7464,-2.7715,0.0,0.0,0.0,0.0,0.0,0.0,-0.5162,-0.5392,-0.5777,-0.6475,-0.6865,-0.7176,-0.7484,-0.7484,-0.7484,-0.7484,-0.7484,-0.7484,-0.7484,-0.7484,-0.7484,-0.7484,-0.7484,-0.7561,-0.7791,-0.7795,-0.7868,-0.8093,-0.8623,-0.8851,-0.8851,-0.9669,-1.0271,-1.0663,-1.1248,-1.1768,-1.215,-1.2452,-1.2673,-1.2673,-1.29,-1.3193,-1.3499,-1.371,-1.4209,-1.4919,-1.5204,-1.57,-1.6272,-1.6482,-1.6621,-1.6691,-1.689,-1.7028,-1.7028,-1.7314,-1.7373,-1.7373,-1.7373,-1.7373,-1.7373,-1.7373,-1.7373,-1.7373,-1.7373,-1.7706,-1.8172,-1.8442,-1.8967,-1.9507,-1.977,-1.9977,-2.0172,-2.0172,-2.07,-2.1221,-2.1221,-2.1221,-2.1221,-2.1221,-2.1221,-2.1285,-2.1526,-2.1336,-2.1285,-2.1526,-2.2002,-2.2298,-2.2347,-2.2967,-2.3386,-2.3446,-2.3787,-2.4021,-2.4021,-2.4021,-2.4021,-2.4021,-2.4337,-2.4509,-2.4509,-2.4851,-2.5258,-2.5893,-2.5893,-2.6002,-2.6233,-2.6233,-2.6472,-2.7004,-2.7004,-2.7225,0.0,0.0,0.0,0.0,0.0,0.0,-0.4387,-0.4851,-0.5312,-0.5392,-0.5938,-0.656,-0.7096,-0.7249,-0.733,-0.733,-0.7407,-0.7484,-0.7484,-0.7484,-0.7484,-0.7484,-0.7484,-0.7484,-0.7484,-0.7484,-0.7484,-0.7484,-0.7795,-0.8025,-0.8025,-0.8846,-0.9528,-0.9916,-1.0588,-1.1111,-1.1558,-1.1632,-1.1706,-1.1706,-1.2224,-1.2673,-1.3193,-1.3193,-1.3702,-1.4489,-1.4489,-1.4927,-1.5584,-1.5584,-1.5584,-1.5655,-1.6053,-1.6324,-1.6394,-1.6881,-1.7028,-1.7107,-1.7107,-1.7107,-1.7107,-1.7107,-1.7107,-1.7107,-1.7107,-1.7166,-1.7373,-1.7765,-1.8037,-1.8307,-1.8777,-1.8911,-1.8977,-1.8977,-1.9901,-2.0828,-2.0967,-2.1094,-2.1221,-2.1221,-2.1221,-2.1221,-2.1221,-2.1221,-2.1221,-2.1221,-2.1273,-2.14,-2.1388,-2.2125,-2.2677,-2.275,-2.3267,-2.3682,-2.3682,-2.3682,-2.3682,-2.3682,-2.38,-2.3846,-2.3846,-2.3962,-2.4496,-2.5536,-2.5591,-2.566,-2.577,-2.577,-2.592,-2.6162,-2.6283,-2.6472,0.0,0.0,0.0,0.0,0.0,-0.3295,0.0,0.0,-0.4151,0.0,-0.5315,-0.5777,-0.5854,-0.6325,-0.6714,-0.6714,-0.7176,-0.7484,-0.7484,-0.7484,-0.7484,-0.7484,-0.7484,-0.7484,-0.7484,-0.7484,-0.7484,-0.7484,-0.7561,-0.7561,-0.7561,-0.8021,-0.8479,-0.8851,-0.9841,-1.0519,-1.0887,-1.1409,-1.1706,-1.1706,-1.1781,-1.1855,-1.1929,-1.1929,-1.2732,-1.4201,-1.4201,-1.4418,-1.4784,-1.4784,-1.4784,-1.4784,-1.4848,-1.5062,-1.5409,-1.5488,-1.5709,-1.6008,-1.6008,-1.6008,-1.6008,-1.6008,-1.6008,-1.6008,-1.6008,-1.6342,-1.6742,-1.6811,-1.7491,-1.825,-1.8307,-1.8643,-1.8977,-1.8977,-1.9177,-1.9441,-2.0096,-2.0764,-2.1221,-2.1221,-2.1221,-2.1221,-2.1221,-2.1221,-2.1221,-2.1221,-2.1221,-2.1285,-2.1388,-2.1514,-2.1702,-2.1975,-2.2099,-2.2223,-2.242,-2.242,-2.242,-2.242,-2.2919,-2.3195,-2.3195,-2.3728,-2.4079,-2.4253,-2.4253,-2.4323,-2.4523,-2.4523,-2.4667,-2.4966,-2.5494,-2.5811,0.1171,0.0,0.0,0.0,-0.2668,-0.2747,-0.2747,0.0,-0.3137,-0.3448,-0.368,-0.4224,-0.5389,-0.5625,-0.5783,-0.6012,-0.6089,-0.6163,-0.6395,-0.6398,-0.6553,-0.6945,-0.7022,-0.7099,-0.7484,-0.7484,-0.7484,-0.7484,-0.7484,-0.7484,-0.7484,-0.7638,-0.7944,-0.8327,-0.9008,-0.9539,-0.9916,-1.0443,-1.0887,-1.1186,-1.1186,-1.1335,-1.1706,-1.1706,-1.2218,-1.3091,-1.3462,-1.3753,-1.4122,-1.4489,-1.4569,-1.4569,-1.4569,-1.4713,-1.4919,-1.5133,-1.5275,-1.5505,-1.5726,-1.5805,-1.5805,-1.5805,-1.5805,-1.5805,-1.5805,-1.5938,-1.6202,-1.6272,-1.6682,-1.7019,-1.7088,-1.7295,-1.7491,-1.7491,-1.7823,-1.822,-1.8546,-1.9288,-1.9966,-1.9966,-1.9966,-1.9966,-1.9966,-1.9966,-1.9966,-1.9966,-1.9966,-1.9966,-2.002,-2.015,-2.0279,-2.042,-2.0996,-2.1388,-2.1451,-2.1925,-2.2197,-2.2197,-2.2482,-2.258,-2.258,-2.2884,-2.2992,-2.2992,-2.3682,-2.4021,-2.415,-2.415,-2.4266,-2.4597,-2.4838,-2.5133,0.0,0.0,0.0,0.0,-0.1645,-0.1723,0.0,0.0,-0.2275,0.0,-0.2431,-0.2978,-0.4533,-0.4691,-0.4768,-0.5157,-0.5079,-0.5079,-0.5389,-0.5544,-0.578,-0.6247,-0.6328,-0.6556,-0.6942,-0.7173,-0.7253,-0.7253,-0.7407,-0.7484,-0.7484,-0.7561,-0.7791,-0.8102,-0.8475,-0.8856,-0.917,-0.9544,-0.9997,-1.0443,-1.0513,-1.0812,-1.126,-1.126,-1.1403,-1.1755,-1.2498,-1.2945,-1.3237,-1.368,-1.3833,-1.3833,-1.3833,-1.3905,-1.4049,-1.4322,-1.4545,-1.4768,-1.5275,-1.5426,-1.5505,-1.5726,-1.5805,-1.5805,-1.5805,-1.5805,-1.5797,-1.6,-1.607,-1.6132,-1.6202,-1.6272,-1.6272,-1.6272,-1.6742,-1.7207,-1.7677,-1.8355,-1.8977,-1.8977,-1.8977,-1.8977,-1.8977,-1.8977,-1.8977,-1.8977,-1.8977,-1.8977,-1.8977,-1.91,-1.9233,-1.9299,-2.0074,-2.059,-2.0655,-2.1262,-2.1726,-2.1925,-2.1925,-2.1987,-2.2185,-2.2197,-2.2197,-2.2197,-2.3053,-2.3564,-2.3564,-2.3564,-2.3682,-2.406,-2.4221,-2.4452,0.0,0.0,0.0,0.1331,0.0,0.0,0.0,0.0,-0.1646,-0.1646,-0.2117,-0.2511,-0.2666,-0.3134,-0.3602,-0.4068,-0.4613,-0.5004,-0.5004,-0.5389,-0.5622,-0.5622,-0.5622,-0.5699,-0.5699,-0.6247,-0.6641,-0.6641,-0.7176,-0.7484,-0.7484,-0.7872,-0.8102,-0.8102,-0.8475,-0.8703,-0.8699,-0.9165,-0.9322,-0.9397,-0.9771,-0.9997,-0.9992,-0.9992,-0.9992,-1.0067,-1.126,-1.1781,-1.1781,-1.1855,-1.1855,-1.1855,-1.1855,-1.2063,-1.2418,-1.2418,-1.2785,-1.3375,-1.4099,-1.453,-1.4752,-1.5576,-1.5805,-1.5805,-1.5805,-1.5805,-1.5805,-1.5797,-1.5929,-1.6132,-1.6132,-1.6202,-1.6272,-1.6272,-1.6342,-1.6811,-1.8365,-1.8767,-1.8834,-1.8977,-1.8977,-1.8977,-1.8977,-1.8977,-1.8977,-1.8977,-1.8977,-1.8977,-1.8977,-1.9044,-1.911,-1.9299,-1.9497,-1.9748,-1.9857,-2.0085,-2.0484,-2.1135,-2.1135,-2.1463,-2.2185,-2.2197,-2.2197,-2.2197,-2.2247,-2.2309,-2.2309,-2.2309,-2.2494,-2.28,-2.3352,-2.3813,0.0,0.0,0.0,0.2033,0.133,0.1017,0.0861,0.0314,-0.0157,-0.0157,-0.0392,-0.0628,-0.0862,-0.1723,-0.2586,-0.2978,-0.3054,-0.313,-0.3368,-0.3522,-0.3756,-0.4146,-0.4455,-0.4768,-0.5157,-0.5702,-0.5935,-0.5935,-0.6556,-0.6945,-0.6945,-0.7407,-0.7714,-0.7714,-0.8097,-0.8403,-0.8703,-0.9089,-0.9322,-0.9322,-0.9695,-0.9922,-0.9922,-0.9922,-0.9922,-0.9916,-1.0368,-1.0738,-1.1186,-1.1558,-1.1706,-1.1706,-1.1706,-1.1781,-1.1996,-1.2365,-1.2659,-1.2952,-1.4099,-1.453,-1.4752,-1.5505,-1.5805,-1.5805,-1.5805,-1.5805,-1.5805,-1.5805,-1.5867,-1.5938,-1.5938,-1.5938,-1.6008,-1.6008,-1.6008,-1.6211,-1.6872,-1.7217,-1.7413,-1.7413,-1.756,-1.7638,-1.7638,-1.7638,-1.7638,-1.7638,-1.7638,-1.7638,-1.7638,-1.7638,-1.7706,-1.7774,-1.8432,-1.89,-1.8957,-1.9628,-2.0226,-2.042,-2.0484,-2.0549,-2.0816,-2.0816,-2.0816,-2.0816,-2.0816,-2.1273,-2.2197,-2.2197,-2.2309,-2.2482,-2.2714,-2.3005,0.5068,0.0,0.0,0.0,0.0,0.2271,0.2193,0.0,0.1333,0.1333,0.1176,0.0941,0.0548,-0.0235,-0.1097,-0.1803,-0.196,-0.196,-0.2275,-0.2431,-0.2666,-0.3057,-0.3368,-0.3756,-0.4146,-0.4613,-0.4846,-0.4846,-0.5467,-0.5935,-0.6093,-0.6475,-0.6861,-0.7176,-0.7638,-0.8021,-0.8322,-0.8708,-0.8865,-0.8865,-0.9311,-0.9463,-0.9463,-0.9463,-0.9539,-0.9695,-0.9695,-0.9997,-1.0513,-1.0962,-1.1111,-1.1111,-1.1111,-1.1111,-1.1111,-1.1558,-1.1706,-1.1929,-1.3157,-1.3585,-1.3738,-1.4545,-1.4848,-1.4848,-1.4848,-1.4848,-1.4919,-1.4919,-1.4991,-1.4999,-1.4999,-1.5213,-1.5426,-1.5426,-1.5576,-1.5876,-1.6,-1.6202,-1.6473,-1.6603,-1.6682,-1.683,-1.6908,-1.6908,-1.6908,-1.6908,-1.6908,-1.6908,-1.6908,-1.6908,-1.6908,-1.6908,-1.7647,-1.8182,-1.8182,-1.8911,-1.9507,-1.9704,-1.9704,-1.9835,-2.0107,-2.0096,-2.0096,-2.0096,-2.0096,-2.056,-2.1474,-2.1474,-2.1588,-2.1702,-2.1702,-2.1889,0.0,0.0,0.0,0.0,0.0,0.0,0.3919,0.0,0.2818,0.2818,0.2347,0.1799,0.141,0.1332,0.0862,-0.0548,-0.141,-0.1803,-0.1882,-0.2195,-0.2431,-0.2431,-0.251,-0.251,-0.251,-0.3057,-0.3368,-0.3368,-0.3986,-0.453,-0.4924,-0.5004,-0.547,-0.6563,-0.7176,-0.7484,-0.7484,-0.7872,-0.8102,-0.8102,-0.8475,-0.8703,-0.8703,-0.8703,-0.8932,-0.9246,-0.9246,-0.9473,-0.9846,-0.9916,-0.9922,-0.9922,-0.9922,-0.9922,-0.9922,-0.9922,-0.9992,-1.0293,-1.1111,-1.1558,-1.1848,-1.2652,-1.2865,-1.2865,-1.2865,-1.3011,-1.3164,-1.3164,-1.331,-1.3462,-1.3462,-1.4034,-1.453,-1.4609,-1.5133,-1.5726,-1.5726,-1.5859,-1.6132,-1.6542,-1.6603,-1.6682,-1.6908,-1.6908,-1.6908,-1.6908,-1.6908,-1.6908,-1.6908,-1.6839,-1.6839,-1.6839,-1.7185,-1.747,-1.747,-1.7803,-1.8259,-1.8911,-1.8911,-1.9233,-1.9966,-1.9966,-1.9966,-2.0031,-2.0031,-2.0031,-2.0031,-2.0096,-2.015,-2.0268,-2.0333,-2.0515,0.8084,0.0,0.0,0.0,0.0,0.0,0.0,0.0,0.3754,0.3754,0.3522,0.3212,0.3134,0.2741,0.227,0.1878,0.0705,-0.0235,-0.0706,-0.0863,-0.1099,-0.157,-0.1883,-0.2038,-0.2038,-0.2508,-0.2744,-0.2744,-0.3288,-0.3912,-0.4302,-0.5002,-0.5544,-0.5857,-0.6012,-0.6321,-0.6872,-0.7249,-0.7633,-0.8102,-0.8475,-0.8703,-0.8703,-0.8703,-0.878,-0.8856,-0.8856,-0.8932,-0.9084,-0.969,-0.9922,-0.9922,-0.9922,-0.9922,-0.9916,-1.0067,-1.0143,-1.0368,-1.126,-1.1632,-1.1848,-1.2652,-1.2865,-1.2865,-1.2865,-1.2938,-1.3011,-1.3011,-1.3011,-1.3084,-1.3237,-1.3448,-1.3593,-1.3745,-1.397,-1.4122,-1.4122,-1.4186,-1.4617,-1.6123,-1.6473,-1.6682,-1.6908,-1.6908,-1.6908,-1.6908,-1.6482,-1.6114,-1.6114,-1.5613,-1.5463,-1.6044,-1.6263,-1.6682,-1.747,-1.7176,-1.7157,-1.7482,-1.6913,-1.6697,-1.6895,-1.6904,-1.7179,-1.7736,-1.7813,-1.8027,-1.8596,-1.9573,-2.0096,-2.0161,-2.0398,-2.059,0.0,0.0,0.0,0.0,0.0,0.0,0.5848,0.5386,0.4996,0.454,0.4387,0.4233,0.4075,0.3759,0.3444,0.321,0.2508,0.1647,0.0705,0.0627,0.047,0.0078,-0.047,-0.0862,-0.0862,-0.1412,-0.1726,-0.1805,-0.2196,-0.2585,-0.3132,-0.43,-0.4999,-0.4999,-0.5389,-0.578,-0.617,-0.6395,-0.6703,-0.7096,-0.7318,-0.7391,-0.7391,-0.7391,-0.7621,-0.8089,-0.8089,-0.8165,-0.8394,-0.8851,-0.9236,-0.9695,-0.9846,-0.9922,-0.9922,-0.9992,-1.0067,-1.0143,-1.0738,-1.0962,-1.1037,-1.1471,-1.1613,-1.1613,-1.1613,-1.1687,-1.1761,-1.1761,-1.1835,-1.1916,-1.2063,-1.2358,-1.2652,-1.2806,-1.3091,-1.3382,-1.3462,-1.3535,-1.3818,-1.4974,-1.5401,-1.5604,-1.5754,-1.5895,-1.5974,-1.5974,-1.5542,-1.533,-1.533,-1.4895,-1.4752,-1.5251,-1.5471,-1.5762,-1.6394,-1.6254,-1.6175,-1.6306,-1.5956,-1.5675,-1.5675,-1.5675,-1.5956,-1.6376,-1.6376,-1.6585,-1.7019,-1.8509,-1.9253,-1.9253,-1.9507,-1.9694,0.0,0.0,0.0,0.0,0.8461,0.0,0.7003,0.6696,0.6465,0.5553,0.5323,0.5243,0.4849,0.4846,0.4693,0.4229,0.4151,0.36,0.2189,0.2033,0.1955,0.1877,0.1252,0.0783,0.0783,0.0,-0.055,-0.0628,-0.0785,-0.1177,-0.1724,-0.3132,-0.3912,-0.3912,-0.4768,-0.5312,-0.5389,-0.5389,-0.5467,-0.5544,-0.5544,-0.5622,-0.5622,-0.5622,-0.6083,-0.7007,-0.7007,-0.7242,-0.7548,-0.7629,-0.8165,-0.9089,-0.9463,-0.9614,-0.9614,-0.9614,-0.9614,-0.9614,-0.9614,-0.9614,-0.9533,-0.9533,-0.9614,-0.9614,-0.969,-0.9841,-1.0067,-1.0143,-1.0293,-1.0443,-1.0438,-1.1037,-1.1558,-1.1781,-1.2365,-1.2945,-1.3164,-1.3164,-1.3237,-1.3375,-1.3745,-1.4034,-1.4235,-1.4378,-1.453,-1.453,-1.4458,-1.4386,-1.4458,-1.4386,-1.4314,-1.4458,-1.4609,-1.476,-1.4903,-1.518,-1.5321,-1.5392,-1.5392,-1.5463,-1.5463,-1.5463,-1.5463,-1.5604,-1.5675,-1.5675,-1.5675,-1.7088,-1.7725,-1.7725,-1.792,-1.8124,0.0,0.0,0.0,0.0,0.9614,0.0,0.8466,0.8156,0.7995,0.777,0.7621,0.7468,0.7391,0.7387,0.7157,0.6395,0.6083,0.5223,0.2971,0.266,0.2425,0.1955,0.172,0.1642,0.1642,0.0861,0.047,0.0862,-0.0235,-0.094,-0.1097,-0.2194,-0.2823,-0.2823,-0.2978,-0.3368,-0.3834,-0.4224,-0.4613,-0.5157,-0.5467,-0.5622,-0.5622,-0.5622,-0.5699,-0.5931,-0.5931,-0.5928,-0.6086,-0.6395,-0.6934,-0.7625,-0.7698,-0.7851,-0.7999,-0.7999,-0.7851,-0.7698,-0.7698,-0.7617,-0.7379,-0.7379,-0.7536,-0.7851,-0.8461,-0.8846,-0.916,-0.9765,-0.9992,-1.0067,-1.0218,-1.0368,-1.0519,-1.0738,-1.0881,-1.1105,-1.1254,-1.1329,-1.1403,-1.1552,-1.2792,-1.381,-1.4011,-1.4083,-1.4155,-1.4155,-1.3585,-1.3302,-1.3448,-1.2945,-1.2799,-1.36,-1.3745,-1.4106,-1.4832,-1.4553,-1.441,-1.4553,-1.4129,-1.392,-1.392,-1.392,-1.4194,-1.4816,-1.5392,-1.5675,-1.5675,-1.6026,-1.6167,-1.6167,-1.6367,-1.6428,1.1409,0.0,1.1186,1.0738,1.0594,0.0,0.0,0.9069,0.8836,0.838,0.8156,0.808,0.808,0.808,0.8003,0.7548,0.7391,0.6846,0.5604,0.453,0.3759,0.3521,0.3127,0.2813,0.2813,0.2034,0.1565,0.1722,0.0783,0.0235,0.0235,-0.0705,-0.141,-0.1724,-0.196,-0.2352,-0.2979,-0.3212,-0.3524,-0.4073,-0.4229,-0.446,-0.4693,-0.4693,-0.4849,-0.5162,-0.5162,-0.5162,-0.5162,-0.5392,-0.5547,-0.5777,-0.6619,-0.7076,-0.7153,-0.7153,-0.7076,-0.7003,-0.7003,-0.6923,-0.6765,-0.6765,-0.6919,-0.7076,-0.7456,-0.777,-0.8084,-0.8537,-0.8689,-0.8689,-0.8841,-0.8841,-0.8912,-0.914,-0.9135,-0.9216,-0.9518,-0.9593,-0.9674,-0.983,-1.064,-1.152,-1.2565,-1.2785,-1.2858,-1.2858,-1.2572,-1.2358,-1.2432,-1.2077,-1.2077,-1.2659,-1.2732,-1.2945,-1.3528,-1.3542,-1.355,-1.3622,-1.3557,-1.3492,-1.3492,-1.3492,-1.3557,-1.36,-1.3962,-1.4027,-1.373,-1.4027,-1.4673,-1.5675,-1.5807,-1.5869,1.1706,1.1558,1.1484,1.1484,1.1335,1.1031,0.0,0.0,0.0,0.8912,0.8765,0.0,0.0,0.0,0.0,0.8406,0.0,0.0,0.0,0.6685,0.0,0.5634,0.4691,0.4144,0.4295,0.3439,0.2738,0.2425,0.1879,0.1567,0.1567,0.0783,0.0157,-0.0313,-0.0704,-0.1175,-0.1724,-0.1881,-0.2117,-0.2511,-0.2746,-0.2981,-0.337,-0.3528,-0.3841,-0.4309,-0.4309,-0.4309,-0.4309,-0.4309,-0.4075,-0.3921,-0.5616,-0.6304,-0.6304,-0.6304,-0.6304,-0.6307,-0.6307,-0.623,-0.6227,-0.6227,-0.6381,-0.6535,-0.6535,-0.6846,-0.7161,-0.7306,-0.7383,-0.7383,-0.7383,-0.7383,-0.7383,-0.7613,-0.7689,-0.7766,-0.8228,-0.8304,-0.8385,-0.8618,-0.8699,-0.9155,-1.0657,-1.1031,-1.1105,-1.1105,-1.1105,-1.1105,-1.118,-1.118,-1.1329,-1.1552,-1.1552,-1.1626,-1.1848,-1.2144,-1.2372,-1.2372,-1.2739,-1.2893,-1.2893,-1.2893,-1.2746,-1.2298,-1.2305,-1.2077,-1.1706,-1.2157,-1.3382,-1.51,-1.5251,-1.5384,1.1706,1.1706,1.1706,1.1706,1.1632,1.1632,1.1477,0.0,1.1403,1.1105,0.0,1.0956,1.0807,0.0,0.0,0.0,0.0,0.0,0.8143,0.7824,0.7774,0.7774,0.6012,0.5243,0.6079,0.4999,0.3834,0.3054,0.274,0.266,0.266,0.2033,0.1641,0.1563,0.1563,0.133,0.0862,0.0469,0.0078,-0.0392,-0.1332,-0.1803,-0.1881,-0.2431,-0.2666,-0.2744,-0.2744,-0.2744,-0.2744,-0.2744,-0.2744,-0.2824,-0.3919,-0.454,-0.4691,-0.4691,-0.454,-0.4387,-0.4387,-0.4309,-0.4151,-0.4151,-0.4766,-0.5538,-0.5696,-0.6234,-0.6842,-0.6842,-0.6842,-0.6842,-0.6842,-0.6842,-0.6919,-0.7238,-0.7238,-0.7387,-0.7766,-0.7999,-0.8156,-0.838,-0.8542,-0.8775,-0.9003,-0.9003,-0.9079,-0.9079,-0.9079,-0.9079,-0.9301,-0.9453,-0.9674,-0.982,-1.0045,-1.0121,-1.0196,-1.0415,-1.049,-1.049,-1.0714,-1.0864,-1.0864,-1.0864,-1.0944,-1.126,-1.126,-1.1409,-1.1706,-1.1781,-1.2224,-1.2959,-1.3484,-1.3775,1.2077,1.1929,1.1855,1.1855,1.1781,1.1706,1.1706,1.1706,1.1706,1.1558,0.0,0.0,0.0,0.0,0.0,0.0,1.0804,1.0685,0.0,0.0,0.8988,0.8232,0.7314,0.6703,0.6542,0.5544,0.4696,0.4231,0.3992,0.3834,0.3756,0.3288,0.2818,0.2425,0.2425,0.219,0.1643,0.1485,0.1172,0.0782,0.0,-0.0313,-0.0312,-0.086,-0.0938,-0.0703,-0.0703,-0.0703,-0.0703,-0.0938,-0.1017,-0.1095,-0.1801,-0.2585,-0.3292,-0.3292,-0.3214,-0.3215,-0.3452,-0.3454,-0.3452,-0.3684,-0.4073,-0.446,-0.4696,-0.4927,-0.5231,-0.5384,-0.5384,-0.5384,-0.5384,-0.5384,-0.5464,-0.5699,-0.578,-0.5854,-0.6237,-0.6391,-0.6549,-0.6703,-0.6865,-0.6865,-0.6865,-0.7936,-0.8703,-0.8703,-0.8703,-0.8699,-0.8851,-0.8927,-0.9074,-0.9372,-0.9523,-0.9669,-0.9895,-1.0115,-1.019,-1.019,-1.0415,-1.049,-1.049,-1.049,-1.0415,-1.0201,-1.0432,-1.0513,-1.0293,-1.0887,-1.1335,-1.1706,-1.2224,-1.2526,1.2739,1.2586,1.2439,1.2224,1.2077,1.2003,1.2291,1.2291,1.2291,1.2432,1.2285,0.0,0.0,0.0,0.0,0.0,0.0,1.1681,0.0,1.1057,0.0,0.914,0.8685,0.8075,0.7003,0.6391,0.5938,0.5556,0.5398,0.5085,0.4696,0.4384,0.3995,0.3444,0.3366,0.3129,0.2579,0.2579,0.2345,0.1955,0.1484,0.1171,0.1169,0.0703,0.0703,0.0936,0.0936,0.0936,0.0936,0.0624,0.0547,0.0469,0.0235,-0.047,-0.1409,-0.2037,-0.2275,-0.2353,-0.2747,-0.2904,-0.2982,-0.3372,-0.345,-0.345,-0.3608,-0.3686,-0.3686,-0.3997,-0.4073,-0.4073,-0.4229,-0.4073,-0.3915,-0.4151,-0.3992,-0.3915,-0.43,-0.4377,-0.4457,-0.4616,-0.4771,-0.4849,-0.4849,-0.6546,-0.7859,-0.7936,-0.7931,-0.7936,-0.8016,-0.8093,-0.8241,-0.8537,-0.8694,-0.8846,-0.9145,-0.9367,-0.9442,-0.9442,-0.9588,-0.9664,-0.9664,-0.9664,-0.9593,-0.9372,-0.9604,-0.969,-0.9473,-1.0218,-1.0663,-1.0887,-1.1484,-1.1855,1.3745,1.3673,1.3455,1.2746,1.2599,1.282,1.3753,1.3825,1.3897,1.4386,1.381,1.3091,1.2865,0.0,0.0,0.0,0.0,0.0,0.0,0.0,1.1558,1.1335,1.0276,0.914,0.8156,0.8003,0.7702,0.6865,0.6861,0.6402,0.5321,0.5243,0.5168,0.4937,0.4937,0.4701,0.4304,0.4304,0.4151,0.3684,0.3054,0.2738,0.2738,0.2111,0.1876,0.1876,0.1876,0.1876,0.1876,0.1876,0.1876,0.1876,0.1798,0.1798,0.1485,-0.0783,-0.1646,-0.1724,-0.2275,-0.2511,-0.2511,-0.2511,-0.2511,-0.2511,-0.2511,-0.2589,-0.2668,-0.3061,-0.3141,-0.3219,-0.3684,-0.3214,-0.2588,-0.2818,-0.2271,-0.1723,-0.1955,-0.2189,-0.2267,-0.2345,-0.2656,-0.2888,-0.2888,-0.4453,-0.5789,-0.5941,-0.6015,-0.6096,-0.6335,-0.6563,-0.6637,-0.6718,-0.7026,-0.7257,-0.7257,-0.7484,-0.7557,-0.7557,-0.7557,-0.7633,-0.7633,-0.7633,-0.794,-0.8699,-0.878,-0.9155,-0.9846,-0.9922,-0.9992,-1.0293,-1.1409,-1.2077,1.4736,1.4665,1.4665,1.4378,1.4314,1.4378,1.4736,1.4744,1.4816,1.495,1.4736,1.445,1.4243,0.0,0.0,0.0,0.0,0.0,0.0,0.0,1.207,1.2505,1.1087,0.989,0.9513,0.8908,0.8304,0.7927,0.7927,0.7468,0.6398,0.6321,0.6093,0.5404,0.5404,0.5326,0.5168,0.5168,0.509,0.4776,0.4307,0.4151,0.4229,0.3756,0.3677,0.3915,0.3915,0.3915,0.3912,0.3677,0.3519,0.3521,0.3288,0.3132,0.2898,0.1018,0.047,0.0625,0.0156,-0.0156,-0.0468,-0.0781,-0.086,-0.086,-0.1175,-0.1254,-0.1254,-0.141,-0.1568,-0.1646,-0.1802,-0.1802,-0.1724,-0.1958,-0.1802,-0.1645,-0.1877,-0.1955,-0.2033,-0.2033,-0.2188,-0.2423,-0.2423,-0.3049,-0.3675,-0.3982,-0.4139,-0.4295,-0.4375,-0.4608,-0.4766,-0.4924,-0.5312,-0.5622,-0.5702,-0.6089,-0.624,-0.624,-0.624,-0.624,-0.624,-0.624,-0.6395,-0.6623,-0.7003,-0.7387,-0.7613,-0.8075,-0.838,-0.8604,-0.9049,-0.9884,1.572,1.572,1.5658,1.5376,1.5313,1.5376,1.5728,1.5737,1.5737,1.6009,1.5799,1.5525,1.5392,0.0,0.0,0.0,0.0,0.0,0.0,1.352,1.3295,1.3882,1.2044,1.072,1.072,1.0115,0.9583,0.921,0.9064,0.8609,0.7621,0.7468,0.7165,0.6479,0.6479,0.6325,0.6096,0.6096,0.6018,0.586,0.5321,0.5246,0.5634,0.5087,0.4932,0.5249,0.5249,0.5249,0.5171,0.4932,0.4851,0.4776,0.4543,0.4465,0.4231,0.2506,0.1878,0.1876,0.1641,0.1327,0.1014,0.0781,0.0547,0.0391,0.0157,-0.0078,-0.0235,-0.0313,-0.047,-0.0627,-0.0783,-0.0705,-0.0627,-0.0784,-0.0627,-0.047,-0.0626,-0.0704,-0.0783,-0.0783,-0.1017,-0.1175,-0.1175,-0.1409,-0.1957,-0.2891,-0.3127,-0.3205,-0.3359,-0.3517,-0.3752,-0.3988,-0.4455,-0.4844,-0.5157,-0.5467,-0.5622,-0.5622,-0.5622,-0.5622,-0.5622,-0.5622,-0.5699,-0.5777,-0.616,-0.6542,-0.6773,-0.7157,-0.7464,-0.7689,-0.7689,-0.8376]}]]